[[{"header":{"parameterUnit":"m.s-1","parameterCategory":1,"la1":31.0,"la2":29.5877,"lo1":-88.7671,"lo2":-86.6584,"dy":0.0162,"dx":0.0185,"nx":115,"ny":88,"refTime":"2023-10-04T12:00:00:Z","depth":0,"parameterNumber":2,"parameterNumberName":"U-component_of_WINDS"},"data":[0.0,0.0,0.0,0.0,0.0,0.0,0.0,0.0,0.0,0.0,0.0,0.0,0.0,0.0,0.0,0.0,0.0,0.0,0.0,0.0,0.0,0.0,0.0,0.0,0.0,0.0,0.0,0.0,0.0,0.0,0.0,0.0,0.0,0.0,0.0,0.0,0.0,0.0,0.0,0.0,0.0,0.1367,0.2687,0.4015,0.4411,0.4566,0.4496,0.0,0.0,0.0,0.0,0.0,0.0,0.0,0.0,0.0,0.0,0.0,0.0,0.0,0.0,0.0,0.0,0.0,0.0,0.0,0.0,0.0,0.0,0.0,0.0,0.0,0.0,0.0,0.0,0.0,0.0,0.0,0.0,0.0,0.0,0.0,0.0,0.0,0.0,0.0,0.0,0.0,0.0,0.0,0.0,0.0,0.0,0.0,0.0,0.0,0.0,0.0,0.0,0.0,0.0,0.0,0.0,0.0,0.0,0.0,0.0,0.0,0.0,0.0,0.0,0.0,0.0,0.0,0.0,0.0,0.0,0.0,0.0,0.0,0.0,0.0,0.0,0.0,0.0,0.0,0.0,0.0,0.0,0.0,0.0,0.0,0.0,0.0,0.0,0.0,0.0,0.0,0.0,0.0,0.0,0.0,0.0,0.0,0.0,0.0,0.0,0.0,0.0,0.0,0.0,0.0,0.0,0.0,0.0,0.0,0.0,0.4374,0.308,0.4171,0.4655,0.435,0.0,0.0,0.0,0.0,0.0,0.0,0.0,0.0,0.0,0.0,0.0,0.0,0.0,0.0,0.0,0.0,0.0,0.0,0.0,0.0,0.0,0.0,0.0,0.0,0.0,0.0,0.0,0.0,0.0,0.0,0.0,0.0,0.0,0.0,0.0,0.0,0.0,0.0,0.0,0.0,0.0,0.0,0.0,0.0,0.0,0.0,0.0,0.0,0.0,0.0,0.0,0.0,0.0,0.0,0.0,0.0,0.0,0.0,0.0,0.0,0.0,0.0,0.0,0.0,0.0,0.0,0.0,0.0,0.0,0.0,0.0,0.0,0.0,0.0,0.0,0.0,0.0,0.0,0.0,0.0,0.0,0.0,0.0,0.0,0.0,0.0,0.0,0.0,0.0,0.0,0.0,0.0,0.0,0.0,0.0,0.0,0.0,0.0,0.0,0.0,0.0,0.0,0.0,0.0,0.0,0.0,0.0,0.0,0.0,0.0,0.4901,0.457,0.4836,0.4385,0.3137,0.0,0.0,0.0,0.0,0.0,0.0,0.0,0.0,0.0,0.0,0.0,0.0,0.0,0.0,0.0,0.0,0.0,0.0,0.0,0.0,0.0,0.0,0.0,0.0,0.0,0.0,0.0,0.0,0.0,0.0,0.0,0.0,0.0,0.0,0.0,0.0,0.0,0.0,0.0,0.0,0.0,0.0,0.0,0.0,0.0,0.0,0.0,0.0,0.0,0.0,0.0,0.0,0.0,0.0,0.0,0.0,0.0,0.0,0.0,0.0,0.0,0.0,0.0,0.0,0.0,0.0,0.0,0.0,0.0,0.0,0.0,0.0,0.0,0.0,0.0,0.0,0.0,0.0,0.0,0.0,0.0,0.0,0.0,0.0,0.0,0.0,0.0,0.0,0.0,0.0,0.0,0.0,0.0,0.0,0.0,0.0,0.0,0.0,0.0,0.0,0.0,0.0,0.0,0.0,0.0,0.0,0.0,0.0,0.0,0.0,0.4351,0.5078,0.5078,0.4609,0.3494,0.2995,0.0,0.0,0.0,0.0,0.0,0.0,0.0,0.0,0.0,0.0,0.0,0.0,0.0,0.0,0.0,0.0,0.0,0.0,0.0,0.0,0.0,0.0,0.0,0.0,0.0,0.0,0.0,0.0,0.0,0.0,0.0,0.0,0.0,0.0,0.0,0.0,0.0,0.0,0.0,0.0,0.0,0.0,0.0,0.0,0.0,0.0,0.0,0.0,0.0,0.0,0.0,0.0,0.0,0.0,0.0,0.0,0.0,0.0,0.0,0.0,0.0,0.0,0.0,0.0,0.0,0.0,0.0,0.0,0.0,0.0,0.0,0.0,0.0,0.0,0.0,0.0,0.0,0.0,0.0,0.0,0.0,0.0,0.0,0.0,0.0,0.0,0.0,0.0,0.0,0.0,0.0,0.0,0.0,0.0,0.0,0.0,0.0,0.0,0.0,0.0,0.0,0.0,0.0,0.0,0.0,0.0,0.0,0.0,0.0,0.3618,0.492,0.4844,0.4623,0.4329,0.1947,0.0,0.0,0.0,0.0,0.0,0.0,0.0,0.0,0.0,0.0,0.0,0.0,0.0,0.0,0.0,0.0,0.0,0.0,0.0,0.0,0.0,0.0,0.0,0.0,0.0,0.0,0.0,0.0,0.0,0.0,0.0,0.0,0.0,0.0,0.0,0.0,0.0,0.0,0.0,0.0,0.0,0.0,0.0,0.0,0.0,0.0,0.0,0.0,0.0,0.0,0.0,0.0,0.0,0.0,0.0,0.0,0.0,0.0,0.0,0.0,0.0,0.0,0.0,0.0,0.0,0.0,0.0,0.0,0.0,0.0,0.0,0.0,0.0,0.0,0.0,0.0,0.0,0.0,0.0,0.0,0.0,0.0,0.0,0.0,0.0,0.0,0.0,0.0,0.0,0.0,0.0,0.0,0.0,0.0,0.0,0.0,0.0,0.0,0.0,0.0,0.0,0.0,0.0,0.0,0.0,0.0,0.0,0.0,0.0,0.4785,0.5028,0.3738,0.3006,0.2943,0.3204,0.0,0.0,0.0,0.0,0.0,0.0,0.0,0.0,0.0,0.0,0.0,0.0,0.0,0.0,0.0,0.0,0.0,0.0,0.0,0.0,0.0,0.0,0.0,0.0,0.0,0.0,0.0,0.0,0.0,0.0,0.0,0.0,0.0,0.0,0.0,0.0,0.0,0.0,0.0,0.0,0.0,0.0,0.0,0.0,0.0,0.0,0.0,0.0,0.0,0.0,0.0,0.0,0.0,0.0,0.0,0.0,0.0,0.0,0.0,0.0,0.0,0.0,0.0,0.0,0.0,0.0,0.0,0.0,0.0,0.0,0.0,0.0,0.0,0.0,0.0,0.0,0.0,0.0,0.0,0.0,0.0,0.0,0.0,0.0,0.0,0.0,0.0,0.0,0.0,0.0,0.0,0.0,0.0,0.0,0.0,0.0,0.0,0.0,0.0,0.0,0.0,0.0,0.0,0.0,0.0,0.0,0.0,0.0,0.0,0.508,0.5028,0.4245,0.375,0.3512,0.2376,0.0,0.0,0.0,0.0,0.0,0.0,0.0,0.0,0.0,0.0,0.0,0.0,0.0,0.0,0.0,0.0,0.0,0.0,0.0,0.0,0.0,0.0,0.0,0.0,0.0,0.0,0.0,0.0,0.0,0.0,0.0,0.0,0.0,0.0,0.0,0.0,0.0,0.0,0.0,0.0,0.0,0.0,0.0,0.0,0.0,0.0,0.0,0.0,0.0,0.0,0.0,0.0,0.0,0.0,0.0,0.0,0.0,0.0,0.0,0.0,0.0,0.0,0.0,0.0,0.0,0.0,0.0,0.0,0.0,0.0,0.0,0.0,0.0,0.0,0.0,0.0,0.0,0.0,0.0,0.0,0.0,0.0,0.0,0.0,0.0,0.0,0.0,0.0,0.0,0.0,0.0,0.0,0.0,0.0,0.0,0.0,0.0,0.0,0.0,0.0,0.0,0.0,0.0,0.0,0.0,0.0,0.0,0.0,0.444,0.5019,0.5068,0.5071,0.4918,0.4543,0.1086,0.0,0.0,0.0,0.0,0.0,0.0,0.0,0.0,0.0,0.0,0.0,0.0,0.0,0.0,0.0,0.0,0.0,0.0,0.0,0.0,0.0,0.0,0.0,0.0,0.0,0.0,0.0,0.0,0.0,0.0,0.0,0.0,0.0,0.0,0.0,0.0,0.0,0.0,0.0,0.0,0.0,0.0,0.0,0.0,0.0,0.0,0.0,0.0,0.0,0.0,0.0,0.0,0.0,0.0,0.0,0.0,0.0,0.0,0.0,0.0,0.0,0.0,0.0,0.0,0.0,0.0,0.0,0.0,0.0,0.0,0.0,0.0,0.0,0.0,0.0,0.0,0.0,0.0,0.0,0.0,0.0,0.0,0.0,0.0,0.0,0.0,0.0,0.0,0.0,0.0,0.0,0.0,0.0,0.0,0.0,0.0,0.0,0.0,0.0,0.0,0.0,0.0,0.0,0.0,0.0,0.0,0.0,0.3241,0.4404,0.4995,0.5009,0.5069,0.4901,0.4464,0.0927,0.0,0.0,0.0,0.0,0.0,0.0,0.0,0.0,0.0,0.0,0.0,0.0,0.0,0.0,0.0,0.0,0.0,0.0,0.0,0.0,0.0,0.0,0.0,0.0,0.0,0.0,0.0,0.0,0.0,0.0,0.0,0.0,0.0,0.0,0.0,0.0,0.0,0.0,0.0,0.0,0.0,0.0,0.0,0.0,0.0,0.0,0.0,0.0,0.0,0.0,0.0,0.0,0.0,0.0,0.0,0.0,0.0,0.0,0.0,0.0,0.0,0.0,0.0,0.0,0.0,0.0,0.0,0.0,0.0,0.0,0.0,0.0,0.0,0.0,0.0,0.0,0.0,0.0,0.0,0.0,0.0,0.0,0.0,0.0,0.0,0.0,0.0,0.0,0.0,0.0,0.0,0.0,0.0,0.0,0.0,0.0,0.0,0.0,0.0,0.0,0.0,0.0,0.0,0.0,0.0,0.0,0.0539,0.1533,0.378,0.4996,0.5007,0.5072,0.4778,0.4038,0.0115,0.0,0.0,0.0,0.0,0.0,0.0,0.0,0.0,0.0,0.0,0.0,0.0,0.0,0.0,0.0,0.0,0.0,0.0,0.0,0.0,0.0,0.0,0.0,0.0,0.0,0.0,0.0,0.0,0.0,0.0,0.0,0.0,0.0,0.0,0.0,0.0,0.0,0.0,0.0,0.0,0.0,0.0,0.0,0.0,0.0,0.0,0.0,0.0,0.0,0.0,0.0,0.0,0.0,0.0,0.0,0.0,0.0,0.0,0.0,0.0,0.0,0.0,0.0,0.0,0.0,0.0,0.0,0.0,0.0,0.0,0.0,0.0,0.0,0.0,0.0,0.0,0.0,0.0,0.0,0.0,0.0,0.0,0.0,0.0,0.0,0.0,0.0,0.0,0.0,0.0,0.0,0.0,0.0,0.0,0.0,0.0,0.0,0.0,0.0,0.0,0.0,0.0,0.0,0.0,0.0,0.0,0.1045,0.1234,0.3258,0.4697,0.5193,0.5441,0.494,0.357,0.0,0.0,0.0,0.0,0.0,0.0,0.0,0.0,0.0,0.0,0.0,0.0,0.0,0.0,0.0,0.0,0.0,0.0,0.0,0.0,0.0,0.0,0.0,0.0,0.0,0.0,0.0,0.0,0.0,0.0,0.0,0.0,0.0,0.0,0.0,0.0,0.0,0.0,0.0,0.0,0.0,0.0,0.0,0.0,0.0,0.0,0.0,0.0,0.0,0.0,0.0,0.0,0.0,0.0,0.0,0.0,0.0,0.0,0.0,0.0,0.0,0.0,0.0,0.0,0.0,0.0,0.0,0.0,0.0,0.0,0.0,0.0,0.0,0.0,0.0,0.0,0.0,0.0,0.0,0.0,0.0,0.0,0.0,0.0,0.0,0.0,0.0,0.0,0.0,0.0,0.0,0.0,0.0,0.0,0.0,0.0,0.0,0.0,0.0,0.0,0.0,0.0,0.0,0.0,0.0,0.0,0.0,0.4007,0.4033,0.3275,0.3816,0.585,0.6553,0.5777,0.3479,0.0,0.0,0.0,0.0,0.0,0.0,0.0,0.0,0.0,0.0,0.0,0.0,0.0,0.0,0.0,0.0,0.0,0.0,0.0,0.0,0.0,0.0,0.0,0.0,0.0,0.0,0.0,0.0,0.0,0.0,0.0,0.0,0.0,0.0,0.0,0.0,0.0,0.0,0.0,0.0,0.0,0.0,0.0,0.0,0.0,0.0,0.0,0.0,0.0,0.0,0.0,0.0,0.0,0.0,0.0,0.0,0.0,0.0,0.0,0.0,0.0,0.0,0.0,0.0,0.0,0.0,0.0,0.0,0.0,0.0,0.0,0.0,0.0,0.0,0.0,0.0,0.0,0.0,0.0,0.0,0.0,0.0,0.0,0.0,0.0,0.0,0.0,0.0,0.0,0.0,0.0,0.0,0.0,0.0,0.0,0.0,0.0,0.0,0.0,0.0,0.0,0.0,0.0,0.0,0.0,0.0,0.1256,0.3632,0.7069,0.6777,0.6559,0.6701,0.5679,0.4531,0.3202,0.0,0.0,0.0,0.0,0.0,0.0,0.0,0.0,0.0,0.0,0.0,0.0,0.0,0.0,0.0,0.0,0.0,0.0,0.0,0.0,0.0,0.0,0.0,0.0,0.0,0.0,0.0,0.0,0.0,0.0,0.0,0.0,0.0,0.0,0.0,0.0,0.0,0.0,0.0,0.0,0.0,0.0,0.0,0.0,0.0,0.0,0.0,0.0,0.0,0.0,0.0,0.0,0.0,0.0,0.0,0.0,0.0,0.0,0.0,0.0,0.0,0.0,0.0,0.0,0.0,0.0,0.0,0.0,0.0,0.0,0.0,0.0,0.0,0.0,0.0,0.0,0.0,0.0,0.0,0.0,0.0,0.0,0.0,0.0,0.0,0.0,0.0,0.0,0.0,0.0,0.0,0.0,0.0,0.0,0.0,0.0,0.0,0.0,0.0,0.0,0.0,0.0,0.0,0.0,0.0,0.0,0.0869,0.3483,0.7659,0.796,0.7881,0.7719,0.6417,0.4959,0.3381,0.0,0.0,0.0,0.0,0.0,0.0,0.0,0.0,0.0,0.0,0.0,0.0,0.0,0.0,0.0,0.0,0.0,0.0,0.0,0.0,0.0,0.0,0.0,0.0,0.0,0.0,0.0,0.0,0.0,0.0,0.0,0.0,0.0,0.0,0.0,0.0,0.0,0.0,0.0,0.0,0.0,0.0,0.0,0.0,0.0,0.0,0.0,0.0,0.0,0.0,0.0,0.0,0.0,0.0,0.0,0.0,0.0,0.0,0.0,0.0,0.0,0.0,0.0,0.0,0.0,0.0,0.0,0.0,0.0,0.0,0.0,0.0,0.0,0.0,0.0,0.0,0.0,0.0,0.0,0.0,0.0,0.0,0.0,0.0,0.0,0.0,0.0,0.0,0.0,0.0,0.0,0.0,0.0,0.0,0.0,0.0,0.0,0.0,0.0,0.0,0.0,0.0,0.0,0.0,0.0,0.0,0.3011,0.4712,0.5107,0.5046,0.6317,0.9047,0.9952,0.8321,0.4188,0.0,0.0,0.0,0.0,0.0,0.0,0.0,0.0,0.0,0.0,0.0,0.0,0.0,0.0,0.0,0.0,0.0,0.0,0.0,0.0,0.0,0.0,0.0,0.0,0.0,0.0,0.0,0.0,0.0,0.0,0.0,0.0,0.0,0.0,0.0,0.0,0.0,0.0,0.0,0.0,0.0,0.0,0.0,0.0,0.0,0.0,0.0,0.0,0.0,0.0,0.0,0.0,0.0,0.0,0.0,0.0,0.0,0.0,0.0,0.0,0.0,0.0,0.0,0.0,0.0,0.0,0.0,0.0,0.0,0.0,0.0,0.0,0.0,0.0,0.0,0.0,0.0,0.0,0.0,0.0,0.0,0.0,0.0,0.0,0.0,0.0,0.0,0.0,0.0,0.0,0.0,0.0,0.0,0.0,0.0,0.0,0.0,0.0,0.0,0.0,0.0,0.0,0.0,0.0,0.0,0.0,0.116,0.3734,0.7556,0.7745,0.7886,0.8279,0.672,0.5592,0.4971,0.0,0.0,0.0,0.0,0.0,0.0,0.0,0.0,0.0,0.0,0.0,0.0,0.0,0.0,0.0,0.0,0.0,0.0,0.0,0.0,0.0,0.0,0.0,0.0,0.0,0.0,0.0,0.0,0.0,0.0,0.0,0.0,0.0,0.0,0.0,0.0,0.0,0.0,0.0,0.0,0.0,0.0,0.0,0.0,0.0,0.0,0.0,0.0,0.0,0.0,0.0,0.0,0.0,0.0,0.0,0.0,0.0,0.0,0.0,0.0,0.0,0.0,0.0,0.0,0.0,0.0,0.0,0.0,0.0,0.0,0.0,0.0,0.0,0.0,0.0,0.0,0.0,0.0,0.0,0.0,0.0,0.0,0.0,0.0,0.0,0.0,0.0,0.0,0.0,0.0,0.0,0.0,0.0,0.0,0.0,0.0,0.0,0.0,0.0,0.0,0.0,0.0,0.0,0.0,0.0,0.0,0.1026,0.3631,0.7787,0.827,0.7894,0.6811,0.5408,0.424,0.0,0.0,0.0,0.0,0.0,0.0,0.0,0.0,0.0,0.0,0.0,0.0,0.0,0.0,0.0,0.0,0.0,0.0,0.0,0.0,0.0,0.0,0.0,0.0,0.0,0.0,0.0,0.0,0.0,0.0,0.0,0.0,0.0,0.0,0.0,0.0,0.0,0.0,0.0,0.0,0.0,0.0,0.0,0.0,0.0,0.0,0.0,0.0,0.0,0.0,0.0,0.0,0.0,0.0,0.0,0.0,0.0,0.0,0.0,0.0,0.0,0.0,0.0,0.0,0.0,0.0,0.0,0.0,0.0,0.0,0.0,0.0,0.0,0.0,0.0,0.0,0.0,0.0,0.0,0.0,0.0,0.0,0.0,0.0,0.0,0.0,0.0,0.0,0.0,0.0,0.0,0.0,0.0,0.0,0.0,0.0,0.0,0.0,0.0,0.0,0.0,0.0,0.0,0.0,0.0,0.0,0.0,0.3225,0.4903,0.4976,0.6017,0.6191,0.4926,0.6626,0.4874,0.0,0.0,0.0,0.0,0.0,0.0,0.0,0.0,0.0,0.0,0.0,0.0,0.0,0.0,0.0,0.0,0.0,0.0,0.0,0.0,0.0,0.0,0.0,0.0,0.0,0.0,0.0,0.0,0.0,0.0,0.0,0.0,0.0,0.0,0.0,0.0,0.0,0.0,0.0,0.0,0.0,0.0,0.0,0.0,0.0,0.0,0.0,0.0,0.0,0.0,0.0,0.0,0.0,0.0,0.0,0.0,0.0,0.0,0.0,0.0,0.0,0.0,0.0,0.0,0.0,0.0,0.0,0.0,0.0,0.0,0.0,0.0,0.0,0.0,0.0,0.0,0.0,0.0,0.0,0.0,0.0,0.0,0.0,0.0,0.0,0.0,0.0,0.0,0.0,0.0,0.0,0.0,0.0,0.0,0.0,0.0,0.0,0.0,0.0,0.0,0.0,0.0,0.0,0.0,0.0,0.0,0.0,0.7664,0.799,0.8255,0.8306,0.8728,0.9386,0.6284,0.4196,0.3378,0.0,0.0,0.0,0.0,0.0,0.0,0.0,0.0,0.0,0.0,0.0,0.0,0.0,0.0,0.0,0.0,0.0,0.0,0.0,0.0,0.0,0.0,0.0,0.0,0.0,0.0,0.0,0.0,0.0,0.0,0.0,0.0,0.0,0.0,0.0,0.0,0.0,0.0,0.0,0.0,0.0,0.0,0.0,0.0,0.0,0.0,0.0,0.0,0.0,0.0,0.0,0.0,0.0,0.0,0.0,0.0,0.0,0.0,0.0,0.0,0.0,0.0,0.0,0.0,0.0,0.0,0.0,0.0,0.0,0.0,0.0,0.0,0.0,0.0,0.0,0.0,0.0,0.0,0.0,0.0,0.0,0.0,0.0,0.0,0.0,0.0,0.0,0.0,0.0,0.0,0.0,0.0,0.0,0.0,0.0,0.0,0.0,0.0,0.0,0.0,0.0,0.0,0.0,0.0,0.0,0.0,1.0273,1.0673,1.104,1.0288,0.9962,1.0162,0.6061,0.3712,0.3392,0.0,0.0,0.0,0.0,0.0,0.0,0.0,0.0,0.0,0.0,0.0,0.0,0.0,0.0,0.0,0.0,0.0,0.0,0.0,0.0,0.0,0.0,0.0,0.0,0.0,0.0,0.0,0.0,0.0,0.0,0.0,0.0,0.0,0.0,0.0,0.0,0.0,0.0,0.0,0.0,0.0,0.0,0.0,0.0,0.0,0.0,0.0,0.0,0.0,0.0,0.0,0.0,0.0,0.0,0.0,0.0,0.0,0.0,0.0,0.0,0.0,0.0,0.0,0.0,0.0,0.0,0.0,0.0,0.0,0.0,0.0,0.0,0.0,0.0,0.0,0.0,0.0,0.0,0.0,0.0,0.0,0.0,0.0,0.0,0.0,0.0,0.0,0.0,0.0,0.0,0.0,0.0,0.0,0.0,0.0,0.0,0.0,0.0,0.0,0.0,0.0,0.0,0.0,0.0,0.0,0.0,0.0,1.2759,1.3396,1.1933,1.009,0.7899,0.6151,0.3657,0.0442,0.0,0.0,0.0,0.0,0.0,0.0,0.0,0.0,0.0,0.0,0.0,0.0,0.0,0.0,0.0,0.0,0.0,0.0,0.0,0.0,0.0,0.0,0.0,0.0,0.0,0.0,0.0,0.0,0.0,0.0,0.0,0.0,0.0,0.0,0.0,0.0,0.0,0.0,0.0,0.0,0.0,0.0,0.0,0.0,0.0,0.0,0.0,0.0,0.0,0.0,0.0,0.0,0.0,0.0,0.0,0.0,0.0,0.0,0.0,0.0,0.0,0.0,0.0,0.0,0.0,0.0,0.0,0.0,0.0,0.0,0.0,0.0,0.0,0.0,0.0,0.0,0.0,0.0,0.0,0.0,0.0,0.0,0.0,0.0,0.0,0.0,0.0,0.0,0.0,0.0,0.0,0.0,0.0,0.0,0.0,0.0,0.0,0.0,0.0,0.0,0.0,0.0,0.0,0.0,0.0,0.0,1.1582,1.306,1.4523,1.3445,1.1837,0.9672,0.6968,0.4621,0.2789,0.0,0.0,0.0,0.0,0.0,0.0,0.0,0.0,0.0,0.0,0.0,0.0,0.0,0.0,0.0,0.0,0.0,0.0,0.0,0.0,0.0,0.0,0.0,0.0,0.0,0.0,0.0,0.0,0.0,0.0,0.0,0.0,0.0,0.0,0.0,0.0,0.0,0.0,0.0,0.0,0.0,0.0,0.0,0.0,0.0,0.0,0.0,0.0,0.0,0.0,0.0,0.0,0.0,0.0,0.0,0.0,0.0,0.0,0.0,0.0,0.0,0.0,0.0,0.0,0.0,0.0,0.0,0.0,0.0,0.0,0.0,0.0,0.0,0.0,0.0,0.0,0.0,0.0,0.0,0.0,0.0,0.0,0.0,0.0,0.0,0.0,0.0,0.0,0.0,0.0,0.0,0.0,0.0,0.0,0.0,0.0,0.0,0.0,0.0,0.0,0.0,0.0,0.0,0.0,0.0,0.0,1.2509,1.3884,1.5593,1.4466,1.2685,1.0308,0.7541,0.5241,0.3539,0.0,0.0,0.0,0.0,0.0,0.0,0.0,0.0,0.0,0.0,0.0,0.0,0.0,0.0,0.0,0.0,0.0,0.0,0.0,0.0,0.0,0.0,0.0,0.0,0.0,0.0,0.0,0.0,0.0,0.0,0.0,0.0,0.0,0.0,0.0,0.0,0.0,0.0,0.0,0.0,0.0,0.0,0.0,0.0,0.0,0.0,0.0,0.0,1.8522,0.0,0.0,0.0,0.0,0.0,0.0,0.0,0.0,0.0,0.0,0.0,0.0,0.0,0.0,0.0,0.0,0.0,0.0,0.0,0.0,0.0,0.0,0.0,0.0,0.0,0.0,0.0,0.0,0.0,0.0,0.0,0.0,0.0,0.0,0.0,0.0,0.0,0.0,0.0,0.0,0.0,0.0,0.0,0.0,0.0,0.0,0.0,0.0,0.0,0.0,0.0,0.0,0.0,0.0,0.0,1.0215,1.2907,1.4116,1.5216,1.644,1.4971,1.2922,1.026,0.7895,0.5661,0.3462,0.0,0.0,0.0,0.0,0.0,0.0,0.0,0.0,0.0,0.0,0.0,0.0,0.0,0.0,0.0,0.0,0.0,0.0,0.0,0.0,0.0,0.0,0.0,0.0,0.0,0.0,0.0,0.0,0.0,0.0,0.0,0.0,0.0,0.0,0.0,0.0,0.0,0.0,0.0,0.0,0.0,0.0,0.0,0.0,0.0,0.0,0.0,1.9903,1.8167,0.0,0.0,0.0,0.0,0.0,0.0,0.0,0.0,0.0,0.0,0.0,0.0,0.0,0.0,0.0,0.0,0.0,0.0,0.0,0.0,0.0,0.0,0.0,0.0,0.0,0.0,0.0,0.5194,0.0,0.4096,0.0,0.0,0.0,0.0,0.0,0.0,0.0,0.0,0.0,0.0,0.0,0.0,0.0,0.0,0.0,0.0,0.0,0.0,0.0,0.0,0.0,0.0,0.0,0.0,0.9807,1.2153,1.5534,1.6736,1.7168,1.6937,1.483,1.2672,1.0658,0.8467,0.6345,0.4361,0.0,0.0,0.0,0.0,0.0,0.0,0.0,0.0,0.0,0.0,0.0,0.0,0.0,0.0,0.0,0.0,0.0,0.0,0.0,0.0,0.0,0.0,0.0,0.0,0.0,0.0,0.0,0.0,0.0,0.0,0.0,0.0,0.0,0.0,0.0,0.0,0.0,0.0,0.0,0.0,0.0,0.0,0.0,0.0,0.0,0.0,0.0,1.9823,0.0,0.0,0.0,0.0,0.0,0.0,0.0,0.0,0.0,0.0,0.0,0.0,0.0,0.0,0.0,0.0,0.0,0.0,0.0,0.0,0.0,0.0,0.0,0.0,0.0,0.0,0.0,0.0,0.6549,0.5916,0.5282,0.0,0.0,0.0,0.0,0.0,0.0,0.0,0.0,0.0,0.0,0.0,0.0,0.0,0.0,0.0,0.0,0.0,0.0,0.0,0.0,0.0,0.0,0.0,0.9469,1.1294,1.3588,1.6275,1.7549,1.7656,1.6663,1.4468,1.2301,1.0282,0.9147,0.7537,0.5482,0.0,0.0,0.0,0.0,0.0,0.0,0.0,0.0,0.0,0.0,0.0,0.0,0.0,0.0,0.0,0.0,0.0,0.0,0.0,0.0,0.0,0.0,0.0,0.0,0.0,0.0,0.0,0.0,0.0,0.0,0.0,0.0,0.0,0.0,0.0,0.0,0.0,1.0517,0.9291,0.0,0.0,0.0,0.0,0.0,0.0,0.0,0.0,1.9406,1.7099,0.0,0.0,0.0,0.0,0.0,0.0,0.0,0.0,0.0,0.0,0.0,0.0,0.0,0.0,0.0,0.0,0.0,0.0,0.0,0.0,0.0,0.0,0.0,0.0,0.0,0.0,0.0,0.7669,0.7006,0.6436,0.0,0.0,0.0,0.0,0.0,0.0,0.0,0.0,0.0,0.0,0.0,0.0,0.0,0.0,0.0,0.0,0.0,0.0,0.0,0.0,0.0,0.0,0.0,1.031,1.2474,1.4665,1.6769,1.7635,1.7382,1.6152,1.4068,1.1893,0.9824,0.969,0.8846,0.6979,0.0,0.0,0.0,0.0,0.0,0.0,0.0,0.0,0.0,0.0,0.0,0.0,0.0,0.0,0.0,0.0,0.0,0.0,0.0,0.0,0.0,0.0,0.0,0.0,0.0,0.0,0.0,0.0,0.0,0.0,0.0,0.0,0.0,0.0,0.0,0.0,0.0,1.1246,0.975,1.4716,1.8321,0.0,0.0,0.0,0.0,0.0,0.0,0.0,1.6384,1.4651,1.5305,0.0,0.0,0.0,0.0,0.0,0.0,0.0,0.0,0.0,0.0,0.0,0.0,0.0,0.0,0.0,0.0,0.0,0.0,0.0,0.0,0.0,0.0,0.0,0.0,0.0,0.9372,0.9261,0.9375,0.0,0.0,0.0,0.0,0.0,0.0,0.0,0.0,0.0,0.0,0.0,0.0,0.0,0.0,0.0,0.0,0.0,0.0,0.0,0.0,0.0,0.0,0.0,0.0,1.3094,1.5205,1.9303,1.7884,1.6772,1.61,1.3561,1.157,1.0297,1.0205,0.9757,0.882,0.9285,0.0,0.0,0.0,0.0,0.0,0.0,0.0,0.0,0.0,0.0,0.0,0.0,0.0,0.0,0.0,0.0,0.0,0.0,0.0,0.0,0.0,0.0,0.0,0.0,0.0,0.0,0.0,0.0,0.0,0.0,0.0,0.0,0.0,0.0,0.0,0.0,1.3785,1.4828,1.6477,1.7584,1.7735,0.0,0.0,0.0,0.0,0.0,1.8559,1.6309,1.4526,1.4198,1.2731,0.0,0.0,0.0,0.0,0.0,0.0,0.0,0.0,0.0,0.0,0.0,0.0,0.0,0.0,0.0,0.0,0.0,0.0,0.0,0.0,0.0,0.0,0.0,0.0,1.074,1.0703,1.0507,0.9168,0.8209,0.0,0.0,0.0,0.0,0.6126,0.0,0.0,0.0,0.0,0.0,0.0,0.0,0.0,0.0,0.0,0.0,0.0,0.0,0.0,0.0,0.0,0.0,1.4664,1.6352,1.7556,1.7711,1.7002,1.5372,1.3442,1.2023,1.1098,1.1244,1.0961,0.9941,0.0,0.0,0.0,0.0,0.0,0.0,0.0,0.0,0.0,0.0,0.0,0.0,0.0,0.0,0.0,0.0,0.0,0.0,0.0,0.0,0.0,0.0,0.0,0.0,0.0,0.0,0.0,0.0,0.0,0.0,0.0,0.0,0.0,0.0,0.0,0.0,0.0,0.0,1.5444,1.6629,1.7347,1.7497,1.8544,1.9241,1.8784,1.9045,1.9022,1.834,1.6461,1.5101,1.4902,0.0,0.0,0.0,0.0,0.0,0.0,0.0,0.0,0.0,0.0,0.0,0.0,0.0,0.0,0.0,0.0,0.0,0.0,0.0,0.0,0.0,0.0,0.0,0.0,0.0,0.0,1.1908,1.1474,1.0391,0.957,0.8847,0.0,0.0,0.0,0.7497,0.7587,0.0,0.0,0.0,0.0,0.0,0.0,0.0,0.0,0.0,0.0,0.0,0.0,0.0,0.0,0.0,0.0,1.5702,1.6778,1.5565,1.7063,1.6791,1.4604,1.3546,1.2668,1.1833,1.2333,1.2085,1.0961,0.0,0.0,0.0,0.0,0.0,0.0,0.0,0.0,0.0,0.0,0.0,0.0,0.0,0.0,0.0,0.0,0.0,0.0,0.0,0.0,0.0,0.0,0.0,0.0,0.0,0.0,0.0,0.0,0.0,0.0,0.0,0.0,0.0,0.0,0.0,0.0,0.0,0.0,0.0,1.6573,1.7597,1.7436,1.8348,1.9083,1.8888,1.876,1.8542,1.8047,1.6567,1.5495,0.0,0.0,0.0,0.0,0.0,0.0,0.0,0.0,0.0,0.0,0.0,0.0,0.0,0.0,0.0,0.0,0.0,0.0,0.0,0.0,0.0,0.0,0.989,1.0878,0.0,0.0,1.2842,1.3074,1.3202,1.1699,1.0772,1.0213,0.8989,0.834,0.0,0.8013,0.7974,0.8184,0.0,0.0,0.0,0.0,0.0,0.0,0.0,0.0,0.0,0.0,0.0,0.0,0.0,0.0,0.0,0.0,1.4978,1.5697,1.5502,1.4916,1.4159,1.3593,1.2901,1.2398,1.307,1.3058,1.2345,0.0,0.0,0.0,0.0,0.0,0.0,0.0,0.0,0.0,0.0,0.0,0.0,0.0,0.0,0.0,0.0,0.0,0.0,0.0,0.0,0.0,0.0,0.0,0.0,0.0,1.6827,0.0,0.0,0.0,0.0,0.0,0.0,0.0,0.0,0.0,0.0,0.0,0.0,0.0,0.0,1.8567,1.7857,1.81,1.8361,1.8201,1.7643,1.733,1.7656,1.6174,1.5065,0.0,0.0,0.0,0.0,0.0,0.0,0.0,0.0,0.0,0.0,0.0,0.0,0.0,0.0,0.0,0.0,0.0,0.0,0.0,0.0,0.0,0.0,1.0394,1.1468,1.2343,1.3038,1.3445,1.3589,1.3436,1.2408,1.1491,1.064,0.9812,0.9497,0.9557,0.9317,0.9336,0.947,0.0,0.0,0.0,0.0,0.0,0.0,0.0,0.0,0.0,0.0,0.0,0.0,1.1663,1.2286,1.2795,1.4946,1.5705,1.5087,1.5832,1.5817,1.485,1.4393,1.4136,1.4145,1.4488,1.4402,0.0,0.0,0.0,0.0,0.0,0.0,0.0,0.0,0.0,0.0,0.0,0.0,0.0,0.0,0.0,0.0,0.0,0.0,0.0,0.0,0.0,0.0,0.0,0.0,0.0,1.5572,1.6082,1.6875,0.0,0.0,0.0,0.0,0.0,0.0,0.0,0.0,0.0,0.0,0.0,0.0,0.0,1.8851,1.7822,1.7952,1.8171,1.8002,1.7216,1.6683,1.6612,1.5633,1.477,0.0,0.0,0.0,0.0,0.0,0.0,0.0,0.0,0.0,0.0,0.0,0.0,0.0,0.0,0.0,0.0,0.0,0.0,0.851,0.9175,1.0328,1.09,1.1052,1.2042,1.3023,1.38,1.3954,1.3981,1.3877,1.3256,1.2299,1.1218,1.0754,1.0615,1.0681,1.0347,1.0277,1.0445,0.9781,0.0,0.0,0.0,0.0,0.0,0.0,0.0,0.0,0.0,0.0,1.1848,1.2462,1.2706,1.263,1.548,1.6124,1.447,1.6154,1.6406,1.5114,1.499,1.5115,1.5493,1.5742,1.5639,0.0,0.0,0.0,0.0,0.0,0.0,0.0,0.0,0.0,0.0,0.0,0.0,0.0,0.0,0.0,0.0,0.0,0.0,0.0,0.0,0.0,0.0,0.0,1.547,1.6215,1.5682,1.5825,1.7273,1.6717,0.0,1.7042,0.0,0.0,0.0,0.0,0.0,0.0,0.0,0.0,0.0,0.0,1.8714,1.7644,1.7626,1.7585,1.7371,1.6401,1.5602,1.5389,1.4676,1.3986,0.0,0.0,0.0,0.0,0.0,0.0,0.0,0.0,0.0,0.0,0.0,0.0,0.0,0.0,0.0,0.0,0.0,0.0,0.8896,0.9915,1.0943,1.1715,1.2332,1.3021,1.414,1.5297,1.4517,1.4572,1.5231,1.4555,1.3529,1.2263,1.1901,1.1517,1.1108,1.0645,1.0376,1.0302,1.1001,0.0,0.0,0.0,0.0,0.0,0.0,0.0,0.0,0.0,0.0,1.3773,1.301,1.3216,1.4592,1.5311,1.5139,1.4223,1.5639,1.5733,1.4374,1.4942,1.5505,1.5724,1.6518,1.6762,0.0,0.0,0.0,0.0,0.0,0.0,0.0,0.0,0.0,0.0,0.0,0.0,0.0,0.0,0.0,0.0,0.0,0.0,0.0,0.0,0.0,0.0,0.0,0.0,1.8901,1.7436,1.6666,1.7911,1.6903,1.6397,1.6974,0.0,0.0,0.0,0.0,0.0,0.0,0.0,0.0,0.0,0.0,1.8209,1.7508,1.6854,1.6347,1.5952,1.4387,1.3538,1.4297,1.3097,1.2314,1.3054,1.2896,1.3512,0.0,0.0,0.0,0.0,0.0,0.0,0.0,0.0,0.0,0.0,0.0,0.0,0.0,0.0,0.0,0.9571,1.037,1.164,1.2457,1.3128,1.417,1.5016,1.564,1.5448,1.5475,1.5605,1.4776,1.3962,1.3176,1.2748,1.247,1.2272,1.2246,1.1935,1.1419,1.2248,0.0,0.0,0.0,0.0,0.0,0.0,0.0,0.0,0.0,0.0,1.4082,1.3397,1.3186,1.3623,1.5788,1.6094,1.441,1.6457,1.6898,1.5806,1.6034,1.6525,1.741,1.7922,1.8145,1.8124,0.0,0.0,0.0,0.0,0.0,0.0,0.0,0.0,0.0,0.0,0.0,0.0,0.0,0.0,0.0,0.0,0.0,0.0,0.0,0.0,0.0,0.0,0.0,0.0,1.9794,1.9318,1.9149,1.8346,1.7849,1.7865,1.7938,0.0,0.0,0.0,0.0,0.0,0.0,0.0,1.8139,0.0,1.7639,1.7082,1.6398,1.5646,1.5076,1.4261,1.3558,1.3015,1.2951,1.2734,1.2248,1.2431,1.333,1.5505,0.0,0.0,0.0,0.0,0.0,0.0,0.0,0.0,0.0,0.0,0.0,0.0,0.0,0.0,1.0199,1.081,1.2076,1.2963,1.3615,1.4837,1.571,1.6228,1.6149,1.6098,1.605,1.5114,1.4272,1.3553,1.334,1.3204,1.3086,1.3298,1.329,1.3167,1.4116,1.4595,0.0,0.0,0.0,0.0,0.0,0.0,0.0,0.0,0.0,1.4317,1.3713,1.3328,1.3335,1.5894,1.6492,1.4892,1.691,1.7583,1.6803,1.7055,1.7601,1.8766,1.9405,1.9844,2.0189,0.0,0.0,0.0,0.0,1.6532,0.0,0.0,0.0,0.0,0.0,0.0,0.0,0.0,0.0,0.0,0.0,0.0,0.0,0.0,0.0,0.0,0.0,0.0,0.0,0.0,2.1054,1.9788,1.8897,1.8348,1.8322,1.8291,1.8511,1.9183,0.0,0.0,0.0,0.0,0.0,0.0,1.7186,1.6845,1.6156,1.5399,1.4855,1.4477,1.4023,1.337,1.2758,1.3162,1.3313,1.2056,1.2194,1.3404,1.6038,1.841,1.8913,1.5842,1.6258,1.6994,1.6761,0.0,0.0,0.0,0.0,0.0,0.0,0.0,0.0,1.0695,1.1211,1.2283,1.3156,1.3938,1.4966,1.6272,1.7509,1.6649,1.659,1.6821,1.5882,1.4658,1.3356,1.3686,1.3629,1.3254,1.3377,1.4073,1.5181,1.6807,1.7417,1.7188,1.8295,1.849,1.7945,1.6472,1.5674,1.553,1.5362,1.5235,1.4813,1.4011,1.3905,1.4401,1.5491,1.5816,1.5655,1.6959,1.7456,1.7159,1.7715,1.8571,1.971,2.1068,2.2097,2.2804,0.0,0.0,0.0,0.0,1.656,0.0,0.0,0.0,0.0,0.0,0.0,0.0,0.0,0.0,0.0,0.0,0.0,0.0,0.0,0.0,0.0,0.0,0.0,0.0,0.0,2.1304,1.9663,1.8092,1.7491,1.8133,1.7971,1.8387,0.0,0.0,0.0,0.0,0.0,1.9138,1.7268,1.6379,1.5681,1.4744,1.4023,1.3861,1.4407,1.3393,1.2904,1.3681,1.3997,1.3746,1.2819,1.2469,0.0,0.0,0.0,0.0,0.0,0.0,0.0,0.0,0.0,0.0,0.0,0.0,0.0,0.0,0.0,0.0,1.2887,1.3351,1.4076,1.5193,1.6534,1.7285,1.8459,1.9826,1.9748,1.9467,1.8981,1.7763,1.6372,1.4937,1.4497,1.4555,1.5049,1.5891,1.6947,1.8229,1.953,2.0154,2.0172,2.1945,2.218,2.118,2.0423,1.9388,1.8125,1.7409,1.7044,1.6898,1.5756,1.5237,1.5447,1.7121,1.7471,1.6472,1.8266,1.8947,1.8096,1.8685,1.957,2.0996,2.2266,2.3459,2.4486,2.4304,0.0,0.0,2.0783,1.9639,0.0,0.0,0.0,0.0,0.0,0.0,0.0,0.0,0.0,0.0,0.0,0.0,0.0,0.0,0.0,0.0,0.0,0.0,0.0,0.0,2.137,1.9482,1.8411,1.7946,1.8241,1.8439,1.8846,1.9674,1.979,2.0087,2.1009,2.024,1.8751,1.622,1.5338,1.4882,1.4873,1.4923,1.4844,1.4871,1.5059,1.5184,1.4891,1.5164,1.5582,1.6019,1.6062,1.7125,2.0374,1.939,1.8969,2.1661,2.3515,2.3604,2.0422,1.9709,1.9603,1.9672,1.9794,2.0051,2.0684,1.9746,1.8921,1.4902,1.5336,1.588,1.7067,1.8605,1.907,2.0073,2.1327,2.1555,2.1394,2.089,1.9561,1.8216,1.6998,1.6477,1.6692,1.7484,1.8882,1.9989,2.0928,2.2478,2.3145,2.3161,2.4887,2.5172,2.4093,2.4424,2.3739,2.1963,1.9697,1.8462,1.8317,1.7246,1.6745,1.6828,1.8352,1.8682,1.7918,1.9237,1.9808,1.93,1.979,2.0725,2.2403,2.4228,2.5674,2.6691,2.6856,2.6286,0.0,2.3565,0.0,0.0,0.0,0.0,0.0,0.0,0.0,0.0,0.0,0.0,0.0,0.0,0.0,0.0,0.0,0.0,0.0,0.0,0.0,0.0,2.044,2.058,1.9107,1.8279,1.7884,1.7826,1.779,1.8071,1.8968,1.8948,1.9692,2.1824,2.0983,1.8751,1.4981,1.4644,1.4739,1.4795,1.5413,1.5805,1.6086,1.68,1.722,1.708,1.7502,1.7936,1.8116,1.8906,2.0216,2.2571,2.1671,2.1336,2.3282,2.4854,2.4927,2.2139,2.1611,2.1596,2.1668,2.191,2.2285,2.2934,2.2644,2.2322,1.6855,1.7123,1.7808,1.8709,1.9803,2.0476,2.1198,2.2014,2.2085,2.2326,2.2459,2.1183,2.0118,1.9423,1.9413,1.9751,2.0518,2.2162,2.2992,2.3339,2.5401,2.6248,2.5973,2.7149,2.7434,2.6873,2.8076,2.8019,2.6712,2.2352,1.9662,1.9064,1.8584,1.8392,1.8555,1.9153,1.9484,1.9789,1.98,2.013,2.0676,2.1003,2.2085,2.395,2.6832,2.8538,2.9215,2.9126,2.8202,2.6126,2.5273,0.0,0.0,0.0,0.0,0.0,0.0,0.0,0.0,0.0,0.0,0.0,0.0,0.0,0.0,0.0,0.0,0.0,0.0,0.0,1.9581,1.949,1.8913,1.8099,1.7513,1.7042,1.6717,1.5861,1.591,1.7569,1.7217,1.8148,2.1795,2.1845,1.9287,1.3517,1.4375,1.5278,1.4438,1.5292,1.6553,1.803,1.8252,1.8656,2.0132,2.0757,2.0678,1.904,2.0651,2.2699,2.4452,2.5094,2.4711,2.3317,2.3719,2.4554,2.5128,2.4655,2.4425,2.4603,2.426,2.4189,2.4687,2.5058,2.5513,2.0566,1.997,2.076,2.1766,2.2963,2.3894,2.4478,2.4814,2.5708,2.53,2.4001,2.3411,2.2327,2.1008,2.084,2.1518,2.2958,2.425,2.5142,2.5711,2.6824,2.7525,2.7898,2.9206,2.9818,2.9852,2.9891,2.9866,2.9783,2.7573,2.4938,2.1969,2.1254,2.0692,2.0331,2.1131,2.1483,2.1258,2.1684,2.1598,2.1071,2.1802,2.344,2.5954,2.8058,2.9516,3.0034,3.1177,3.0803,2.8542,2.7973,0.0,2.2847,0.0,0.0,0.0,0.0,1.8043,1.8843,1.7334,0.0,0.0,0.0,1.6696,0.0,0.0,0.0,0.0,1.8153,1.7791,1.8042,1.793,1.6731,1.4005,1.4765,1.4777,1.3167,1.3577,1.3996,1.4107,1.4989,1.6251,1.7915,2.0527,2.0091,1.4153,1.3478,1.3891,1.4379,1.5643,1.6969,1.8079,1.9169,2.0198,2.1107,2.0653,2.0714,2.1989,2.3123,2.3916,2.4161,2.4647,2.4689,2.3913,2.3167,2.3085,2.4052,2.4164,2.4217,2.4446,2.4694,2.4913,2.5308,2.5847,2.6279,2.3444,2.3248,2.3608,2.4453,2.5408,2.6209,2.6598,2.6911,2.7414,2.7107,2.6095,2.5723,2.4881,2.3871,2.3568,2.4253,2.5652,2.6447,2.7408,2.8368,2.8641,2.9153,2.9939,3.0677,3.1348,3.1825,3.1454,3.1466,3.1947,3.0922,2.8886,2.5882,2.4924,2.4041,2.3232,2.3563,2.3503,2.3037,2.2782,2.2468,2.1918,2.3177,2.4964,2.7394,2.9042,3.0283,3.1072,3.2367,3.2351,3.0712,3.0186,2.8343,0.0,2.2608,2.0686,1.8796,1.7694,1.7509,1.8211,1.7013,0.0,0.0,1.6212,1.6068,1.6619,0.0,0.0,1.8649,1.7469,1.4405,0.9237,1.0729,1.1187,0.9101,1.0472,1.1167,1.0105,1.0095,1.0174,0.9954,1.0471,1.1463,1.2767,1.4459,1.476,1.2368,1.1688,1.2086,1.3416,1.4946,1.6325,1.7453,1.8741,1.994,2.0955,2.0899,2.1455,2.384,2.3828,2.3563,2.321,2.3848,2.407,2.2931,2.1821,2.1451,2.2216,2.2625,2.3114,2.3852,2.4314,2.4783,2.4875,2.5385,2.5971,2.5418,2.6389,2.6115,2.6519,2.7252,2.7453,2.7769,2.8199,2.7891,2.7956,2.833,2.7943,2.7645,2.7497,2.7174,2.7522,2.8444,2.869,2.9574,3.0863,3.0626,3.0937,3.1828,3.1746,3.2298,3.3317,3.2897,3.3006,3.3425,3.2869,3.1782,3.0228,2.9165,2.7972,2.6743,2.6055,2.5448,2.4844,2.3629,2.3082,2.3217,2.4912,2.6583,2.821,2.9579,3.093,3.1961,3.2747,3.2871,3.2376,3.193,2.9885,2.6052,2.4388,2.2142,1.895,1.7539,1.7093,1.7738,1.695,1.6284,1.5896,1.6133,1.6132,1.5762,1.6834,1.77,1.81,1.5918,0.9647,-0.2149,0.1123,0.4034,0.425,0.5655,0.6693,0.7262,0.5731,0.5016,0.5579,0.4805,0.4991,0.6865,0.5654,0.5624,0.8526,0.9086,0.9783,1.1563,1.2997,1.4587,1.6075,1.7256,1.8523,1.9597,2.0687,2.1991,2.3896,2.325,2.1883,2.1495,2.266,2.2716,2.0785,1.9948,1.9712,1.9939,2.0737,2.152,2.2651,2.3454,2.391,2.3715,2.4154,2.4766,2.5575,2.6787,2.7048,2.761,2.8248,2.8959,2.8716,2.8066,2.9063,2.8998,2.8338,2.8755,2.9002,2.9098,2.9406,2.97,3.0139,3.0319,3.0813,3.1329,3.1401,3.1816,3.2733,3.2539,3.3189,3.4665,3.3982,3.3953,3.4647,3.4311,3.366,3.2643,3.2163,3.0378,2.7344,2.7372,2.6929,2.5594,2.5173,2.4738,2.4563,2.5661,2.6661,2.7382,2.9016,2.9912,2.9968,3.154,3.1924,3.1097,3.1172,3.0286,2.8201,2.5257,2.2877,2.1407,1.8959,1.7662,1.798,1.7757,1.724,1.6421,1.7022,1.6991,1.5919,1.6085,1.6147,1.5836,1.3955,1.0907,0.6596,0.3865,0.2222,0.1828,0.3075,0.3331,0.1324,0.1515,0.1839,0.1736,0.1835,0.1889,0.1699,0.1447,0.1478,0.2244,0.4557,0.6799,0.8365,1.0081,1.1536,1.2714,1.4278,1.5766,1.6779,1.8185,1.9571,2.1442,2.0804,1.9622,1.8197,2.0355,2.1467,1.9301,1.7866,1.7633,1.8673,1.9376,1.971,2.031,2.1505,2.2696,2.2715,2.2734,2.32,2.6181,2.7194,2.77,2.8162,2.8861,2.9391,2.9232,2.8691,2.9659,2.9725,2.9166,2.9986,3.0483,3.0739,3.127,3.1491,3.1532,3.1761,3.2152,3.2883,3.2745,3.3132,3.4126,3.3538,3.4038,3.5447,3.4638,3.467,3.5189,3.4982,3.4334,3.3515,3.3372,3.1927,2.9574,2.9466,2.8645,2.7314,2.6399,2.5846,2.577,2.6127,2.6709,2.7416,2.868,2.9258,2.9248,3.0559,3.1035,3.0477,3.0458,2.9899,2.8774,2.6362,2.4517,2.3454,2.1146,1.9936,2.0193,1.9703,1.8705,1.714,1.7271,1.6859,1.5612,1.4435,1.1933,0.7631,0.7452,0.631,0.3029,0.0237,-0.1643,-0.1955,-0.1326,-0.1238,-0.1911,-0.1642,-0.1361,-0.1229,-0.0788,-0.064,-0.1117,-0.1132,-0.0813,-0.016,0.1582,0.3597,0.5729,0.6997,0.815,0.9445,1.0678,1.2505,1.4445,1.5334,1.5999,1.6892,1.7144,1.6712,1.5252,1.7428,1.8845,1.6845,1.5858,1.5776,1.7127,1.8026,1.8567,1.8834,1.9685,2.0585,2.1123,2.1578,2.2118,2.6661,2.7616,2.7902,2.8412,2.9044,2.9332,2.9466,2.9463,2.9809,3.0106,3.0295,3.1162,3.1684,3.1984,3.2307,3.2475,3.2568,3.2754,3.3379,3.4596,3.4258,3.4573,3.5438,3.4646,3.4832,3.5799,3.521,3.5161,3.5596,3.5205,3.462,3.3791,3.3507,3.2921,3.2197,3.1621,3.0641,2.9252,2.7661,2.6864,2.6864,2.6805,2.7068,2.7883,2.8487,2.8827,2.8967,2.9683,2.9989,2.9963,2.9751,2.9301,2.8591,2.7452,2.631,2.5241,2.3392,2.2435,2.2604,2.1334,1.9604,1.7268,1.6356,1.5423,1.4337,1.1583,0.6458,-0.1837,-0.0369,-0.0487,-0.4324,-0.5134,-0.5547,-0.5716,-0.6046,-0.5523,-0.3807,-0.4185,-0.4257,-0.3344,-0.2845,-0.2693,-0.2416,-0.2545,-0.1886,0.0,0.0,0.1098,0.3286,0.419,0.4946,0.6247,0.6965,0.8794,1.1547,1.2017,1.1702,1.2096,1.2979,1.3281,1.2232,1.4279,1.5676,1.4316,1.4027,1.4424,1.5386,1.649,1.7315,1.7551,1.7913,1.8582,1.9534,2.0281,2.0819,2.6706,2.7694,2.7378,2.7855,2.8893,2.9101,2.9101,2.9053,2.924,2.9928,3.0968,3.1268,3.127,3.1052,3.1398,3.1653,3.2086,3.2758,3.3585,3.4701,3.5191,3.5611,3.5935,3.5987,3.608,3.6347,3.6003,3.6092,3.6405,3.5468,3.4825,3.436,3.3675,3.332,3.3333,3.3215,3.2241,3.0039,2.8781,2.8359,2.8549,2.7795,2.7605,2.8096,2.7965,2.7734,2.754,2.8641,2.8834,2.7997,2.9059,2.9505,2.9224,2.791,2.6818,2.6104,2.392,2.2259,2.159,1.9252,1.6889,1.4834,1.2103,1.0426,1.0165,0.5826,0.1408,-0.2186,-0.3154,-0.2436,0.0119,-0.3348,-0.6187,-0.6919,-0.6638,-0.6028,-0.5758,-0.5633,-0.5027,-0.3778,-0.3617,-0.3145,-0.2054,-0.2206,-0.1886,0.0,0.0,0.0,0.0785,0.1879,0.2661,0.329,0.4374,0.5658,0.7541,0.7652,0.8008,0.8671,0.9361,0.9882,0.9924,1.1666,1.313,1.2257,1.2484,1.3079,1.3987,1.4817,1.5536,1.5931,1.6496,1.725,1.8369,1.8672,1.8834,2.6858,2.7668,2.7322,2.7644,2.8493,2.8401,2.872,2.9119,2.9646,3.0332,3.1213,3.1283,3.1247,3.1102,3.1485,3.1746,3.2227,3.303,3.4085,3.5264,3.5611,3.6289,3.7019,3.6724,3.6781,3.6981,3.6622,3.6476,3.6589,3.5799,3.5325,3.5212,3.4412,3.4036,3.4163,3.4125,3.3263,3.1475,3.0466,3.0027,2.9971,2.888,2.8466,2.8897,2.8263,2.7922,2.7846,2.8331,2.8456,2.8026,2.8675,2.9174,2.9471,2.8534,2.7717,2.7062,2.4384,2.1891,1.9848,1.6358,1.3126,1.0355,0.5817,0.3674,0.473,0.1272,-0.1788,-0.3587,-0.525,-0.5234,-0.299,-0.5178,-0.7045,-0.748,-0.6866,-0.6548,-0.6268,-0.5805,-0.5022,-0.4081,-0.3768,-0.3297,-0.22,-0.157,-0.0942,0.0,0.0,0.0157,0.0314,0.0628,0.1099,0.157,0.2209,0.3011,0.351,0.4201,0.4737,0.533,0.6423,0.6952,0.7031,0.9085,1.0762,1.028,1.044,1.1035,1.2368,1.3207,1.3633,1.43,1.4712,1.5251,1.6057,1.695,1.7683,2.7197,2.7769,2.7507,2.7818,2.8391,2.8129,2.8689,2.9602,3.0392,3.0917,3.1339,3.123,3.1286,3.1486,3.1833,3.2148,3.2617,3.3482,3.4527,3.583,3.6042,3.6677,3.7817,3.7337,3.7068,3.724,3.6964,3.6849,3.6876,3.6208,3.5932,3.586,3.5107,3.4776,3.4879,3.4614,3.4117,3.3263,3.2273,3.1721,3.1543,3.0048,2.9579,3.004,2.9076,2.8626,2.8791,2.8875,2.8839,2.8774,2.8776,2.8917,2.9158,2.8486,2.7506,2.6262,2.3307,2.0166,1.6765,1.2615,0.8548,0.4662,-0.0626,-0.2734,-0.0748,-0.2614,-0.4218,-0.5144,-0.6725,-0.7566,-0.7135,-0.7391,-0.7716,-0.7341,-0.7056,-0.6587,-0.6275,-0.5492,-0.4552,-0.3925,-0.3768,-0.3297,-0.2357,-0.0942,0.0,0.0,0.0,0.0157,0.0628,0.0471,0.0471,0.0943,0.1265,0.1112,0.0953,0.1615,0.2318,0.2348,0.3828,0.4739,0.5104,0.6702,0.815,0.8476,0.8462,0.9356,1.0656,1.139,1.196,1.2599,1.302,1.3319,1.3469,1.496,1.6324,2.7846,2.824,2.8374,2.8705,2.9137,2.941,2.997,3.0833,3.1247,3.1363,3.1417,3.1166,3.1184,3.1488,3.1559,3.2025,3.2757,3.376,3.4816,3.6014,3.6649,3.7136,3.7618,3.7691,3.7551,3.7164,3.7219,3.722,3.692,3.6268,3.5932,3.5881,3.5346,3.5185,3.5293,3.5273,3.5149,3.5047,3.3336,3.2895,3.3571,3.1511,3.0642,3.1119,3.0239,2.9593,2.9258,3.0444,3.0416,2.9021,2.9818,2.9678,2.8024,2.5893,2.366,2.1051,1.7749,1.4196,1.0498,0.6839,0.2594,-0.2278,-0.4996,-0.5873,-0.4809,-0.6005,-0.6827,-0.6781,-0.7399,-0.757,-0.714,-0.7101,-0.7113,-0.6544,-0.6427,-0.6275,-0.5799,-0.5019,-0.4236,-0.3766,-0.3611,-0.2983,-0.2042,-0.0785,0.0,0.0,0.0,0.0157,0.0628,0.0942,0.1099,0.1099,0.0944,0.0633,0.0319,0.0647,0.0987,0.0504,0.2,0.3283,0.3691,0.4765,0.5997,0.69,0.7365,0.7985,0.8896,0.9682,1.0435,1.0863,1.1318,1.1792,1.2093,1.286,1.387,2.8125,2.8253,2.8406,2.864,2.9094,2.9843,3.0479,3.0772,3.1788,3.1903,3.1549,3.1531,3.1531,3.1566,3.2015,3.2348,3.2802,3.4097,3.5122,3.5976,3.6809,3.7514,3.8103,3.8245,3.8187,3.8102,3.7892,3.768,3.7561,3.6959,3.6719,3.6719,3.6359,3.5844,3.5397,3.5788,3.5911,3.5911,3.4407,3.4051,3.4719,3.2955,3.2289,3.2891,3.2066,3.1352,3.1067,3.1347,3.0745,2.9249,2.8512,2.7185,2.4892,2.1876,1.8861,1.5725,1.1837,0.8099,0.4429,0.0258,-0.3257,-0.6114,-0.6896,-0.7048,-0.6717,-0.7326,-0.781,-0.7566,-0.7425,-0.6986,-0.5974,-0.6241,-0.651,-0.6295,-0.5999,-0.5692,-0.5237,-0.4492,-0.3886,-0.3424,-0.2816,-0.2356,-0.22,-0.0942,0.0,0.0,0.0157,0.0628,0.1256,0.1728,0.1728,0.1099,0.0785,0.0474,0.016,0.0162,0.0327,0.0498,0.1327,0.2299,0.3388,0.3967,0.4402,0.6115,0.6744,0.7056,0.7681,0.8306,0.8774,0.9236,0.9864,1.033,1.0796,1.1727,1.3077,2.8483,2.8622,2.8718,2.8938,2.947,3.0433,3.0831,3.1128,3.2316,3.2485,3.2105,3.234,3.234,3.2105,3.2665,3.2929,3.3102,3.4359,3.5371,3.6113,3.6849,3.7657,3.8653,3.8498,3.8614,3.8852,3.8395,3.8211,3.8095,3.7724,3.7362,3.7011,3.656,3.5928,3.5046,3.5437,3.5683,3.5725,3.4627,3.4505,3.5518,3.4163,3.3599,3.406,3.3212,3.2578,3.214,3.1113,2.9809,2.8179,2.5806,2.3229,2.0426,1.6826,1.3315,0.9973,0.6023,0.2302,-0.1075,-0.4902,-0.7343,-0.7851,-0.7566,-0.7276,-0.7276,-0.7425,-0.772,-0.757,-0.699,-0.6119,-0.511,-0.5336,-0.5852,-0.5703,-0.5585,-0.5304,-0.485,-0.4132,-0.3546,-0.2935,-0.2184,-0.1886,-0.1886,-0.1099,0.0,0.0,0.0785,0.1256,0.1886,0.22,0.2043,0.1258,0.0787,0.0634,0.032,0.0162,0.0328,0.0825,0.1158,0.2135,0.3236,0.3191,0.3632,0.5507,0.6118,0.6587,0.7213,0.7213,0.7525,0.7989,0.8618,0.9085,0.9708,1.0796,1.234,2.9428,2.9757,3.0036,3.0684,3.1363,3.1701,3.2148,3.2541,3.2984,3.3381,3.3513,3.3568,3.3688,3.3568,3.3725,3.3725,3.3743,3.4471,3.5505,3.6602,3.6989,3.7705,3.8688,3.8449,3.8277,3.8571,3.8509,3.8229,3.8059,3.7885,3.7277,3.6034,3.5004,3.4247,3.3948,3.3381,3.3381,3.4007,3.2907,3.3653,3.6099,3.4825,3.4039,3.3925,3.2994,3.2025,3.065,2.8998,2.6817,2.4312,2.1278,1.8002,1.4081,1.0249,0.685,0.3757,0.0673,-0.2374,-0.5457,-0.6809,-0.7412,-0.7131,-0.6696,-0.6406,-0.6116,-0.6264,-0.641,-0.641,-0.6119,-0.568,-0.481,-0.4827,-0.4839,-0.485,-0.5224,-0.5144,-0.4389,-0.398,-0.3392,-0.2623,-0.2182,-0.1728,-0.157,-0.1099,-0.0471,0.0942,0.1413,0.1728,0.1886,0.22,0.2357,0.1889,0.1426,0.1282,0.0973,0.0492,0.0331,0.0669,0.1331,0.2139,0.2926,0.3559,0.419,0.5195,0.5805,0.6431,0.6587,0.6587,0.6744,0.7369,0.7681,0.7998,0.8778,0.9713,1.0946,3.0201,3.0524,3.0475,3.1069,3.1963,3.2268,3.2715,3.3109,3.3957,3.4316,3.4527,3.5168,3.5149,3.4508,3.4508,3.449,3.4508,3.5196,3.5821,3.6387,3.7024,3.7738,3.8419,3.8541,3.8576,3.8869,3.8359,3.7891,3.7423,3.5894,3.4104,3.2578,3.1407,3.0374,2.9357,2.8991,2.8802,2.8387,2.7882,2.8049,2.8959,3.082,3.1513,3.0908,2.9977,2.843,2.6305,2.4314,2.1808,1.8679,1.5263,1.1864,0.8289,0.4508,0.1442,-0.0962,-0.3104,-0.5173,-0.6692,-0.6841,-0.6841,-0.6696,-0.6116,-0.5538,-0.5392,-0.5392,-0.5247,-0.5392,-0.5974,-0.5974,-0.481,-0.4228,-0.3937,-0.4087,-0.4123,-0.4147,-0.3555,-0.3317,-0.2899,-0.2139,-0.1708,-0.1413,-0.1256,-0.0785,0.0157,0.157,0.2043,0.22,0.22,0.2357,0.2357,0.2203,0.1905,0.1445,0.0975,0.0658,0.0663,0.0998,0.1827,0.2469,0.3239,0.3566,0.4197,0.5198,0.5808,0.6118,0.5965,0.6118,0.6118,0.6744,0.7529,0.7998,0.8471,0.8934,0.9553,3.1093,3.1359,3.137,3.1837,3.2567,3.3121,3.3588,3.4019,3.4765,3.5172,3.5525,3.6247,3.6288,3.5508,3.5196,3.5059,3.5059,3.5606,3.5957,3.6289,3.7004,3.7604,3.8233,3.812,3.8345,3.857,3.7535,3.6377,3.5051,3.2232,2.9852,2.8203,2.6809,2.5336,2.3911,2.3728,2.3306,2.2606,2.2111,2.1674,2.1621,2.3873,2.5649,2.6268,2.5343,2.3486,2.095,1.8539,1.5738,1.2616,0.9103,0.5718,0.2583,-0.0401,-0.2765,-0.4142,-0.5358,-0.6261,-0.641,-0.6261,-0.6116,-0.597,-0.5392,-0.5104,-0.4959,-0.481,-0.4665,-0.481,-0.568,-0.5683,-0.4519,-0.3791,-0.3502,-0.3354,-0.35,-0.3354,-0.2922,-0.2834,-0.2575,-0.1821,-0.1394,-0.0942,-0.0628,0.0157,0.1256,0.22,0.2514,0.2514,0.2514,0.2514,0.2514,0.2672,0.2222,0.1764,0.1133,0.0981,0.0988,0.1484,0.214,0.2929,0.3687,0.4029,0.4344,0.5344,0.5808,0.5962,0.5808,0.5808,0.5805,0.6275,0.7213,0.7998,0.7998,0.831,0.8622,3.1895,3.2672,3.3474,3.3534,3.3273,3.4337,3.5102,3.5467,3.5569,3.5887,3.6502,3.666,3.6818,3.6849,3.6035,3.5333,3.5059,3.547,3.5937,3.6602,3.6561,3.7228,3.8246,3.7208,3.6989,3.7032,3.5432,3.2933,2.9934,2.7194,2.4951,2.2699,2.0944,1.9469,1.8391,1.7631,1.7327,1.6887,1.6018,1.5384,1.4943,1.3771,1.5536,1.9299,1.8951,1.7066,1.4881,1.1571,0.8765,0.6519,0.3134,0.0,-0.2494,-0.4092,-0.5018,-0.5518,-0.5392,-0.5253,-0.5253,-0.5253,-0.5253,-0.525,-0.4959,-0.4665,-0.4665,-0.4665,-0.4519,-0.4665,-0.481,-0.4665,-0.3791,-0.35,-0.3354,-0.3063,-0.3354,-0.3209,-0.2917,-0.2536,-0.2116,-0.1367,-0.0774,-0.0314,0.0628,0.1728,0.22,0.2514,0.2514,0.2514,0.2514,0.2514,0.2671,0.2833,0.2536,0.1919,0.1762,0.1459,0.1472,0.1799,0.2435,0.3367,0.3993,0.4614,0.5052,0.5341,0.5338,0.5335,0.5495,0.5651,0.5648,0.6118,0.69,0.7525,0.7558,0.8002,0.815,3.2715,3.3454,3.3986,3.4368,3.4555,3.512,3.5614,3.6051,3.677,3.7319,3.7669,3.7749,3.7924,3.8159,3.7064,3.6268,3.5976,3.6112,3.623,3.6348,3.6463,3.6405,3.6073,3.5097,3.3983,3.2681,3.077,2.752,2.3202,2.0588,1.8483,1.6489,1.4683,1.3224,1.2158,1.1083,1.0322,0.9736,0.8851,0.8103,0.7482,0.6246,0.6429,0.7576,0.9965,1.0143,0.8165,0.5672,0.3318,0.134,-0.0824,-0.2801,-0.4254,-0.5213,-0.57,-0.5693,-0.533,-0.4912,-0.4878,-0.5017,-0.4869,-0.4867,-0.4538,-0.4371,-0.4226,-0.408,-0.3937,-0.4228,-0.4519,-0.4374,-0.3791,-0.3209,-0.2625,-0.2625,-0.248,-0.2334,-0.2197,-0.1788,-0.1363,-0.0912,-0.0155,0.0471,0.1099,0.1886,0.2514,0.2514,0.2514,0.2671,0.2826,0.2826,0.2983,0.3297,0.2993,0.2687,0.2687,0.2091,0.179,0.2105,0.2572,0.3507,0.4121,0.4584,0.5184,0.5181,0.5022,0.5022,0.5335,0.5495,0.5492,0.6115,0.69,0.7079,0.7133,0.7731,0.7702,3.3569,3.412,3.4622,3.5007,3.5358,3.576,3.6402,3.6986,3.7981,3.8604,3.8948,3.9167,3.9137,3.8989,3.8098,3.7334,3.6674,3.6519,3.6268,3.5879,3.5568,3.4746,3.3381,3.1511,2.9547,2.7161,2.4161,2.039,1.6339,1.4206,1.2418,1.053,0.9109,0.7865,0.6727,0.57,0.4869,0.41,0.3195,0.2436,0.182,0.0902,0.015,-0.0148,0.2277,0.3322,0.2348,0.0833,-0.0696,-0.2094,-0.3268,-0.4315,-0.5333,-0.5869,-0.6054,-0.5706,-0.5351,-0.4948,-0.476,-0.4736,-0.4585,-0.4601,-0.4114,-0.3935,-0.3937,-0.3661,-0.3663,-0.3944,-0.4083,-0.4083,-0.3646,-0.2625,-0.2041,-0.2042,-0.1902,-0.176,-0.1616,-0.1201,-0.0762,-0.0307,0.0156,0.0784,0.1413,0.2043,0.2514,0.2828,0.2828,0.2985,0.3297,0.3297,0.3454,0.3768,0.3454,0.3144,0.3145,0.2547,0.2244,0.2395,0.2713,0.3482,0.4257,0.4714,0.5022,0.5022,0.5022,0.5022,0.5022,0.5179,0.5648,0.6115,0.6434,0.6766,0.6956,0.7295,0.7433,3.4496,3.4676,3.5294,3.5685,3.5907,3.6626,3.7511,3.837,3.8932,3.9698,4.034,4.0578,4.0171,3.9521,3.8865,3.8139,3.7119,3.6324,3.5763,3.51,3.3707,3.1947,3.0046,2.5912,2.2936,2.0843,1.6165,1.2409,0.9809,0.8411,0.6913,0.5477,0.4779,0.3887,0.2378,0.2301,0.1557,0.0619,-0.0467,-0.109,-0.139,-0.2153,-0.2751,-0.3029,-0.3125,-0.2776,-0.2148,-0.289,-0.3319,-0.3868,-0.4338,-0.495,-0.5683,-0.6194,-0.6352,-0.5863,-0.5465,-0.5203,-0.4755,-0.4415,-0.4265,-0.4142,-0.3818,-0.3502,-0.3514,-0.3393,-0.3401,-0.3673,-0.3516,-0.3508,-0.3212,-0.2188,-0.1459,-0.1752,-0.1766,-0.1483,-0.1192,-0.0759,-0.031,0.0312,0.0471,0.0628,0.1413,0.22,0.2671,0.3297,0.3611,0.3768,0.3768,0.3768,0.3927,0.4084,0.3925,0.3611,0.3297,0.3144,0.2831,0.2675,0.2993,0.3615,0.4245,0.4709,0.5022,0.5022,0.5022,0.5022,0.5022,0.5179,0.5492,0.5962,0.6285,0.6612,0.6968,0.7318,0.7326,3.5103,3.5739,3.6146,3.6442,3.6644,3.7639,3.8409,3.9136,4.0126,4.1184,4.1678,4.1262,4.1087,4.0565,3.9227,3.7759,3.6499,3.4659,3.3403,3.26,3.031,2.7214,2.3747,1.9615,1.5244,1.1189,0.8101,0.6206,0.4916,0.3933,0.3152,0.2408,0.1962,0.1359,0.0754,-0.0155,-0.094,-0.1564,-0.282,-0.329,-0.3122,-0.3562,-0.3848,-0.3525,-0.3635,-0.3746,-0.3718,-0.4111,-0.4369,-0.4493,-0.4799,-0.5392,-0.6141,-0.6392,-0.6425,-0.5927,-0.5725,-0.531,-0.4815,-0.4463,-0.4137,-0.3999,-0.3524,-0.3227,-0.31,-0.2966,-0.2831,-0.2839,-0.2844,-0.2681,-0.2491,-0.1896,-0.1313,-0.1605,-0.1181,-0.0893,-0.0748,-0.0152,0.031,0.0627,0.0942,0.1256,0.157,0.2043,0.2985,0.3768,0.4238,0.4552,0.4241,0.4241,0.4395,0.4709,0.4238,0.3925,0.3927,0.377,0.3299,0.3142,0.3454,0.3768,0.4238,0.4709,0.4865,0.5022,0.5022,0.5022,0.5022,0.5179,0.5492,0.5962,0.6278,0.663,0.7001,0.7179,0.7338,3.5754,3.6497,3.6812,3.7255,3.7549,3.8409,3.9136,3.9838,4.1268,4.2138,4.2548,4.2196,4.1603,4.085,3.8833,3.6515,3.4331,3.1062,2.8308,2.6504,2.52,2.1824,1.7311,1.2059,0.7456,0.3762,0.2367,0.1735,0.1096,0.1073,0.106,0.0757,0.0303,0.0,-0.0455,-0.155,-0.2356,-0.2826,-0.377,-0.4241,-0.4077,-0.4208,-0.4192,-0.4028,-0.368,-0.3812,-0.3955,-0.4168,-0.4404,-0.4695,-0.4973,-0.5396,-0.5988,-0.6262,-0.6169,-0.5829,-0.5588,-0.5337,-0.4842,-0.4317,-0.3994,-0.3851,-0.3231,-0.2787,-0.2668,-0.2535,-0.2405,-0.2418,-0.2444,-0.2136,-0.1504,-0.103,-0.0731,-0.0584,-0.0445,-0.015,0.0,0.0461,0.0933,0.1098,0.1413,0.157,0.1886,0.2826,0.3613,0.4395,0.4709,0.5022,0.4868,0.4868,0.5179,0.5179,0.4865,0.4709,0.4554,0.4241,0.3925,0.3768,0.3768,0.4081,0.4395,0.4709,0.5022,0.5022,0.5022,0.5022,0.5022,0.5022,0.5179,0.5648,0.6121,0.6473,0.6832,0.733,0.7525,3.6497,3.696,3.7255,3.799,3.8574,3.9136,3.9982,4.1004,4.2138,4.3001,4.3171,4.2897,4.1891,4.0265,3.7665,3.4218,3.0309,2.582,2.1249,1.7898,1.6623,1.4653,1.0133,0.448,0.0782,-0.1098,-0.0787,-0.0629,-0.0626,0.0,0.0,-0.0152,-0.0455,-0.0909,-0.1524,-0.233,-0.2987,-0.3454,-0.4086,-0.4564,-0.44,-0.4238,-0.4236,-0.4234,-0.3727,-0.355,-0.3692,-0.3621,-0.4013,-0.4593,-0.4982,-0.5107,-0.5278,-0.5826,-0.5869,-0.5376,-0.5422,-0.5301,-0.4826,-0.4011,-0.3529,-0.3551,-0.2937,-0.2348,-0.238,-0.2405,-0.2272,-0.2439,-0.2324,-0.1723,-0.0465,0.0,0.0,0.0879,0.0447,0.0457,0.1092,0.1254,0.1569,0.1728,0.157,0.1728,0.2671,0.4081,0.4709,0.5022,0.5179,0.5335,0.5492,0.5648,0.5805,0.5648,0.5335,0.5022,0.4865,0.4709,0.4238,0.4238,0.4238,0.4395,0.4552,0.4865,0.5022,0.5022,0.5022,0.5022,0.5022,0.5022,0.5179,0.5651,0.5978,0.6161,0.6648,0.7295,0.7533,3.6793,3.7677,3.8136,3.872,3.9425,4.0146,4.1147,4.2278,4.3258,4.3952,4.4049,4.3039,4.1255,3.9041,3.4505,3.0207,2.5331,1.9922,1.4753,1.0023,0.6291,0.3825,0.1091,-0.1576,-0.3001,-0.3145,-0.1739,-0.0946,-0.0775,0.0,-0.0152,-0.092,-0.1065,-0.1826,-0.3076,-0.3611,-0.4108,-0.4564,-0.5068,-0.5063,-0.4402,-0.4084,-0.3768,-0.3452,-0.313,-0.2969,-0.3274,-0.3511,-0.3729,-0.4253,-0.4676,-0.4979,-0.517,-0.57,-0.5761,-0.5486,-0.5501,-0.5346,-0.4691,-0.4029,-0.3545,-0.352,-0.2781,-0.2356,-0.2408,-0.2116,-0.2139,-0.2322,-0.2037,-0.1256,0.0,0.0,0.0,0.1036,0.1049,0.1067,0.1547,0.2032,0.22,0.2357,0.2669,0.314,0.4079,0.4709,0.5176,0.5648,0.5805,0.5962,0.6118,0.6118,0.6275,0.5965,0.5495,0.5335,0.5022,0.4865,0.4709,0.4865,0.4865,0.4865,0.4865,0.5022,0.5022,0.5022,0.5022,0.5022,0.5022,0.5022,0.5335,0.5651,0.5971,0.6298,0.6762,0.7248,0.7489,3.7677,3.8282,3.9011,3.9714,4.0412,4.1289,4.2159,4.3141,4.4228,4.4368,4.3735,4.2147,3.958,3.6034,3.0259,2.4758,1.929,1.3372,0.824,0.405,0.0153,-0.2334,-0.3631,-0.428,-0.4108,-0.3145,-0.1897,-0.1102,-0.0622,-0.0154,-0.046,-0.1077,-0.1685,-0.2458,-0.3417,-0.4088,-0.4599,-0.4747,-0.5232,-0.5212,-0.4711,-0.4081,-0.3768,-0.3297,-0.2826,-0.2667,-0.2802,-0.3058,-0.3298,-0.3833,-0.4099,-0.4253,-0.4604,-0.4809,-0.5021,-0.4773,-0.4932,-0.4916,-0.4573,-0.3906,-0.3559,-0.339,-0.2794,-0.2376,-0.2263,-0.1977,-0.1849,-0.1721,-0.1413,-0.0942,-0.0156,0.0454,0.0888,0.1328,0.1798,0.2129,0.2312,0.2652,0.2825,0.3142,0.3456,0.4081,0.4865,0.5179,0.5648,0.6115,0.6271,0.6275,0.6431,0.6587,0.6434,0.6278,0.6121,0.5962,0.5648,0.5489,0.5332,0.5335,0.5492,0.5492,0.5335,0.5335,0.5179,0.5179,0.5022,0.5022,0.5022,0.5022,0.5179,0.5492,0.5962,0.6434,0.6751,0.7217,0.7461,3.872,3.9011,4.0022,4.0862,4.1551,4.2419,4.3141,4.3836,4.455,4.4097,4.243,4.0372,3.6285,3.1545,2.4868,1.867,1.2438,0.719,0.2839,-0.0611,-0.3263,-0.439,-0.407,-0.4245,-0.3611,-0.2507,-0.1569,-0.1098,-0.0624,-0.0464,-0.0772,-0.1391,-0.2163,-0.2794,-0.3443,-0.409,-0.4428,-0.4445,-0.4905,-0.4884,-0.4711,-0.4081,-0.3768,-0.3454,-0.2828,-0.2503,-0.248,-0.26,-0.2718,-0.3429,-0.3382,-0.3531,-0.3572,-0.3616,-0.3659,-0.3854,-0.4178,-0.4328,-0.4153,-0.3782,-0.3429,-0.3272,-0.2676,-0.2394,-0.2271,-0.1835,-0.1548,-0.1098,-0.1099,-0.0627,0.0155,0.1064,0.1487,0.1766,0.2535,0.3036,0.3231,0.327,0.3454,0.3768,0.4084,0.4552,0.5022,0.5495,0.5965,0.6587,0.674,0.6744,0.69,0.69,0.69,0.6747,0.6591,0.6587,0.6431,0.6115,0.6118,0.5962,0.6118,0.6118,0.5962,0.5805,0.5492,0.5492,0.5179,0.5022,0.5022,0.5022,0.5179,0.5492,0.5962,0.6438,0.6758,0.7217,0.7578,3.9301,4.0433,4.1004,4.1714,4.2721,4.328,4.3836,4.4481,4.4075,4.2881,4.0558,3.6949,3.1815,2.5855,1.8997,1.2683,0.7052,0.2545,-0.138,-0.3893,-0.4227,-0.4213,-0.3886,-0.3901,-0.3277,-0.2178,-0.1095,-0.0781,-0.062,-0.0465,-0.093,-0.203,-0.2327,-0.2949,-0.3925,-0.4112,-0.4438,-0.4426,-0.4913,-0.4744,-0.4243,-0.3925,-0.3611,-0.3297,-0.2828,-0.2511,-0.25,-0.2476,-0.2598,-0.2711,-0.2961,-0.3244,-0.345,-0.3474,-0.3517,-0.3729,-0.3749,-0.3893,-0.3704,-0.3373,-0.3035,-0.2687,-0.2549,-0.2265,-0.1968,-0.1531,-0.1241,-0.0783,-0.0471,0.0,0.0769,0.1361,0.1636,0.1914,0.2516,0.3152,0.3497,0.3874,0.4073,0.4238,0.4865,0.5335,0.5179,0.5651,0.6275,0.69,0.7213,0.7213,0.7213,0.7369,0.7213,0.6904,0.706,0.69,0.6587,0.6587,0.6587,0.6587,0.6587,0.6744,0.6431,0.6275,0.6118,0.5648,0.5335,0.5179,0.5022,0.5022,0.5179,0.5492,0.5974,0.6476,0.6964,0.7252,0.7268,4.0187,4.1137,4.1912,4.27,4.3697,4.425,4.439,4.4233,4.3444,4.0899,3.6989,3.2431,2.6298,1.9279,1.2971,0.7206,0.2847,-0.0613,-0.3113,-0.4227,-0.3905,-0.3415,-0.3086,-0.2777,-0.2312,-0.1697,-0.1241,-0.0932,-0.0778,-0.0778,-0.125,-0.2199,-0.234,-0.2822,-0.3473,-0.3805,-0.3803,-0.3959,-0.4273,-0.4264,-0.3929,-0.3611,-0.3297,-0.2826,-0.2671,-0.2514,-0.2511,-0.2484,-0.2462,-0.2435,-0.2539,-0.282,-0.3014,-0.3029,-0.3067,-0.3125,-0.3452,-0.3447,-0.3424,-0.3247,-0.2907,-0.2405,-0.2265,-0.1966,-0.1519,-0.1225,-0.093,-0.0626,-0.0314,0.0312,0.1079,0.151,0.1638,0.2217,0.2812,0.3429,0.3612,0.3988,0.453,0.4857,0.5338,0.5805,0.6118,0.6118,0.6431,0.7213,0.7369,0.7369,0.7369,0.7369,0.7213,0.706,0.7217,0.706,0.69,0.6744,0.69,0.7056,0.7056,0.7056,0.7056,0.69,0.6744,0.6118,0.5492,0.5179,0.5022,0.5022,0.5193,0.5849,0.6349,0.6698,0.7039,0.7525,0.7221,4.1215,4.17,4.2762,4.3747,4.4503,4.496,4.4482,4.3579,4.1771,3.7469,3.2141,2.6861,1.9818,1.2979,0.7641,0.2994,-0.0153,-0.2176,-0.3607,-0.3745,-0.3103,-0.2616,-0.2294,-0.1975,-0.167,-0.1687,-0.1388,-0.1241,-0.1409,-0.1413,-0.1569,-0.2043,-0.2357,-0.2678,-0.2696,-0.2845,-0.3154,-0.3171,-0.3471,-0.346,-0.3456,-0.314,-0.2826,-0.2671,-0.2514,-0.2514,-0.251,-0.2492,-0.2474,-0.2466,-0.242,-0.2412,-0.2421,-0.2428,-0.2447,-0.2503,-0.282,-0.298,-0.2819,-0.28,-0.262,-0.2281,-0.1981,-0.1519,-0.1217,-0.0921,-0.0776,-0.0468,0.0,0.0628,0.141,0.1694,0.1961,0.2384,0.312,0.3567,0.3731,0.4093,0.4765,0.5462,0.5796,0.6118,0.6587,0.6744,0.7056,0.7369,0.7525,0.7525,0.7525,0.7525,0.7369,0.7369,0.7373,0.7369,0.7056,0.7056,0.7213,0.7213,0.7369,0.7369,0.7369,0.7213,0.69,0.6271,0.5645,0.5335,0.5022,0.5022,0.5361,0.6204,0.6557,0.673,0.7095,0.7641,0.7177,4.1645,4.3382,4.3735,4.4505,4.5344,4.4999,4.3623,4.1546,3.7159,3.2069,2.6314,1.9724,1.3356,0.7778,0.361,0.0307,-0.1713,-0.2504,-0.2808,-0.2946,-0.2465,-0.229,-0.1954,-0.1644,-0.1495,-0.1353,-0.1218,-0.1393,-0.1722,-0.1886,-0.1882,-0.2356,-0.2514,-0.2521,-0.2522,-0.2515,-0.2672,-0.2682,-0.2833,-0.2671,-0.2514,-0.2514,-0.2514,-0.2357,-0.2357,-0.2514,-0.2514,-0.2508,-0.2495,-0.247,-0.2459,-0.2457,-0.2453,-0.2438,-0.2447,-0.2477,-0.2503,-0.2514,-0.2354,-0.2195,-0.1712,-0.1237,-0.1238,-0.1078,-0.0919,-0.0771,-0.0622,-0.0311,0.0469,0.1413,0.22,0.2176,0.2299,0.2559,0.2978,0.3574,0.3727,0.4202,0.501,0.5717,0.5923,0.6275,0.6744,0.7213,0.7525,0.7681,0.7838,0.7842,0.7998,0.7842,0.7681,0.7686,0.7686,0.7525,0.7369,0.7369,0.7369,0.7369,0.7525,0.7525,0.7525,0.7525,0.7056,0.6427,0.5645,0.5179,0.5022,0.5022,0.5379,0.6072,0.6414,0.6755,0.7166,0.7581,0.7278,4.2367,4.3826,4.4001,4.4446,4.4561,4.3394,4.0561,3.6688,3.1765,2.574,1.9243,1.3043,0.7697,0.3537,0.1053,-0.0924,-0.1872,-0.1858,-0.216,-0.2308,-0.2284,-0.1958,-0.1484,-0.133,-0.1036,-0.0893,-0.0905,-0.1224,-0.1865,-0.1712,-0.1874,-0.2356,-0.2514,-0.2514,-0.2514,-0.2515,-0.2514,-0.2514,-0.2357,-0.2043,-0.1886,-0.1886,-0.1886,-0.22,-0.22,-0.2357,-0.2514,-0.2514,-0.2508,-0.2492,-0.2477,-0.2472,-0.2465,-0.2461,-0.2461,-0.2488,-0.2349,-0.2043,-0.1886,-0.1728,-0.1249,-0.0773,-0.0776,-0.0774,-0.0461,-0.0308,-0.0311,0.0,0.0781,0.1728,0.2357,0.2499,0.2472,0.2606,0.3179,0.3454,0.3754,0.4374,0.5024,0.5692,0.6032,0.6386,0.7056,0.7369,0.7681,0.7994,0.8154,0.8154,0.8315,0.7998,0.7842,0.7681,0.7681,0.7681,0.7525,0.7525,0.7525,0.7525,0.7525,0.7525,0.7525,0.7525,0.7056,0.6427,0.5805,0.5041,0.5022,0.5025,0.5554,0.5934,0.6291,0.6665,0.7263,0.7342,0.702,4.2857,4.3963,4.3993,4.3771,4.2827,4.0672,3.6476,3.0936,2.5442,1.9255,1.2417,0.7287,0.3199,0.0592,-0.0752,-0.1531,-0.1713,-0.1374,-0.1828,-0.2281,-0.2104,-0.1783,-0.1181,-0.0882,-0.0734,-0.0443,-0.0445,-0.0901,-0.1532,-0.1543,-0.1708,-0.2185,-0.235,-0.2514,-0.2514,-0.2514,-0.2514,-0.22,-0.2043,-0.1728,-0.157,-0.1413,-0.1413,-0.1728,-0.1886,-0.2043,-0.2357,-0.2514,-0.2357,-0.2349,-0.2338,-0.2325,-0.2324,-0.2322,-0.2334,-0.2196,-0.2043,-0.1886,-0.157,-0.1413,-0.0939,-0.0466,-0.0465,-0.0309,0.0,0.0154,0.0155,0.0313,0.0947,0.1892,0.2358,0.2652,0.2649,0.2799,0.3383,0.3795,0.3942,0.4409,0.5196,0.5688,0.6008,0.6509,0.7193,0.7525,0.7838,0.8774,0.8929,0.8622,0.8627,0.8315,0.7998,0.7681,0.7525,0.7525,0.7525,0.7525,0.7525,0.7525,0.7525,0.7525,0.7525,0.7525,0.69,0.6438,0.5713,0.5095,0.5063,0.5052,0.5434,0.5814,0.6178,0.6731,0.7157,0.7201,0.6878,4.2746,4.4132,4.3357,4.228,4.0383,3.648,3.1407,2.5338,1.8675,1.2704,0.7398,0.305,0.0,-0.1188,-0.1501,-0.1514,-0.1519,-0.1665,-0.1956,-0.2398,-0.2233,-0.1919,-0.1319,-0.1169,-0.073,-0.0293,-0.0146,-0.0593,-0.1058,-0.1225,-0.1542,-0.186,-0.2034,-0.22,-0.2357,-0.2514,-0.2357,-0.2043,-0.157,-0.1256,-0.0942,-0.0785,-0.0942,-0.1413,-0.1728,-0.1886,-0.2043,-0.22,-0.22,-0.2042,-0.2039,-0.188,-0.1568,-0.1725,-0.1568,-0.157,-0.157,-0.157,-0.0942,-0.0785,-0.0628,-0.0156,-0.0156,0.0156,0.0465,0.0773,0.0776,0.0157,0.1111,0.1917,0.2545,0.3021,0.3173,0.346,0.3886,0.4142,0.4271,0.4446,0.524,0.5711,0.5881,0.6682,0.7197,0.7673,0.7994,0.9085,0.9708,0.9246,0.8778,0.831,0.7998,0.7681,0.7525,0.7525,0.7525,0.7525,0.7525,0.7525,0.7525,0.7525,0.7525,0.7369,0.7064,0.6462,0.5743,0.515,0.5134,0.5142,0.5497,0.5694,0.6227,0.6787,0.7368,0.7056,0.6727,4.1103,4.2512,4.0806,3.8488,3.5524,3.0319,2.4346,1.8161,1.2109,0.6906,0.2993,0.0,-0.1605,-0.1763,-0.1471,-0.1485,-0.1503,-0.1793,-0.208,-0.2372,-0.2361,-0.2053,-0.1607,-0.1313,-0.0876,-0.0438,-0.0146,-0.0146,-0.0596,-0.0908,-0.1071,-0.1543,-0.1716,-0.2043,-0.2197,-0.2357,-0.22,-0.1886,-0.1256,-0.0628,-0.0471,-0.0471,-0.0785,-0.1256,-0.1413,-0.1728,-0.2043,-0.1886,-0.1886,-0.1728,-0.1728,-0.157,-0.1413,-0.1413,-0.1256,-0.0942,-0.1099,-0.0942,-0.0628,-0.0471,-0.0157,0.0,0.0314,0.0627,0.1092,0.1247,0.1404,0.1413,0.1591,0.209,0.2596,0.3084,0.3676,0.411,0.4405,0.4369,0.4488,0.4799,0.5125,0.5593,0.591,0.6555,0.7197,0.7517,0.7994,0.9085,0.9708,0.9558,0.8778,0.8154,0.7842,0.7525,0.7525,0.7525,0.7525,0.7525,0.7525,0.7525,0.7525,0.7525,0.7525,0.7373,0.7072,0.6497,0.5783,0.5336,0.5194,0.5202,0.5372,0.5739,0.6117,0.6663,0.7212,0.7059,0.656,3.7593,3.8087,3.6587,3.3719,2.958,2.3471,1.7303,1.1249,0.6509,0.2538,-0.0142,-0.1576,-0.1872,-0.1735,-0.1587,-0.1751,-0.1944,-0.2059,-0.2203,-0.2352,-0.2346,-0.2043,-0.175,-0.1459,-0.1167,-0.0584,-0.0292,-0.0146,-0.0147,-0.0298,-0.0606,-0.1071,-0.1246,-0.1565,-0.1879,-0.2039,-0.22,-0.1886,-0.1256,-0.0785,-0.0471,-0.0628,-0.0942,-0.1256,-0.1413,-0.157,-0.2043,-0.1728,-0.157,-0.1413,-0.1256,-0.1099,-0.0942,-0.0785,-0.0785,-0.0471,-0.0471,-0.0471,-0.0314,-0.0157,0.0,0.0314,0.0628,0.1256,0.157,0.157,0.1728,0.22,0.2225,0.2278,0.2654,0.3129,0.3907,0.4505,0.4798,0.4601,0.4567,0.4855,0.515,0.5468,0.5939,0.6414,0.6896,0.7365,0.7994,0.9085,0.9397,0.9558,0.8934,0.815,0.7838,0.7681,0.7525,0.7525,0.7525,0.7525,0.7525,0.7525,0.7525,0.7525,0.7525,0.7381,0.7083,0.6529,0.5823,0.5549,0.5584,0.5412,0.5243,0.579,0.6334,0.668,0.6874,0.6721,0.6392,3.129,2.9356,3.0452,2.766,2.2187,1.6783,1.12,0.6095,0.2351,0.0141,-0.1284,-0.1717,-0.1573,-0.1432,-0.1719,-0.2016,-0.2194,-0.2627,-0.2625,-0.248,-0.248,-0.2039,-0.1894,-0.1604,-0.1312,-0.0729,-0.0584,-0.0292,-0.0146,-0.0148,-0.0298,-0.0599,-0.077,-0.1085,-0.1401,-0.172,-0.1885,-0.1728,-0.1413,-0.1256,-0.1099,-0.1256,-0.1256,-0.1256,-0.1256,-0.1413,-0.1413,-0.1256,-0.1099,-0.0785,-0.0785,-0.0471,-0.0314,0.0,0.0,0.0,0.0,0.0,0.0,0.0,0.0157,0.0628,0.1256,0.1728,0.1886,0.22,0.2514,0.2517,0.2384,0.2427,0.2798,0.3474,0.4103,0.4757,0.5034,0.4952,0.491,0.487,0.5173,0.5492,0.5805,0.6118,0.69,0.7213,0.7838,0.8774,0.9553,0.9708,0.909,0.831,0.7998,0.7842,0.7681,0.7525,0.7525,0.7525,0.7525,0.7525,0.7525,0.7525,0.7525,0.7385,0.7244,0.6585,0.6035,0.5927,0.5808,0.5796,0.5805,0.6019,0.6382,0.6714,0.6878,0.6721,0.6224,2.598,2.2706,2.0794,1.8753,1.6541,1.102,0.6473,0.2993,0.0275,-0.1115,-0.1697,-0.1415,-0.1278,-0.1283,-0.1561,-0.1851,-0.1728,-0.2018,-0.2018,-0.2018,-0.1874,-0.1882,-0.1743,-0.175,-0.1604,-0.1166,-0.0875,-0.0584,-0.0438,-0.0148,0.0,-0.0298,-0.0455,-0.0614,-0.0927,-0.1246,-0.1567,-0.157,-0.1413,-0.1256,-0.1413,-0.157,-0.157,-0.1256,-0.1256,-0.1256,-0.1256,-0.0785,-0.0628,-0.0471,-0.0314,0.0,0.0,0.0,0.0,0.0,0.0,0.0,0.0,0.0,0.0,0.0942,0.157,0.2043,0.22,0.2357,0.2514,0.2523,0.254,0.2579,0.2726,0.3426,0.4292,0.4984,0.5273,0.5164,0.5095,0.5052,0.5181,0.5338,0.5492,0.5645,0.6427,0.7209,0.7838,0.8462,0.9241,0.9708,0.8934,0.831,0.7998,0.7842,0.7681,0.7525,0.7525,0.7525,0.7525,0.7525,0.7525,0.7525,0.7525,0.7525,0.7256,0.677,0.641,0.6311,0.6183,0.6183,0.6196,0.655,0.6724,0.7059,0.6892,0.6727,0.6224,2.0886,1.7019,1.3188,1.1549,1.0863,0.6369,0.2916,0.0816,-0.0823,-0.1519,-0.1394,-0.1116,-0.0981,-0.1126,-0.1403,-0.1546,-0.1561,-0.1709,-0.157,-0.1573,-0.1578,-0.1587,-0.1598,-0.175,-0.1604,-0.1457,-0.1162,-0.0726,-0.0584,-0.0147,0.0,0.0,-0.0297,-0.0451,-0.0457,-0.0772,-0.1248,-0.1411,-0.1408,-0.1568,-0.1726,-0.1886,-0.1886,-0.157,-0.1413,-0.1099,-0.0942,-0.0471,-0.0314,-0.0314,0.0,0.0,0.0,0.0,0.0157,0.0157,0.0314,0.0314,0.0314,0.0471,0.0785,0.1413,0.2042,0.2356,0.2671,0.2671,0.2671,0.2515,0.2533,0.2538,0.2677,0.3394,0.447,0.5169,0.5264,0.5166,0.5117,0.5074,0.5201,0.5335,0.5492,0.5962,0.6275,0.7056,0.7533,0.8002,0.8306,0.8774,0.8934,0.831,0.7998,0.7842,0.7681,0.7525,0.7525,0.7525,0.7525,0.7525,0.7525,0.7525,0.7525,0.7525,0.726,0.6755,0.6557,0.6513,0.655,0.6703,0.671,0.6892,0.7059,0.723,0.6895,0.656,0.6056,1.5963,1.2212,0.9226,0.7311,0.6014,0.3256,0.0929,-0.054,-0.0957,-0.0963,-0.0689,-0.0689,-0.0552,-0.0691,-0.0968,-0.1251,-0.14,-0.1545,-0.1552,-0.1423,-0.1283,-0.1152,-0.1307,-0.1457,-0.1452,-0.1308,-0.1011,-0.0864,-0.0583,-0.0145,0.0,0.0,0.0,0.0,0.0,-0.0453,-0.1074,-0.1718,-0.1862,-0.2025,-0.2195,-0.2357,-0.2043,-0.1728,-0.1413,-0.1099,-0.0628,-0.0157,0.0,0.0,0.0,0.0,0.0,0.0471,0.0471,0.0628,0.0942,0.1099,0.1256,0.1256,0.1413,0.1885,0.2356,0.2826,0.2983,0.2983,0.2826,0.2672,0.2677,0.2677,0.3016,0.3551,0.4619,0.5158,0.5256,0.5356,0.5305,0.5232,0.5355,0.5492,0.6121,0.6591,0.6591,0.6747,0.7385,0.7542,0.7529,0.7842,0.8315,0.831,0.7998,0.7681,0.7681,0.7525,0.7525,0.7525,0.7525,0.7525,0.7525,0.7525,0.7525,0.7525,0.7283,0.6908,0.6658,0.6578,0.6822,0.7219,0.7391,0.7394,0.7394,0.7394,0.6895,0.656,0.6224,1.1914,0.9308,0.6671,0.453,0.2921,0.1823,0.0664,-0.0269,-0.041,-0.0412,-0.0412,-0.0275,-0.0138,-0.0277,-0.0552,-0.0689,-0.0691,-0.0831,-0.0837,-0.0564,-0.0706,-0.0861,-0.0868,-0.1156,-0.1152,-0.0861,-0.0712,-0.0569,-0.0144,0.0,0.0144,0.0,0.0438,0.0294,0.0,-0.0454,-0.0926,-0.1394,-0.1702,-0.2017,-0.2353,-0.22,-0.1886,-0.157,-0.1099,-0.0628,-0.0314,0.0157,0.0314,0.0314,0.0314,0.0471,0.0628,0.0785,0.0785,0.0942,0.1256,0.1413,0.157,0.1728,0.1728,0.2042,0.2669,0.3139,0.3139,0.3454,0.314,0.2828,0.2828,0.3142,0.4261,0.4203,0.4784,0.5333,0.5457,0.5549,0.5647,0.5554,0.5495,0.5808,0.6278,0.6744,0.69,0.6919,0.7401,0.7627,0.764,0.7566,0.7863,0.8163,0.8002,0.7686,0.7525,0.7525,0.7525,0.7525,0.7525,0.7525,0.7525,0.7525,0.7525,0.7525,0.7102,0.6705,0.6581,0.6462,0.6913,0.7353,0.7718,0.7897,0.7729,0.7394,0.6895,0.6727,0.656,0.9104,0.697,0.5129,0.3357,0.176,0.1163,0.0659,0.0267,0.0,-0.0136,-0.0273,0.0,0.0,0.0,-0.0274,-0.0273,0.0,-0.0273,-0.0275,0.0,-0.0279,-0.0423,-0.0427,-0.0572,-0.0569,-0.0425,-0.0422,-0.0281,0.0,0.0142,0.0428,0.0722,0.0731,0.0735,0.0445,0.0,-0.0608,-0.1071,-0.1385,-0.1854,-0.203,-0.2043,-0.1728,-0.1256,-0.0942,-0.0471,0.0,0.0314,0.0628,0.0628,0.0785,0.0942,0.1099,0.1256,0.1256,0.1413,0.1728,0.1886,0.2043,0.2043,0.22,0.22,0.2826,0.3139,0.3297,0.3454,0.3611,0.3454,0.3297,0.3925,0.4572,0.4529,0.4913,0.546,0.5769,0.5857,0.5956,0.5859,0.5814,0.6125,0.6434,0.69,0.7217,0.7401,0.7578,0.7668,0.7754,0.7668,0.7586,0.7727,0.802,0.7686,0.7525,0.7525,0.7525,0.7525,0.7525,0.7525,0.7525,0.7525,0.7525,0.7525,0.7095,0.6652,0.6515,0.6574,0.7047,0.7474,0.7845,0.7877,0.7729,0.7394,0.7063,0.6895,0.6724,0.7312,0.541,0.4631,0.3279,0.1977,0.1268,0.0907,0.0527,0.0264,0.0,0.0,0.0,0.0,0.0,0.0,0.0,0.0,0.0,0.0,0.0,0.0,0.0,0.0,0.0,0.0,0.0,0.0139,0.0278,0.0142,0.0564,0.0988,0.1005,0.1171,0.103,0.0884,0.0444,-0.015,-0.0457,-0.107,-0.1387,-0.1563,-0.1728,-0.1413,-0.1099,-0.0785,-0.0314,0.0157,0.0471,0.0628,0.0942,0.1099,0.1256,0.1413,0.1728,0.1886,0.2043,0.22,0.2357,0.2357,0.2357,0.2357,0.2357,0.2826,0.3297,0.3611,0.3611,0.3925,0.3925,0.3768,0.4238,0.4572,0.4955,0.535,0.5691,0.586,0.6133,0.6241,0.6343,0.6305,0.6448,0.6595,0.6904,0.7369,0.755,0.7595,0.7758,0.784,0.7827,0.7742,0.7635,0.7761,0.7681,0.7525,0.7525,0.7525,0.7525,0.7525,0.7525,0.7525,0.7525,0.7525,0.7369,0.7076,0.6773,0.6448,0.6677,0.7301,0.7569,0.797,0.7837,0.7873,0.7562,0.723,0.6892,0.6724,0.6003,0.4707,0.3875,0.2854,0.1915,0.1709,0.1633,0.1553,0.1038,0.0651,0.0392,0.0131,0.0,0.0,0.0,0.0,0.0,0.0,0.0,0.0,0.0,0.0,0.0278,0.0417,0.0692,0.0826,0.0959,0.0959,0.1392,0.1673,0.1279,0.1162,0.1461,0.1467,0.1328,0.1034,0.06,0.0152,-0.0456,-0.077,-0.0936,-0.1099,-0.0942,-0.0784,-0.0471,0.0,0.0314,0.0785,0.1099,0.157,0.157,0.1886,0.22,0.2043,0.1886,0.2357,0.2514,0.2514,0.2514,0.2514,0.2514,0.2514,0.2671,0.314,0.3611,0.3925,0.4081,0.4238,0.4081,0.4238,0.4709,0.5074,0.5451,0.5799,0.5966,0.6274,0.6553,0.6702,0.6824,0.6821,0.6968,0.706,0.7369,0.7529,0.7599,0.7803,0.7917,0.7917,0.7872,0.7754,0.7652,0.7574,0.7525,0.7525,0.7525,0.7525,0.7525,0.7525,0.7525,0.7525,0.7525,0.7369,0.7056,0.6751,0.6448,0.6813,0.7537,0.7807,0.7925,0.7974,0.7845,0.7706,0.7394,0.7227,0.6892,0.5062,0.4098,0.3472,0.2937,0.2499,0.2162,0.2093,0.1897,0.1276,0.077,0.0516,0.0129,0.0,0.0,0.0,0.0,0.0,0.0,0.0,0.0,0.0135,0.0273,0.041,0.0822,0.1229,0.1494,0.1629,0.1631,0.2206,0.2111,0.1867,0.172,0.188,0.1762,0.1627,0.1486,0.1501,0.0911,0.0459,-0.0155,-0.0312,-0.0471,-0.0627,-0.0469,-0.0157,0.0157,0.0625,0.1095,0.157,0.1886,0.2043,0.22,0.2514,0.22,0.22,0.2514,0.2514,0.2514,0.2514,0.2514,0.2514,0.2671,0.2828,0.3297,0.3768,0.4084,0.4395,0.4552,0.4238,0.4081,0.4552,0.503,0.539,0.5756,0.6248,0.6581,0.6901,0.7225,0.7217,0.7213,0.7164,0.724,0.7369,0.7369,0.7607,0.7815,0.7942,0.797,0.7913,0.7811,0.7709,0.7623,0.7562,0.7525,0.7525,0.7525,0.7525,0.7525,0.7842,0.7842,0.7681,0.7373,0.7064,0.6919,0.662,0.6997,0.7713,0.7787,0.7885,0.7942,0.8003,0.7873,0.7897,0.7897,0.7562,0.4254,0.3482,0.3305,0.3036,0.3123,0.2524,0.2184,0.1849,0.1253,0.0762,0.0513,0.0129,0.0,0.0,0.0,0.0,0.0,0.0,0.0,0.0,0.0264,0.0533,0.0809,0.1211,0.1617,0.1751,0.2023,0.2166,0.2202,0.2378,0.2399,0.2249,0.2156,0.2194,0.2224,0.1939,0.1958,0.1829,0.1076,0.031,0.0156,-0.0157,-0.0468,-0.0465,-0.0155,0.0156,0.0621,0.109,0.157,0.1886,0.22,0.2514,0.2514,0.2514,0.2514,0.2514,0.2514,0.2514,0.2514,0.2671,0.2826,0.2983,0.3139,0.3611,0.4084,0.4241,0.4395,0.4552,0.4238,0.4238,0.4552,0.5224,0.575,0.6094,0.6424,0.6759,0.7087,0.7436,0.7637,0.7637,0.7621,0.7529,0.7417,0.7582,0.7461,0.7665,0.7797,0.7675,0.7801,0.7705,0.777,0.7676,0.7615,0.7562,0.7525,0.7525,0.7525,0.7681,0.7842,0.7998,0.7838,0.7533,0.7228,0.7122,0.6857,0.7206,0.7589,0.7823,0.7897,0.8132,0.819,0.8052,0.8064,0.8232,0.806,0.3474,0.2917,0.259,0.2302,0.213,0.2015,0.1794,0.1457,0.0863,0.0623,0.0499,0.0,0.0,0.0,0.0,0.0,0.0,0.0,0.0,0.0,0.0391,0.0789,0.0936,0.1467,0.1869,0.2284,0.2561,0.2701,0.2723,0.2757,0.2653,0.2248,0.2289,0.2327,0.2376,0.2092,0.2266,0.2288,0.1689,0.1083,0.0937,0.0467,0.0155,0.0,0.0,0.0464,0.0928,0.1247,0.1725,0.22,0.2357,0.2514,0.2514,0.2514,0.2514,0.2514,0.2514,0.2514,0.2514,0.2669,0.2983,0.314,0.3454,0.3925,0.4241,0.4241,0.4241,0.4397,0.4552,0.4395,0.4731,0.5419,0.6107,0.6438,0.6616,0.6949,0.7282,0.7669,0.7897,0.7905,0.7909,0.7815,0.7689,0.7505,0.7373,0.7321,0.6981,0.7041,0.7516,0.7612,0.7669,0.7581,0.7672,0.7615,0.7566,0.7525,0.7525,0.7686,0.7998,0.8154,0.815,0.7744,0.7322,0.7385,0.7436,0.7609,0.7637,0.7864,0.7934,0.8331,0.8198,0.8227,0.8232,0.8232,0.8227,0.2805,0.2244,0.1908,0.1937,0.2096,0.1762,0.1546,0.1328,0.1104,0.0864,0.0617,0.0,0.0,0.0,0.0,0.0248,0.025,0.0,0.0,0.0,0.0774,0.1044,0.1445,0.1851,0.2135,0.2685,0.3096,0.3234,0.3238,0.3141,0.2909,0.2524,0.2419,0.2173,0.2223,0.2097,0.211,0.2121,0.183,0.1688,0.1392,0.0921,0.0609,0.0305,0.0305,0.0764,0.1076,0.1394,0.1873,0.2352,0.2671,0.2826,0.2826,0.2826,0.2669,0.2514,0.2514,0.2514,0.2671,0.2826,0.314,0.3454,0.3768,0.4241,0.4709,0.4709,0.4865,0.4865,0.4865,0.4709,0.509,0.5629,0.6136,0.6472,0.6848,0.7211,0.7573,0.7793,0.7991,0.7991,0.7978,0.7929,0.7844,0.7856,0.7681,0.7202,0.688,0.6853,0.7176,0.7349,0.7416,0.7653,0.775,0.7676,0.7619,0.7566,0.7681,0.7842,0.8154,0.831,0.848,0.7815,0.7424,0.7661,0.7693,0.7661,0.7856,0.7917,0.8293,0.8856,0.8544,0.8232,0.8232,0.8232,0.8227,0.2239,0.1682,0.157,0.1813,0.2419,0.1751,0.1419,0.144,0.1462,0.1226,0.0857,0.0367,0.0123,0.0123,0.037,0.037,0.0495,0.0744,0.0876,0.1009,0.1386,0.154,0.182,0.2359,0.2773,0.3201,0.3624,0.3765,0.377,0.3539,0.3029,0.2799,0.2419,0.2027,0.1769,0.1785,0.1794,0.1805,0.1812,0.181,0.1509,0.1057,0.0751,0.075,0.0601,0.0906,0.1213,0.1682,0.2013,0.2485,0.2805,0.2964,0.2969,0.2969,0.2823,0.2667,0.2514,0.2514,0.2671,0.2983,0.3297,0.3768,0.4241,0.4711,0.5022,0.5179,0.5335,0.5335,0.5179,0.5052,0.5437,0.5848,0.6194,0.6693,0.708,0.7631,0.7845,0.8052,0.8056,0.8056,0.8032,0.7995,0.8003,0.8015,0.7757,0.7263,0.693,0.7055,0.7154,0.7187,0.7327,0.7581,0.7677,0.7766,0.7676,0.7599,0.769,0.7994,0.831,0.8622,0.8664,0.8176,0.7831,0.7962,0.7974,0.7921,0.7921,0.8136,0.868,0.9212,0.8725,0.8399,0.8399,0.8395,0.8227,0.1772,0.1458,0.1795,0.2038,0.1954,0.1847,0.1737,0.163,0.13,0.0951,0.0954,0.0835,0.0602,0.037,0.0494,0.0494,0.0741,0.0988,0.0997,0.1008,0.1622,0.1899,0.2181,0.2966,0.363,0.4071,0.4397,0.4431,0.4011,0.3499,0.2871,0.2374,0.1965,0.172,0.1329,0.1337,0.1486,0.1641,0.1787,0.1785,0.1923,0.163,0.1192,0.1042,0.0745,0.1194,0.1496,0.1661,0.1975,0.2439,0.2906,0.3076,0.3093,0.3106,0.2962,0.2668,0.2514,0.2514,0.2671,0.3297,0.3611,0.3925,0.4397,0.5025,0.5335,0.5648,0.5805,0.5805,0.5658,0.5215,0.5451,0.6095,0.6652,0.6959,0.7481,0.7845,0.8219,0.8227,0.8227,0.8227,0.8052,0.8036,0.804,0.7877,0.7706,0.7241,0.6516,0.6618,0.6836,0.686,0.7052,0.7493,0.7753,0.7807,0.7693,0.7607,0.7702,0.8159,0.8485,0.8678,0.8753,0.8397,0.8212,0.8173,0.8219,0.8186,0.8365,0.8348,0.8869,0.923,0.8901,0.8571,0.8566,0.8395,0.8227]},{"header":{"parameterUnit":"m.s-1","parameterCategory":1,"la1":31.0,"la2":29.5877,"lo1":-88.7671,"lo2":-86.6584,"dy":0.0162,"dx":0.0185,"nx":115,"ny":88,"refTime":"2023-10-04T12:00:00:Z","depth":0,"parameterNumber":3,"parameterNumberName":"V-component_of_WINDS"},"data":[0.0,0.0,0.0,0.0,0.0,0.0,0.0,0.0,0.0,0.0,0.0,0.0,0.0,0.0,0.0,0.0,0.0,0.0,0.0,0.0,0.0,0.0,0.0,0.0,0.0,0.0,0.0,0.0,0.0,0.0,0.0,0.0,0.0,0.0,0.0,0.0,0.0,0.0,0.0,0.0,0.0,0.0,0.0206,0.0618,0.1039,0.1495,0.2002,0.0,0.0,0.0,0.0,0.0,0.0,0.0,0.0,0.0,0.0,0.0,0.0,0.0,0.0,0.0,0.0,0.0,0.0,0.0,0.0,0.0,0.0,0.0,0.0,0.0,0.0,0.0,0.0,0.0,0.0,0.0,0.0,0.0,0.0,0.0,0.0,0.0,0.0,0.0,0.0,0.0,0.0,0.0,0.0,0.0,0.0,0.0,0.0,0.0,0.0,0.0,0.0,0.0,0.0,0.0,0.0,0.0,0.0,0.0,0.0,0.0,0.0,0.0,0.0,0.0,0.0,0.0,0.0,0.0,0.0,0.0,0.0,0.0,0.0,0.0,0.0,0.0,0.0,0.0,0.0,0.0,0.0,0.0,0.0,0.0,0.0,0.0,0.0,0.0,0.0,0.0,0.0,0.0,0.0,0.0,0.0,0.0,0.0,0.0,0.0,0.0,0.0,0.0,0.0,0.0,0.0,0.0,0.0,0.0,0.0,0.0095,0.0195,0.0633,0.1021,0.1403,0.0,0.0,0.0,0.0,0.0,0.0,0.0,0.0,0.0,0.0,0.0,0.0,0.0,0.0,0.0,0.0,0.0,0.0,0.0,0.0,0.0,0.0,0.0,0.0,0.0,0.0,0.0,0.0,0.0,0.0,0.0,0.0,0.0,0.0,0.0,0.0,0.0,0.0,0.0,0.0,0.0,0.0,0.0,0.0,0.0,0.0,0.0,0.0,0.0,0.0,0.0,0.0,0.0,0.0,0.0,0.0,0.0,0.0,0.0,0.0,0.0,0.0,0.0,0.0,0.0,0.0,0.0,0.0,0.0,0.0,0.0,0.0,0.0,0.0,0.0,0.0,0.0,0.0,0.0,0.0,0.0,0.0,0.0,0.0,0.0,0.0,0.0,0.0,0.0,0.0,0.0,0.0,0.0,0.0,0.0,0.0,0.0,0.0,0.0,0.0,0.0,0.0,0.0,0.0,0.0,0.0,0.0,0.0,0.0,0.0,0.045,0.001,0.0275,0.0509,0.0645,0.0,0.0,0.0,0.0,0.0,0.0,0.0,0.0,0.0,0.0,0.0,0.0,0.0,0.0,0.0,0.0,0.0,0.0,0.0,0.0,0.0,0.0,0.0,0.0,0.0,0.0,0.0,0.0,0.0,0.0,0.0,0.0,0.0,0.0,0.0,0.0,0.0,0.0,0.0,0.0,0.0,0.0,0.0,0.0,0.0,0.0,0.0,0.0,0.0,0.0,0.0,0.0,0.0,0.0,0.0,0.0,0.0,0.0,0.0,0.0,0.0,0.0,0.0,0.0,0.0,0.0,0.0,0.0,0.0,0.0,0.0,0.0,0.0,0.0,0.0,0.0,0.0,0.0,0.0,0.0,0.0,0.0,0.0,0.0,0.0,0.0,0.0,0.0,0.0,0.0,0.0,0.0,0.0,0.0,0.0,0.0,0.0,0.0,0.0,0.0,0.0,0.0,0.0,0.0,0.0,0.0,0.0,0.0,0.0,0.0,0.0457,-0.0011,0.0044,-0.007,-0.039,-0.0275,0.0,0.0,0.0,0.0,0.0,0.0,0.0,0.0,0.0,0.0,0.0,0.0,0.0,0.0,0.0,0.0,0.0,0.0,0.0,0.0,0.0,0.0,0.0,0.0,0.0,0.0,0.0,0.0,0.0,0.0,0.0,0.0,0.0,0.0,0.0,0.0,0.0,0.0,0.0,0.0,0.0,0.0,0.0,0.0,0.0,0.0,0.0,0.0,0.0,0.0,0.0,0.0,0.0,0.0,0.0,0.0,0.0,0.0,0.0,0.0,0.0,0.0,0.0,0.0,0.0,0.0,0.0,0.0,0.0,0.0,0.0,0.0,0.0,0.0,0.0,0.0,0.0,0.0,0.0,0.0,0.0,0.0,0.0,0.0,0.0,0.0,0.0,0.0,0.0,0.0,0.0,0.0,0.0,0.0,0.0,0.0,0.0,0.0,0.0,0.0,0.0,0.0,0.0,0.0,0.0,0.0,0.0,0.0,0.0,0.0325,0.015,-0.0011,-0.0486,-0.12,-0.0704,0.0,0.0,0.0,0.0,0.0,0.0,0.0,0.0,0.0,0.0,0.0,0.0,0.0,0.0,0.0,0.0,0.0,0.0,0.0,0.0,0.0,0.0,0.0,0.0,0.0,0.0,0.0,0.0,0.0,0.0,0.0,0.0,0.0,0.0,0.0,0.0,0.0,0.0,0.0,0.0,0.0,0.0,0.0,0.0,0.0,0.0,0.0,0.0,0.0,0.0,0.0,0.0,0.0,0.0,0.0,0.0,0.0,0.0,0.0,0.0,0.0,0.0,0.0,0.0,0.0,0.0,0.0,0.0,0.0,0.0,0.0,0.0,0.0,0.0,0.0,0.0,0.0,0.0,0.0,0.0,0.0,0.0,0.0,0.0,0.0,0.0,0.0,0.0,0.0,0.0,0.0,0.0,0.0,0.0,0.0,0.0,0.0,0.0,0.0,0.0,0.0,0.0,0.0,0.0,0.0,0.0,0.0,0.0,0.0,0.0429,0.0341,0.0294,0.0092,-0.0387,-0.1794,0.0,0.0,0.0,0.0,0.0,0.0,0.0,0.0,0.0,0.0,0.0,0.0,0.0,0.0,0.0,0.0,0.0,0.0,0.0,0.0,0.0,0.0,0.0,0.0,0.0,0.0,0.0,0.0,0.0,0.0,0.0,0.0,0.0,0.0,0.0,0.0,0.0,0.0,0.0,0.0,0.0,0.0,0.0,0.0,0.0,0.0,0.0,0.0,0.0,0.0,0.0,0.0,0.0,0.0,0.0,0.0,0.0,0.0,0.0,0.0,0.0,0.0,0.0,0.0,0.0,0.0,0.0,0.0,0.0,0.0,0.0,0.0,0.0,0.0,0.0,0.0,0.0,0.0,0.0,0.0,0.0,0.0,0.0,0.0,0.0,0.0,0.0,0.0,0.0,0.0,0.0,0.0,0.0,0.0,0.0,0.0,0.0,0.0,0.0,0.0,0.0,0.0,0.0,0.0,0.0,0.0,0.0,0.0,0.0,0.0613,0.0341,0.0334,-0.0049,-0.0763,0.0177,0.0,0.0,0.0,0.0,0.0,0.0,0.0,0.0,0.0,0.0,0.0,0.0,0.0,0.0,0.0,0.0,0.0,0.0,0.0,0.0,0.0,0.0,0.0,0.0,0.0,0.0,0.0,0.0,0.0,0.0,0.0,0.0,0.0,0.0,0.0,0.0,0.0,0.0,0.0,0.0,0.0,0.0,0.0,0.0,0.0,0.0,0.0,0.0,0.0,0.0,0.0,0.0,0.0,0.0,0.0,0.0,0.0,0.0,0.0,0.0,0.0,0.0,0.0,0.0,0.0,0.0,0.0,0.0,0.0,0.0,0.0,0.0,0.0,0.0,0.0,0.0,0.0,0.0,0.0,0.0,0.0,0.0,0.0,0.0,0.0,0.0,0.0,0.0,0.0,0.0,0.0,0.0,0.0,0.0,0.0,0.0,0.0,0.0,0.0,0.0,0.0,0.0,0.0,0.0,0.0,0.0,0.0,0.0,0.0683,0.0772,0.0321,0.0277,-0.0183,-0.1154,0.2721,0.0,0.0,0.0,0.0,0.0,0.0,0.0,0.0,0.0,0.0,0.0,0.0,0.0,0.0,0.0,0.0,0.0,0.0,0.0,0.0,0.0,0.0,0.0,0.0,0.0,0.0,0.0,0.0,0.0,0.0,0.0,0.0,0.0,0.0,0.0,0.0,0.0,0.0,0.0,0.0,0.0,0.0,0.0,0.0,0.0,0.0,0.0,0.0,0.0,0.0,0.0,0.0,0.0,0.0,0.0,0.0,0.0,0.0,0.0,0.0,0.0,0.0,0.0,0.0,0.0,0.0,0.0,0.0,0.0,0.0,0.0,0.0,0.0,0.0,0.0,0.0,0.0,0.0,0.0,0.0,0.0,0.0,0.0,0.0,0.0,0.0,0.0,0.0,0.0,0.0,0.0,0.0,0.0,0.0,0.0,0.0,0.0,0.0,0.0,0.0,0.0,0.0,0.0,0.0,0.0,0.0,0.0,0.0513,0.0886,0.0915,0.0549,0.031,0.045,0.0979,0.3553,0.0,0.0,0.0,0.0,0.0,0.0,0.0,0.0,0.0,0.0,0.0,0.0,0.0,0.0,0.0,0.0,0.0,0.0,0.0,0.0,0.0,0.0,0.0,0.0,0.0,0.0,0.0,0.0,0.0,0.0,0.0,0.0,0.0,0.0,0.0,0.0,0.0,0.0,0.0,0.0,0.0,0.0,0.0,0.0,0.0,0.0,0.0,0.0,0.0,0.0,0.0,0.0,0.0,0.0,0.0,0.0,0.0,0.0,0.0,0.0,0.0,0.0,0.0,0.0,0.0,0.0,0.0,0.0,0.0,0.0,0.0,0.0,0.0,0.0,0.0,0.0,0.0,0.0,0.0,0.0,0.0,0.0,0.0,0.0,0.0,0.0,0.0,0.0,0.0,0.0,0.0,0.0,0.0,0.0,0.0,0.0,0.0,0.0,0.0,0.0,0.0,0.0,0.0,0.0,0.0,0.0,0.0093,0.0301,0.0986,0.1108,0.057,0.0255,0.0502,0.147,0.6601,0.0,0.0,0.0,0.0,0.0,0.0,0.0,0.0,0.0,0.0,0.0,0.0,0.0,0.0,0.0,0.0,0.0,0.0,0.0,0.0,0.0,0.0,0.0,0.0,0.0,0.0,0.0,0.0,0.0,0.0,0.0,0.0,0.0,0.0,0.0,0.0,0.0,0.0,0.0,0.0,0.0,0.0,0.0,0.0,0.0,0.0,0.0,0.0,0.0,0.0,0.0,0.0,0.0,0.0,0.0,0.0,0.0,0.0,0.0,0.0,0.0,0.0,0.0,0.0,0.0,0.0,0.0,0.0,0.0,0.0,0.0,0.0,0.0,0.0,0.0,0.0,0.0,0.0,0.0,0.0,0.0,0.0,0.0,0.0,0.0,0.0,0.0,0.0,0.0,0.0,0.0,0.0,0.0,0.0,0.0,0.0,0.0,0.0,0.0,0.0,0.0,0.0,0.0,0.0,0.0,0.0,0.053,0.0589,0.0965,0.1009,0.0661,0.0548,0.1175,0.2727,0.0,0.0,0.0,0.0,0.0,0.0,0.0,0.0,0.0,0.0,0.0,0.0,0.0,0.0,0.0,0.0,0.0,0.0,0.0,0.0,0.0,0.0,0.0,0.0,0.0,0.0,0.0,0.0,0.0,0.0,0.0,0.0,0.0,0.0,0.0,0.0,0.0,0.0,0.0,0.0,0.0,0.0,0.0,0.0,0.0,0.0,0.0,0.0,0.0,0.0,0.0,0.0,0.0,0.0,0.0,0.0,0.0,0.0,0.0,0.0,0.0,0.0,0.0,0.0,0.0,0.0,0.0,0.0,0.0,0.0,0.0,0.0,0.0,0.0,0.0,0.0,0.0,0.0,0.0,0.0,0.0,0.0,0.0,0.0,0.0,0.0,0.0,0.0,0.0,0.0,0.0,0.0,0.0,0.0,0.0,0.0,0.0,0.0,0.0,0.0,0.0,0.0,0.0,0.0,0.0,0.0,0.0,0.2031,0.2066,0.0749,0.0309,0.1018,0.1649,0.3352,0.6245,0.0,0.0,0.0,0.0,0.0,0.0,0.0,0.0,0.0,0.0,0.0,0.0,0.0,0.0,0.0,0.0,0.0,0.0,0.0,0.0,0.0,0.0,0.0,0.0,0.0,0.0,0.0,0.0,0.0,0.0,0.0,0.0,0.0,0.0,0.0,0.0,0.0,0.0,0.0,0.0,0.0,0.0,0.0,0.0,0.0,0.0,0.0,0.0,0.0,0.0,0.0,0.0,0.0,0.0,0.0,0.0,0.0,0.0,0.0,0.0,0.0,0.0,0.0,0.0,0.0,0.0,0.0,0.0,0.0,0.0,0.0,0.0,0.0,0.0,0.0,0.0,0.0,0.0,0.0,0.0,0.0,0.0,0.0,0.0,0.0,0.0,0.0,0.0,0.0,0.0,0.0,0.0,0.0,0.0,0.0,0.0,0.0,0.0,0.0,0.0,0.0,0.0,0.0,0.0,0.0,0.0,0.0633,0.1821,0.3505,0.2929,0.2307,0.1702,0.2514,0.4133,0.6565,0.0,0.0,0.0,0.0,0.0,0.0,0.0,0.0,0.0,0.0,0.0,0.0,0.0,0.0,0.0,0.0,0.0,0.0,0.0,0.0,0.0,0.0,0.0,0.0,0.0,0.0,0.0,0.0,0.0,0.0,0.0,0.0,0.0,0.0,0.0,0.0,0.0,0.0,0.0,0.0,0.0,0.0,0.0,0.0,0.0,0.0,0.0,0.0,0.0,0.0,0.0,0.0,0.0,0.0,0.0,0.0,0.0,0.0,0.0,0.0,0.0,0.0,0.0,0.0,0.0,0.0,0.0,0.0,0.0,0.0,0.0,0.0,0.0,0.0,0.0,0.0,0.0,0.0,0.0,0.0,0.0,0.0,0.0,0.0,0.0,0.0,0.0,0.0,0.0,0.0,0.0,0.0,0.0,0.0,0.0,0.0,0.0,0.0,0.0,0.0,0.0,0.0,0.0,0.0,0.0,0.0,0.0351,0.1587,0.3633,0.3818,0.3427,0.2658,0.3323,0.4706,0.6782,0.0,0.0,0.0,0.0,0.0,0.0,0.0,0.0,0.0,0.0,0.0,0.0,0.0,0.0,0.0,0.0,0.0,0.0,0.0,0.0,0.0,0.0,0.0,0.0,0.0,0.0,0.0,0.0,0.0,0.0,0.0,0.0,0.0,0.0,0.0,0.0,0.0,0.0,0.0,0.0,0.0,0.0,0.0,0.0,0.0,0.0,0.0,0.0,0.0,0.0,0.0,0.0,0.0,0.0,0.0,0.0,0.0,0.0,0.0,0.0,0.0,0.0,0.0,0.0,0.0,0.0,0.0,0.0,0.0,0.0,0.0,0.0,0.0,0.0,0.0,0.0,0.0,0.0,0.0,0.0,0.0,0.0,0.0,0.0,0.0,0.0,0.0,0.0,0.0,0.0,0.0,0.0,0.0,0.0,0.0,0.0,0.0,0.0,0.0,0.0,0.0,0.0,0.0,0.0,0.0,0.0,0.1201,0.1892,0.2063,0.2207,0.2714,0.3678,0.4148,0.5404,0.7594,0.0,0.0,0.0,0.0,0.0,0.0,0.0,0.0,0.0,0.0,0.0,0.0,0.0,0.0,0.0,0.0,0.0,0.0,0.0,0.0,0.0,0.0,0.0,0.0,0.0,0.0,0.0,0.0,0.0,0.0,0.0,0.0,0.0,0.0,0.0,0.0,0.0,0.0,0.0,0.0,0.0,0.0,0.0,0.0,0.0,0.0,0.0,0.0,0.0,0.0,0.0,0.0,0.0,0.0,0.0,0.0,0.0,0.0,0.0,0.0,0.0,0.0,0.0,0.0,0.0,0.0,0.0,0.0,0.0,0.0,0.0,0.0,0.0,0.0,0.0,0.0,0.0,0.0,0.0,0.0,0.0,0.0,0.0,0.0,0.0,0.0,0.0,0.0,0.0,0.0,0.0,0.0,0.0,0.0,0.0,0.0,0.0,0.0,0.0,0.0,0.0,0.0,0.0,0.0,0.0,0.0,0.0466,0.1499,0.3091,0.3348,0.3511,0.3686,0.3668,0.5057,0.7994,0.0,0.0,0.0,0.0,0.0,0.0,0.0,0.0,0.0,0.0,0.0,0.0,0.0,0.0,0.0,0.0,0.0,0.0,0.0,0.0,0.0,0.0,0.0,0.0,0.0,0.0,0.0,0.0,0.0,0.0,0.0,0.0,0.0,0.0,0.0,0.0,0.0,0.0,0.0,0.0,0.0,0.0,0.0,0.0,0.0,0.0,0.0,0.0,0.0,0.0,0.0,0.0,0.0,0.0,0.0,0.0,0.0,0.0,0.0,0.0,0.0,0.0,0.0,0.0,0.0,0.0,0.0,0.0,0.0,0.0,0.0,0.0,0.0,0.0,0.0,0.0,0.0,0.0,0.0,0.0,0.0,0.0,0.0,0.0,0.0,0.0,0.0,0.0,0.0,0.0,0.0,0.0,0.0,0.0,0.0,0.0,0.0,0.0,0.0,0.0,0.0,0.0,0.0,0.0,0.0,0.0,0.0379,0.144,0.3146,0.351,0.3494,0.314,0.3648,0.5212,0.0,0.0,0.0,0.0,0.0,0.0,0.0,0.0,0.0,0.0,0.0,0.0,0.0,0.0,0.0,0.0,0.0,0.0,0.0,0.0,0.0,0.0,0.0,0.0,0.0,0.0,0.0,0.0,0.0,0.0,0.0,0.0,0.0,0.0,0.0,0.0,0.0,0.0,0.0,0.0,0.0,0.0,0.0,0.0,0.0,0.0,0.0,0.0,0.0,0.0,0.0,0.0,0.0,0.0,0.0,0.0,0.0,0.0,0.0,0.0,0.0,0.0,0.0,0.0,0.0,0.0,0.0,0.0,0.0,0.0,0.0,0.0,0.0,0.0,0.0,0.0,0.0,0.0,0.0,0.0,0.0,0.0,0.0,0.0,0.0,0.0,0.0,0.0,0.0,0.0,0.0,0.0,0.0,0.0,0.0,0.0,0.0,0.0,0.0,0.0,0.0,0.0,0.0,0.0,0.0,0.0,0.0,0.119,0.1833,0.186,0.2416,0.2708,0.2284,0.4427,0.6155,0.0,0.0,0.0,0.0,0.0,0.0,0.0,0.0,0.0,0.0,0.0,0.0,0.0,0.0,0.0,0.0,0.0,0.0,0.0,0.0,0.0,0.0,0.0,0.0,0.0,0.0,0.0,0.0,0.0,0.0,0.0,0.0,0.0,0.0,0.0,0.0,0.0,0.0,0.0,0.0,0.0,0.0,0.0,0.0,0.0,0.0,0.0,0.0,0.0,0.0,0.0,0.0,0.0,0.0,0.0,0.0,0.0,0.0,0.0,0.0,0.0,0.0,0.0,0.0,0.0,0.0,0.0,0.0,0.0,0.0,0.0,0.0,0.0,0.0,0.0,0.0,0.0,0.0,0.0,0.0,0.0,0.0,0.0,0.0,0.0,0.0,0.0,0.0,0.0,0.0,0.0,0.0,0.0,0.0,0.0,0.0,0.0,0.0,0.0,0.0,0.0,0.0,0.0,0.0,0.0,0.0,0.0,0.2036,0.2712,0.2782,0.3526,0.527,0.8017,0.7829,0.8948,1.1588,0.0,0.0,0.0,0.0,0.0,0.0,0.0,0.0,0.0,0.0,0.0,0.0,0.0,0.0,0.0,0.0,0.0,0.0,0.0,0.0,0.0,0.0,0.0,0.0,0.0,0.0,0.0,0.0,0.0,0.0,0.0,0.0,0.0,0.0,0.0,0.0,0.0,0.0,0.0,0.0,0.0,0.0,0.0,0.0,0.0,0.0,0.0,0.0,0.0,0.0,0.0,0.0,0.0,0.0,0.0,0.0,0.0,0.0,0.0,0.0,0.0,0.0,0.0,0.0,0.0,0.0,0.0,0.0,0.0,0.0,0.0,0.0,0.0,0.0,0.0,0.0,0.0,0.0,0.0,0.0,0.0,0.0,0.0,0.0,0.0,0.0,0.0,0.0,0.0,0.0,0.0,0.0,0.0,0.0,0.0,0.0,0.0,0.0,0.0,0.0,0.0,0.0,0.0,0.0,0.0,0.0,0.3866,0.5468,0.6503,0.646,0.7679,1.0387,1.0393,1.1772,1.4692,0.0,0.0,0.0,0.0,0.0,0.0,0.0,0.0,0.0,0.0,0.0,0.0,0.0,0.0,0.0,0.0,0.0,0.0,0.0,0.0,0.0,0.0,0.0,0.0,0.0,0.0,0.0,0.0,0.0,0.0,0.0,0.0,0.0,0.0,0.0,0.0,0.0,0.0,0.0,0.0,0.0,0.0,0.0,0.0,0.0,0.0,0.0,0.0,0.0,0.0,0.0,0.0,0.0,0.0,0.0,0.0,0.0,0.0,0.0,0.0,0.0,0.0,0.0,0.0,0.0,0.0,0.0,0.0,0.0,0.0,0.0,0.0,0.0,0.0,0.0,0.0,0.0,0.0,0.0,0.0,0.0,0.0,0.0,0.0,0.0,0.0,0.0,0.0,0.0,0.0,0.0,0.0,0.0,0.0,0.0,0.0,0.0,0.0,0.0,0.0,0.0,0.0,0.0,0.0,0.0,0.0,0.0,0.9485,1.2383,1.103,1.0403,1.0482,1.2472,1.4668,1.6869,0.0,0.0,0.0,0.0,0.0,0.0,0.0,0.0,0.0,0.0,0.0,0.0,0.0,0.0,0.0,0.0,0.0,0.0,0.0,0.0,0.0,0.0,0.0,0.0,0.0,0.0,0.0,0.0,0.0,0.0,0.0,0.0,0.0,0.0,0.0,0.0,0.0,0.0,0.0,0.0,0.0,0.0,0.0,0.0,0.0,0.0,0.0,0.0,0.0,0.0,0.0,0.0,0.0,0.0,0.0,0.0,0.0,0.0,0.0,0.0,0.0,0.0,0.0,0.0,0.0,0.0,0.0,0.0,0.0,0.0,0.0,0.0,0.0,0.0,0.0,0.0,0.0,0.0,0.0,0.0,0.0,0.0,0.0,0.0,0.0,0.0,0.0,0.0,0.0,0.0,0.0,0.0,0.0,0.0,0.0,0.0,0.0,0.0,0.0,0.0,0.0,0.0,0.0,0.0,0.0,0.0,0.642,1.0249,1.4973,1.7601,1.8581,1.7906,1.7576,1.8534,2.083,0.0,0.0,0.0,0.0,0.0,0.0,0.0,0.0,0.0,0.0,0.0,0.0,0.0,0.0,0.0,0.0,0.0,0.0,0.0,0.0,0.0,0.0,0.0,0.0,0.0,0.0,0.0,0.0,0.0,0.0,0.0,0.0,0.0,0.0,0.0,0.0,0.0,0.0,0.0,0.0,0.0,0.0,0.0,0.0,0.0,0.0,0.0,0.0,0.0,0.0,0.0,0.0,0.0,0.0,0.0,0.0,0.0,0.0,0.0,0.0,0.0,0.0,0.0,0.0,0.0,0.0,0.0,0.0,0.0,0.0,0.0,0.0,0.0,0.0,0.0,0.0,0.0,0.0,0.0,0.0,0.0,0.0,0.0,0.0,0.0,0.0,0.0,0.0,0.0,0.0,0.0,0.0,0.0,0.0,0.0,0.0,0.0,0.0,0.0,0.0,0.0,0.0,0.0,0.0,0.0,0.0,0.8557,1.3004,1.8583,2.2927,2.5582,2.6336,2.4858,2.3885,2.3682,0.0,0.0,0.0,0.0,0.0,0.0,0.0,0.0,0.0,0.0,0.0,0.0,0.0,0.0,0.0,0.0,0.0,0.0,0.0,0.0,0.0,0.0,0.0,0.0,0.0,0.0,0.0,0.0,0.0,0.0,0.0,0.0,0.0,0.0,0.0,0.0,0.0,0.0,0.0,0.0,0.0,0.0,0.0,0.0,0.0,0.0,0.0,0.0,1.4866,0.0,0.0,0.0,0.0,0.0,0.0,0.0,0.0,0.0,0.0,0.0,0.0,0.0,0.0,0.0,0.0,0.0,0.0,0.0,0.0,0.0,0.0,0.0,0.0,0.0,0.0,0.0,0.0,0.0,0.0,0.0,0.0,0.0,0.0,0.0,0.0,0.0,0.0,0.0,0.0,0.0,0.0,0.0,0.0,0.0,0.0,0.0,0.0,0.0,0.0,0.0,0.0,0.0,0.0,0.0,0.3567,0.7794,1.2163,1.7049,2.2627,2.743,3.139,3.436,3.2572,2.9819,2.6296,0.0,0.0,0.0,0.0,0.0,0.0,0.0,0.0,0.0,0.0,0.0,0.0,0.0,0.0,0.0,0.0,0.0,0.0,0.0,0.0,0.0,0.0,0.0,0.0,0.0,0.0,0.0,0.0,0.0,0.0,0.0,0.0,0.0,0.0,0.0,0.0,0.0,0.0,0.0,0.0,0.0,0.0,0.0,0.0,0.0,0.0,0.0,1.3936,1.5176,0.0,0.0,0.0,0.0,0.0,0.0,0.0,0.0,0.0,0.0,0.0,0.0,0.0,0.0,0.0,0.0,0.0,0.0,0.0,0.0,0.0,0.0,0.0,0.0,0.0,0.0,0.0,-0.0649,0.0,0.1645,0.0,0.0,0.0,0.0,0.0,0.0,0.0,0.0,0.0,0.0,0.0,0.0,0.0,0.0,0.0,0.0,0.0,0.0,0.0,0.0,0.0,0.0,0.0,0.0,0.4087,0.723,1.3209,1.718,2.1583,2.6587,3.1444,3.5294,3.8108,3.5609,3.3029,3.055,0.0,0.0,0.0,0.0,0.0,0.0,0.0,0.0,0.0,0.0,0.0,0.0,0.0,0.0,0.0,0.0,0.0,0.0,0.0,0.0,0.0,0.0,0.0,0.0,0.0,0.0,0.0,0.0,0.0,0.0,0.0,0.0,0.0,0.0,0.0,0.0,0.0,0.0,0.0,0.0,0.0,0.0,0.0,0.0,0.0,0.0,0.0,1.5488,0.0,0.0,0.0,0.0,0.0,0.0,0.0,0.0,0.0,0.0,0.0,0.0,0.0,0.0,0.0,0.0,0.0,0.0,0.0,0.0,0.0,0.0,0.0,0.0,0.0,0.0,0.0,0.0,-0.0833,-0.0505,0.086,0.0,0.0,0.0,0.0,0.0,0.0,0.0,0.0,0.0,0.0,0.0,0.0,0.0,0.0,0.0,0.0,0.0,0.0,0.0,0.0,0.0,0.0,0.0,0.3564,0.5448,0.947,1.5649,2.0457,2.5452,3.069,3.5146,3.8718,4.1237,4.0423,3.789,3.3658,0.0,0.0,0.0,0.0,0.0,0.0,0.0,0.0,0.0,0.0,0.0,0.0,0.0,0.0,0.0,0.0,0.0,0.0,0.0,0.0,0.0,0.0,0.0,0.0,0.0,0.0,0.0,0.0,0.0,0.0,0.0,0.0,0.0,0.0,0.0,0.0,0.0,-0.5681,0.0324,0.0,0.0,0.0,0.0,0.0,0.0,0.0,0.0,1.6795,2.0378,0.0,0.0,0.0,0.0,0.0,0.0,0.0,0.0,0.0,0.0,0.0,0.0,0.0,0.0,0.0,0.0,0.0,0.0,0.0,0.0,0.0,0.0,0.0,0.0,0.0,0.0,0.0,-0.0637,-0.0953,0.0337,0.0,0.0,0.0,0.0,0.0,0.0,0.0,0.0,0.0,0.0,0.0,0.0,0.0,0.0,0.0,0.0,0.0,0.0,0.0,0.0,0.0,0.0,0.0,0.3152,0.6322,1.1304,1.7904,2.3297,2.8929,3.4836,3.8652,4.1818,4.4315,4.5104,4.2527,3.6328,0.0,0.0,0.0,0.0,0.0,0.0,0.0,0.0,0.0,0.0,0.0,0.0,0.0,0.0,0.0,0.0,0.0,0.0,0.0,0.0,0.0,0.0,0.0,0.0,0.0,0.0,0.0,0.0,0.0,0.0,0.0,0.0,0.0,0.0,0.0,0.0,0.0,0.5546,0.975,2.6143,3.5382,0.0,0.0,0.0,0.0,0.0,0.0,0.0,2.1352,2.4145,2.5983,0.0,0.0,0.0,0.0,0.0,0.0,0.0,0.0,0.0,0.0,0.0,0.0,0.0,0.0,0.0,0.0,0.0,0.0,0.0,0.0,0.0,0.0,0.0,0.0,0.0,-0.0245,-0.081,0.002,0.0,0.0,0.0,0.0,0.0,0.0,0.0,0.0,0.0,0.0,0.0,0.0,0.0,0.0,0.0,0.0,0.0,0.0,0.0,0.0,0.0,0.0,0.0,0.0,0.8382,1.3994,2.4376,2.7277,3.2048,3.8868,4.2047,4.4739,4.693,4.6511,4.4009,3.9376,3.4353,0.0,0.0,0.0,0.0,0.0,0.0,0.0,0.0,0.0,0.0,0.0,0.0,0.0,0.0,0.0,0.0,0.0,0.0,0.0,0.0,0.0,0.0,0.0,0.0,0.0,0.0,0.0,0.0,0.0,0.0,0.0,0.0,0.0,0.0,0.0,0.0,1.4274,2.7597,3.6577,3.9035,3.1346,0.0,0.0,0.0,0.0,0.0,2.3021,2.2142,2.2051,2.5224,2.2733,0.0,0.0,0.0,0.0,0.0,0.0,0.0,0.0,0.0,0.0,0.0,0.0,0.0,0.0,0.0,0.0,0.0,0.0,0.0,0.0,0.0,0.0,0.0,0.0,0.094,-0.0023,0.0092,0.1761,0.4365,0.0,0.0,0.0,0.0,0.9852,0.0,0.0,0.0,0.0,0.0,0.0,0.0,0.0,0.0,0.0,0.0,0.0,0.0,0.0,0.0,0.0,0.0,1.0851,1.7008,2.5663,3.0369,3.5645,4.1669,4.3968,4.6074,4.8071,4.5949,4.3161,3.9873,0.0,0.0,0.0,0.0,0.0,0.0,0.0,0.0,0.0,0.0,0.0,0.0,0.0,0.0,0.0,0.0,0.0,0.0,0.0,0.0,0.0,0.0,0.0,0.0,0.0,0.0,0.0,0.0,0.0,0.0,0.0,0.0,0.0,0.0,0.0,0.0,0.0,0.0,3.1147,3.8474,4.0376,3.3433,2.9822,2.6483,2.2888,2.1432,2.2076,2.5831,2.4753,2.405,2.5812,0.0,0.0,0.0,0.0,0.0,0.0,0.0,0.0,0.0,0.0,0.0,0.0,0.0,0.0,0.0,0.0,0.0,0.0,0.0,0.0,0.0,0.0,0.0,0.0,0.0,0.0,0.1042,0.0476,0.202,0.4616,0.7862,0.0,0.0,0.0,1.101,1.1091,0.0,0.0,0.0,0.0,0.0,0.0,0.0,0.0,0.0,0.0,0.0,0.0,0.0,0.0,0.0,0.0,1.2886,1.9472,2.6556,3.2778,3.8617,4.3966,4.5731,4.7277,4.8821,4.5628,4.2495,3.9524,0.0,0.0,0.0,0.0,0.0,0.0,0.0,0.0,0.0,0.0,0.0,0.0,0.0,0.0,0.0,0.0,0.0,0.0,0.0,0.0,0.0,0.0,0.0,0.0,0.0,0.0,0.0,0.0,0.0,0.0,0.0,0.0,0.0,0.0,0.0,0.0,0.0,0.0,0.0,3.6791,3.9756,3.4781,3.1941,2.9526,2.7355,2.6059,2.6358,2.9164,2.9134,2.839,0.0,0.0,0.0,0.0,0.0,0.0,0.0,0.0,0.0,0.0,0.0,0.0,0.0,0.0,0.0,0.0,0.0,0.0,0.0,0.0,0.0,0.0,1.1278,0.9752,0.0,0.0,0.3682,0.2335,0.1446,0.2971,0.4712,0.6506,0.8346,0.9468,0.0,1.1029,1.1441,1.158,0.0,0.0,0.0,0.0,0.0,0.0,0.0,0.0,0.0,0.0,0.0,0.0,0.0,0.0,0.0,0.0,1.9967,2.9214,3.4017,3.963,4.5954,4.8198,4.9438,4.9728,4.7532,4.4083,3.9154,0.0,0.0,0.0,0.0,0.0,0.0,0.0,0.0,0.0,0.0,0.0,0.0,0.0,0.0,0.0,0.0,0.0,0.0,0.0,0.0,0.0,0.0,0.0,0.0,0.0,0.862,0.0,0.0,0.0,0.0,0.0,0.0,0.0,0.0,0.0,0.0,0.0,0.0,0.0,0.0,3.6441,3.4302,3.351,3.2787,3.1845,3.1666,3.2593,3.5413,3.6328,3.5277,0.0,0.0,0.0,0.0,0.0,0.0,0.0,0.0,0.0,0.0,0.0,0.0,0.0,0.0,0.0,0.0,0.0,0.0,0.0,0.0,0.0,0.0,1.1244,1.0555,0.8523,0.5771,0.486,0.3768,0.2734,0.4032,0.5667,0.7415,0.8835,0.9835,1.0475,1.1253,1.179,1.2231,0.0,0.0,0.0,0.0,0.0,0.0,0.0,0.0,0.0,0.0,0.0,0.0,0.4274,0.643,1.0269,1.6239,2.3284,3.1278,3.7073,4.2587,4.7826,4.8984,4.9709,5.0153,4.6302,4.2427,0.0,0.0,0.0,0.0,0.0,0.0,0.0,0.0,0.0,0.0,0.0,0.0,0.0,0.0,0.0,0.0,0.0,0.0,0.0,0.0,0.0,0.0,0.0,0.0,0.0,0.3204,0.7287,1.3423,0.0,0.0,0.0,0.0,0.0,0.0,0.0,0.0,0.0,0.0,0.0,0.0,0.0,3.6998,3.5941,3.6007,3.6247,3.6505,3.671,3.747,3.9373,3.9184,3.7257,0.0,0.0,0.0,0.0,0.0,0.0,0.0,0.0,0.0,0.0,0.0,0.0,0.0,0.0,0.0,0.0,0.0,0.0,1.3104,1.2744,1.2697,1.2052,1.11,1.0795,0.9119,0.6545,0.5816,0.4985,0.4177,0.5356,0.6818,0.8415,0.9598,1.0431,1.0917,1.1341,1.1822,1.2448,1.3463,0.0,0.0,0.0,0.0,0.0,0.0,0.0,0.0,0.0,0.0,0.4667,0.513,0.7522,1.1829,1.9031,2.6312,3.3279,3.9732,4.5076,4.9052,4.9417,4.9828,5.0284,4.5395,4.1277,0.0,0.0,0.0,0.0,0.0,0.0,0.0,0.0,0.0,0.0,0.0,0.0,0.0,0.0,0.0,0.0,0.0,0.0,0.0,0.0,0.0,0.0,0.0,0.2693,0.1919,0.3441,0.7379,1.3925,1.6428,0.0,2.3348,0.0,0.0,0.0,0.0,0.0,0.0,0.0,0.0,0.0,0.0,3.8158,3.8493,3.9358,4.0444,4.1681,4.1905,4.2292,4.3159,4.2622,4.005,0.0,0.0,0.0,0.0,0.0,0.0,0.0,0.0,0.0,0.0,0.0,0.0,0.0,0.0,0.0,0.0,0.0,0.0,1.3831,1.3218,1.2588,1.1818,1.1056,1.0173,0.9139,0.7921,0.6578,0.5851,0.5885,0.7138,0.8049,0.8706,1.0483,1.1073,1.0821,1.1169,1.1473,1.1696,1.3053,0.0,0.0,0.0,0.0,0.0,0.0,0.0,0.0,0.0,0.0,0.574,0.5929,0.8624,1.3848,2.0597,2.7739,3.5204,4.1277,4.6018,4.9315,5.0043,5.0322,5.0253,4.6323,4.2014,0.0,0.0,0.0,0.0,0.0,0.0,0.0,0.0,0.0,0.0,0.0,0.0,0.0,0.0,0.0,0.0,0.0,0.0,0.0,0.0,0.0,0.0,0.0,0.0,0.5914,0.6346,0.9333,1.6127,1.7126,1.9284,2.3687,0.0,0.0,0.0,0.0,0.0,0.0,0.0,0.0,0.0,0.0,3.9049,4.1751,4.3907,4.5844,4.7675,4.7804,4.7604,4.7504,4.8456,4.5957,3.6111,3.6417,3.5901,0.0,0.0,0.0,0.0,0.0,0.0,0.0,0.0,0.0,0.0,0.0,0.0,0.0,0.0,0.0,1.5023,1.3951,1.3689,1.2787,1.1513,1.0922,0.9798,0.836,0.7534,0.7298,0.7569,0.8703,0.9685,1.0481,1.1528,1.1885,1.1697,1.1723,1.204,1.2794,1.6253,0.0,0.0,0.0,0.0,0.0,0.0,0.0,0.0,0.0,0.0,0.6014,0.6571,0.9362,1.4482,2.2134,2.9488,3.6349,4.2595,4.739,5.0514,5.0852,5.0859,5.0563,4.7305,4.3008,3.7576,0.0,0.0,0.0,0.0,0.0,0.0,0.0,0.0,0.0,0.0,0.0,0.0,0.0,0.0,0.0,0.0,0.0,0.0,0.0,0.0,0.0,0.0,0.0,0.0,1.255,1.5435,2.1549,2.1575,2.2339,2.5162,2.4241,0.0,0.0,0.0,0.0,0.0,0.0,0.0,4.1225,0.0,4.3935,4.6617,4.8308,4.9623,5.0492,5.0566,5.0598,5.0781,4.8334,4.5153,4.1349,3.7978,3.3626,2.7267,0.0,0.0,0.0,0.0,0.0,0.0,0.0,0.0,0.0,0.0,0.0,0.0,0.0,0.0,1.6243,1.5225,1.4649,1.3601,1.2259,1.1592,1.0448,0.8995,0.8229,0.8158,0.8669,0.9862,1.0853,1.1678,1.2385,1.253,1.2257,1.2026,1.3004,1.5416,2.0349,2.2474,0.0,0.0,0.0,0.0,0.0,0.0,0.0,0.0,0.0,0.6638,0.7407,1.0413,1.5683,2.3675,3.1181,3.8049,4.4053,4.8638,5.1714,5.1343,5.1117,5.0867,4.7729,4.3543,3.8372,0.0,0.0,0.0,0.0,1.1256,0.0,0.0,0.0,0.0,0.0,0.0,0.0,0.0,0.0,0.0,0.0,0.0,0.0,0.0,0.0,0.0,0.0,0.0,0.0,0.0,1.9806,2.3169,2.3651,2.4129,2.5219,2.373,2.2758,2.3065,0.0,0.0,0.0,0.0,0.0,0.0,4.7868,4.8237,5.0854,5.1986,5.2672,5.3101,5.2333,5.1697,5.1651,4.8277,4.4945,4.2746,3.8383,3.3597,2.8492,3.0042,2.8985,1.939,1.8056,1.7908,1.6045,0.0,0.0,0.0,0.0,0.0,0.0,0.0,0.0,1.7452,1.6938,1.5236,1.417,1.3401,1.2119,1.1289,1.0677,0.904,0.8821,0.9133,1.0612,1.1503,1.2079,1.2931,1.2934,1.2306,1.1939,1.4321,1.917,2.5273,2.7207,2.5724,2.6007,2.4315,2.1198,1.7434,1.4175,1.165,0.9693,0.8532,0.7835,0.846,1.1928,1.7943,2.5279,3.2791,4.0518,4.5663,4.9637,5.2419,5.1449,5.1022,5.1347,4.7319,4.3367,3.9697,0.0,0.0,0.0,0.0,1.2031,0.0,0.0,0.0,0.0,0.0,0.0,0.0,0.0,0.0,0.0,0.0,0.0,0.0,0.0,0.0,0.0,0.0,0.0,0.0,0.0,2.0844,1.9835,2.2243,2.3746,2.3209,2.2391,2.2808,0.0,0.0,0.0,0.0,0.0,3.8384,5.3944,5.275,5.1289,5.4081,5.4716,5.508,5.5706,5.3223,5.0809,4.9755,4.922,4.6405,3.9454,3.8664,0.0,0.0,0.0,0.0,0.0,0.0,0.0,0.0,0.0,0.0,0.0,0.0,0.0,0.0,0.0,0.0,2.0228,1.8546,1.6999,1.6436,1.639,1.4828,1.5558,1.7618,1.6207,1.5624,1.5786,1.6348,1.5604,1.4052,1.406,1.4056,1.4218,1.6313,1.9325,2.3332,2.9091,3.1484,3.0915,3.2079,3.0528,2.6627,2.3186,1.8723,1.3658,1.259,1.1121,0.9318,1.0379,1.3901,1.9507,2.7533,3.485,4.1288,4.667,5.0341,5.2186,5.1687,5.1317,5.1004,4.8577,4.3889,3.682,2.9879,0.0,0.0,1.7285,1.5343,0.0,0.0,0.0,0.0,0.0,0.0,0.0,0.0,0.0,0.0,0.0,0.0,0.0,0.0,0.0,0.0,0.0,0.0,0.0,0.0,2.1277,2.0983,2.2335,2.2561,2.0892,2.1495,2.3692,2.771,3.0185,3.0784,2.8916,3.0871,3.8444,5.4757,5.5781,5.5541,5.6998,5.7186,5.6884,5.5988,5.4764,5.3391,5.1931,4.8096,4.5904,4.7529,4.3246,3.9621,3.9772,3.1641,2.6965,3.2882,3.5026,3.3399,2.5332,2.2773,2.1772,2.1657,2.1226,2.1037,2.1513,1.8575,1.5736,2.3391,2.1401,1.9611,1.9376,2.0039,1.8658,1.9812,2.2573,2.109,2.0751,2.1258,2.1069,1.9706,1.7525,1.7213,1.706,1.7484,2.2503,2.6168,2.9071,3.5284,3.7769,3.6886,3.7959,3.6117,3.1685,2.9629,2.5346,1.9092,1.6022,1.3599,1.1669,1.2878,1.6455,2.2535,2.9802,3.6864,4.3526,4.8218,5.1267,5.2669,5.2236,5.162,5.0914,4.833,4.3586,3.6569,3.2434,2.8312,0.0,2.1405,0.0,0.0,0.0,0.0,0.0,0.0,0.0,0.0,0.0,0.0,0.0,0.0,0.0,0.0,0.0,0.0,0.0,0.0,0.0,0.0,1.8163,2.0851,2.122,2.1784,2.1503,2.006,2.308,2.6918,3.1258,3.5449,3.8235,3.8772,3.7855,4.2364,5.6404,5.7138,5.6992,5.8792,5.8027,5.699,5.6099,5.495,5.3795,5.2568,4.9082,4.7341,4.9774,4.6794,4.4361,4.5271,3.8499,3.4479,3.9328,4.1984,4.0479,3.1038,2.842,2.7642,2.7486,2.7544,2.7643,2.7821,2.5707,2.3729,2.7238,2.5626,2.3313,2.2899,2.4023,2.3452,2.4065,2.5324,2.3683,2.4152,2.5609,2.4802,2.3555,2.2245,2.1942,2.1744,2.21,2.9814,3.4248,3.5938,4.3339,4.5693,4.3227,4.3238,4.0864,3.6483,3.626,3.3244,2.7421,2.0126,1.6065,1.5438,1.6013,1.981,2.6872,3.2194,3.8866,4.7191,5.0264,5.2441,5.3863,5.2981,5.203,5.1069,4.6709,4.271,3.9124,3.6128,3.2159,2.7173,2.5273,0.0,0.0,0.0,0.0,0.0,0.0,0.0,0.0,0.0,0.0,0.0,0.0,0.0,0.0,0.0,0.0,0.0,0.0,0.0,1.6286,1.8334,2.0017,2.0912,2.1151,2.1234,2.1786,2.7197,3.2441,3.6022,4.056,4.4361,4.6212,4.6318,4.9919,5.9139,5.7125,5.604,5.9564,5.7574,5.5881,5.6325,5.4155,5.232,5.177,5.2028,5.0543,4.5683,4.8947,5.1893,5.1264,4.9249,4.6232,4.2723,4.5563,4.6669,4.141,3.7785,3.5873,3.5798,3.5133,3.4707,3.4451,3.3404,3.2364,3.5622,3.1046,2.9239,2.9281,3.0335,2.9507,3.119,3.4311,3.3203,3.2382,3.1706,3.0927,2.8706,2.5712,2.4837,2.5644,2.7851,3.3224,3.7274,4.0358,4.5312,4.7436,4.7127,4.6513,4.4626,4.1658,3.8955,3.623,3.3369,2.9568,2.4614,1.8846,2.1722,2.5213,2.9444,3.6785,4.3325,4.8601,5.2029,5.3795,5.3836,5.3291,5.2034,5.0124,4.7396,4.4593,4.1912,4.0084,3.6873,3.2119,2.9997,0.0,2.1776,0.0,0.0,0.0,0.0,1.1003,1.0879,0.9168,0.0,0.0,0.0,1.1909,0.0,0.0,0.0,0.0,1.1344,1.3838,2.2082,2.3367,2.5277,2.9198,2.7053,2.7358,3.2386,3.5835,3.9798,4.4743,4.8273,5.1152,5.3156,4.9253,4.9727,5.895,6.1429,6.2018,6.1064,5.9946,5.9178,5.9134,5.8132,5.7037,5.6081,5.3453,5.1919,5.3087,5.4475,5.5666,5.692,5.3158,5.0064,5.0136,5.1729,5.1851,4.8505,4.3818,4.0908,4.109,4.0896,4.0855,4.13,4.0965,4.0083,4.3632,3.9665,3.5668,3.4761,3.5951,3.542,3.7118,4.0086,3.879,3.8003,3.7616,3.6063,3.3779,3.0969,3.0166,3.1464,3.4666,3.8843,4.261,4.6067,4.8866,5.024,5.0322,4.9094,4.7362,4.524,4.1741,3.9558,3.8412,3.6365,3.265,2.7513,2.8798,3.1331,3.4933,4.1018,4.6377,5.0845,5.3347,5.458,5.4592,5.3304,5.1755,4.9932,4.7625,4.5537,4.3763,4.2372,3.995,3.644,3.442,3.0931,0.0,2.2024,1.8708,1.5702,1.2796,1.1047,1.0567,0.8856,0.0,0.0,1.1779,1.3363,1.0334,0.0,0.0,1.6355,1.7167,2.3974,3.8477,3.5932,3.4686,3.7907,3.5927,3.5962,4.0154,4.4614,4.8914,5.3059,5.6499,5.8974,6.0064,5.799,5.8116,6.2897,6.5449,6.6012,6.38,6.2254,6.1462,6.1883,6.13,6.0469,5.9587,5.7033,5.553,5.6505,5.7526,5.8689,6.0464,5.7221,5.4704,5.536,5.6478,5.6619,5.4303,5.0816,4.792,4.6813,4.6707,4.6857,4.703,4.7245,4.6613,5.0704,4.9631,4.2409,4.0066,4.1173,4.1086,4.1955,4.3215,4.1545,4.1642,4.2802,4.028,3.8578,3.7673,3.7231,3.8762,4.1973,4.5914,4.922,5.2135,5.3314,5.3585,5.297,5.1052,4.9262,4.7581,4.4661,4.3015,4.259,4.1138,3.9956,3.904,3.6996,3.8149,4.2385,4.4902,4.8626,5.3583,5.4343,5.5044,5.5707,5.312,5.1338,5.0373,4.7799,4.5856,4.4808,4.3457,4.1884,3.998,3.8222,3.4836,2.9576,2.57,2.1382,1.6545,1.3397,1.126,1.0293,0.8636,0.7123,0.6222,1.2661,1.5853,1.2936,1.9112,2.2655,2.1476,2.6756,3.8336,5.7929,5.1472,4.6113,4.625,4.606,4.6158,4.6507,5.3404,5.881,6.0721,6.4665,6.7158,6.6718,6.9889,7.1459,6.9439,6.9014,6.8524,6.7295,6.4604,6.3182,6.4471,6.3842,6.3038,6.263,6.1826,6.0419,5.8047,5.9023,6.1371,6.2872,6.1422,5.9565,5.8694,6.0055,6.0667,5.8739,5.7757,5.6802,5.2723,5.2371,5.2465,5.1738,5.2095,5.1633,5.3021,5.2858,5.0076,4.8064,4.6781,4.6344,4.6404,4.648,4.5401,4.4653,4.4056,4.3035,4.2396,4.2141,4.4009,4.5734,4.7309,5.0459,5.2573,5.3991,5.4941,5.5108,5.4477,5.2582,5.1106,4.9737,4.7204,4.5677,4.5153,4.4918,4.4872,4.5136,4.6147,4.5896,4.4404,4.8379,5.1731,5.4267,5.5237,5.5562,5.5169,5.35,5.2045,5.0961,4.9506,4.7637,4.5277,4.4628,4.334,4.1081,3.9542,3.74,3.4363,2.8298,2.3794,2.1407,1.5629,1.2026,1.1399,0.9944,0.8316,0.6593,1.6224,1.9546,1.3358,2.3404,2.928,2.7708,3.2481,3.8037,4.3487,4.7774,5.0889,5.2351,5.2136,5.4468,6.0689,6.3107,6.4818,6.6305,7.0093,7.2124,7.08,7.3697,7.5259,7.3442,7.1926,7.0611,6.938,6.7454,6.6269,6.6968,6.7171,6.6958,6.6067,6.5572,6.4519,6.2271,6.3557,6.5197,6.6176,6.4071,6.2345,6.2641,6.3349,6.3049,6.1076,6.0529,6.0215,5.8984,5.7517,5.6174,5.5871,5.5568,5.4655,5.5199,5.5144,5.4365,5.3245,5.1799,5.0146,4.9379,4.9198,4.8163,4.734,4.6676,4.6618,4.6716,4.7108,4.9321,5.0888,5.1962,5.3919,5.541,5.6385,5.6149,5.5967,5.5688,5.3155,5.1671,5.1096,4.8561,4.7284,4.7338,4.7491,4.7913,4.8537,5.066,5.0846,4.922,5.1817,5.3873,5.5084,5.5658,5.5745,5.5263,5.3274,5.1581,5.0232,4.8207,4.5925,4.3362,4.2449,4.1372,4.008,3.8463,3.6758,3.4751,2.9928,2.6062,2.3557,1.8956,1.5787,1.4739,1.5325,1.5012,1.3211,1.893,2.1676,2.0073,2.9597,3.8137,4.3278,4.3943,4.562,4.9517,5.4257,5.7906,5.9733,6.0767,6.3035,6.7356,6.8418,6.9283,7.0419,7.2222,7.3317,7.3155,7.4132,7.4566,7.3554,7.2522,7.1628,7.0823,6.9492,6.8855,6.9399,6.9378,6.9152,6.8693,6.846,6.7946,6.7126,6.7505,6.8297,6.8798,6.6787,6.5182,6.5727,6.6053,6.5711,6.3917,6.3385,6.3188,6.2579,6.1496,6.0211,5.9237,5.849,5.7619,5.7175,5.6937,5.658,5.6369,5.6091,5.319,5.1817,5.1549,5.0354,4.9858,4.9925,5.0357,5.0952,5.1685,5.3502,5.4858,5.5845,5.6731,5.7814,5.8732,5.7297,5.6696,5.6713,5.3606,5.2129,5.2087,4.9592,4.8618,4.9219,4.9356,4.9673,5.0334,5.2342,5.3723,5.4387,5.4769,5.5279,5.5894,5.5784,5.5695,5.5695,5.2892,5.0641,4.9033,4.581,4.294,4.061,3.9212,3.8385,3.8008,3.6576,3.5075,3.3476,3.0893,2.7968,2.4696,2.2393,2.0558,1.9306,2.2189,2.3782,2.323,2.3359,2.5046,2.86,3.7019,4.7453,6.0128,5.6444,5.5857,6.1841,6.3464,6.5037,6.7022,6.9111,7.0173,6.974,7.097,7.2179,7.2931,7.2405,7.2567,7.3788,7.2885,7.2006,7.2109,7.207,7.1906,7.1682,7.1048,7.0726,7.1407,7.0712,7.0351,7.0902,7.0863,7.0876,7.1325,7.0892,7.0796,7.1183,6.9406,6.7901,6.8081,6.8181,6.7859,6.6645,6.6139,6.5767,6.4935,6.4593,6.3753,6.1954,6.1056,6.0461,5.7929,5.8719,5.7399,5.7429,5.8269,5.6808,5.5312,5.3788,5.275,5.2363,5.2573,5.3348,5.3889,5.433,5.6065,5.7398,5.8184,5.8795,5.9361,5.9802,5.9151,5.8397,5.7508,5.5949,5.477,5.3887,5.1898,5.0834,5.0803,5.0653,5.0671,5.094,5.2606,5.3844,5.4662,5.5554,5.6125,5.6495,5.6182,5.5959,5.573,5.3394,5.1107,4.8911,4.6085,4.2911,3.9514,3.9062,3.8091,3.6322,3.6532,3.6273,3.5138,3.127,2.8509,2.7031,2.392,2.2651,2.3978,2.6377,2.985,3.4526,3.6976,3.728,3.5162,4.5015,5.3771,5.8905,6.0191,5.8738,5.4336,6.1315,6.7333,7.0246,7.0548,7.0681,7.1174,7.1575,7.1895,7.2088,7.2018,7.2041,7.2393,7.2193,7.2006,7.1992,7.1992,7.1992,7.1949,7.1772,7.1708,7.176,7.1507,7.1887,7.3285,7.2802,7.3117,7.4654,7.3586,7.2612,7.2921,7.1634,6.999,6.9513,6.991,6.9721,6.799,6.7534,6.7292,6.6999,6.6782,6.6107,6.4059,6.3035,6.2579,5.8934,5.9335,5.8591,5.8613,5.9073,5.8554,5.7919,5.715,5.5464,5.5003,5.5451,5.586,5.6372,5.6987,5.829,5.9081,5.9354,5.9895,6.0245,6.0468,5.9856,5.9218,5.8672,5.6821,5.5571,5.4826,5.3038,5.2093,5.2013,5.2087,5.2126,5.2203,5.3757,5.4734,5.5206,5.6237,5.6752,5.6782,5.5821,5.5304,5.5201,5.2101,4.9554,4.7621,4.4151,4.0817,3.7804,3.6755,3.5614,3.4455,3.4325,3.4159,3.3903,3.197,3.0918,3.1132,3.0517,3.0975,3.2871,3.5687,3.9229,4.3551,4.8244,4.9434,4.5968,5.2992,5.8527,6.0832,6.3181,6.2986,5.9534,6.4009,6.8466,7.117,7.1311,7.1262,7.164,7.1758,7.1817,7.1876,7.1893,7.1916,7.1997,7.1975,7.1986,7.1992,7.1992,7.1992,7.1991,7.1989,7.1984,7.1975,7.231,7.2594,7.308,7.3982,7.4772,7.622,7.5312,7.3892,7.3021,7.2676,7.2013,7.0899,7.0915,7.0667,6.9256,6.8743,6.854,6.8005,6.7757,6.7398,6.6246,6.5539,6.4859,6.0024,5.9891,6.0012,5.9997,5.9858,5.9982,6.0149,6.0358,5.8383,5.7842,5.8324,5.8427,5.884,5.953,6.0186,6.0461,6.0387,6.0716,6.1027,6.1133,6.0281,5.9851,5.9647,5.7495,5.627,5.5734,5.4035,5.3118,5.2909,5.3179,5.3272,5.3415,5.4843,5.5653,5.5819,5.6763,5.7063,5.6752,5.5339,5.4666,5.4634,5.0757,4.7799,4.6258,4.2109,3.8686,3.6196,3.4565,3.3469,3.2956,3.2382,3.2256,3.2669,3.3206,3.4272,3.5817,3.822,4.0447,4.2559,4.5875,4.9105,5.1979,5.7418,5.9625,5.7104,5.9865,6.2279,6.3581,6.5358,6.6406,6.6493,6.7487,6.9062,7.1342,7.1645,7.169,7.1718,7.1782,7.1848,7.1885,7.1893,7.1916,7.1993,7.1986,7.1992,7.1992,7.1992,7.1992,7.1989,7.199,7.199,7.2025,7.245,7.2804,7.2767,7.4006,7.5863,7.6839,7.6232,7.4811,7.2986,7.2935,7.2944,7.1609,7.1493,7.1066,7.0251,6.9938,6.9605,6.8817,6.8579,6.8522,6.8493,6.8183,6.7347,6.1102,6.161,6.1548,6.1911,6.2486,6.2358,6.2134,6.1841,6.1326,6.1223,6.1327,6.1499,6.1534,6.1466,6.1606,6.1849,6.226,6.1855,6.1851,6.2066,6.1602,6.0898,5.9911,5.9449,5.838,5.6955,5.5702,5.4665,5.3971,5.3517,5.3272,5.3448,5.4689,5.5765,5.6481,5.6724,5.6801,5.6635,5.5755,5.5018,5.4516,5.0921,4.7868,4.5491,4.2005,3.8741,3.597,3.5489,3.453,3.2947,3.3703,3.4292,3.4607,3.6133,3.8048,4.0654,4.3385,4.6433,4.9924,5.284,5.6581,6.1403,6.3475,6.391,6.2863,6.382,6.4955,6.5902,6.6228,6.6445,6.6532,6.7557,6.9127,7.1223,7.1665,7.1718,7.168,7.1778,7.1828,7.1854,7.1901,7.193,7.1963,7.1988,7.1992,7.1992,7.1992,7.1992,7.1989,7.1986,7.1984,7.1984,7.2103,7.2536,7.3202,7.4099,7.5384,7.6951,7.638,7.5202,7.3501,7.2695,7.2173,7.1661,7.1575,7.1469,7.1165,7.1141,7.0876,7.0575,7.0464,7.0465,7.0375,7.0239,6.9728,6.2434,6.2719,6.2693,6.2844,6.3109,6.3276,6.3189,6.3091,6.3066,6.2614,6.1918,6.1883,6.1883,6.1953,6.2162,6.2473,6.2678,6.2473,6.2395,6.2313,6.187,6.1217,6.039,5.9745,5.9085,5.8115,5.6709,5.5863,5.5425,5.4794,5.4438,5.4438,5.5194,5.5994,5.6647,5.6447,5.6369,5.6369,5.5331,5.4494,5.3977,5.0746,4.8096,4.6112,4.3137,4.0492,3.8024,3.7029,3.6157,3.5168,3.6167,3.7417,3.9073,4.0927,4.3637,4.7339,4.9784,5.2622,5.6271,5.9218,6.2141,6.4986,6.5615,6.5677,6.528,6.5568,6.5985,6.6406,6.6461,6.647,6.6607,6.7917,6.9186,7.0187,7.033,7.0356,7.047,7.0912,7.1183,7.1285,7.1663,7.1953,7.1997,7.1986,7.1992,7.1992,7.1992,7.1989,7.1981,7.201,7.201,7.1984,7.1988,7.242,7.332,7.414,7.4999,7.6092,7.6043,7.5238,7.3907,7.2665,7.1975,7.1693,7.1675,7.1645,7.1581,7.1511,7.1455,7.1358,7.1313,7.1247,7.1178,7.103,7.0556,6.3601,6.3538,6.3752,6.3867,6.3925,6.4164,6.4277,6.4177,6.4113,6.3413,6.2335,6.2125,6.2125,6.2335,6.2749,6.292,6.2917,6.2953,6.2838,6.255,6.1938,6.145,6.0967,6.0139,5.946,5.8978,5.7734,5.6918,5.6478,5.5928,5.5653,5.5653,5.5763,5.6126,5.6911,5.6437,5.6282,5.6348,5.5147,5.4161,5.3408,5.0649,4.8432,4.6665,4.4476,4.2457,4.0769,3.929,3.8673,3.8964,3.9738,4.1478,4.4307,4.6544,4.9692,5.381,5.6123,5.8587,6.1592,6.407,6.5724,6.6334,6.6406,6.6439,6.6439,6.6461,6.6467,6.6445,6.6508,6.6594,6.6797,6.7798,6.8618,6.8631,6.9032,6.9328,6.9362,7.0073,7.0614,7.0759,7.149,7.2006,7.2006,7.1984,7.1992,7.1992,7.1988,7.1981,7.2006,7.1997,7.2002,7.2059,7.2144,7.2692,7.3437,7.4375,7.5155,7.5659,7.585,7.5243,7.4109,7.3094,7.2331,7.1977,7.1732,7.169,7.163,7.163,7.1598,7.1508,7.1474,7.1416,7.1334,7.1178,7.0887,6.4202,6.4179,6.4782,6.5428,6.5755,6.5723,6.5549,6.5267,6.4387,6.3785,6.3363,6.3466,6.3358,6.3466,6.3427,6.3427,6.3462,6.3158,6.3076,6.3079,6.2173,6.1832,6.1914,6.1234,6.0373,5.9395,5.9016,5.8032,5.6691,5.6431,5.632,5.629,5.6017,5.6437,5.7345,5.6954,5.6954,5.7446,5.6145,5.4649,5.3018,5.0908,4.8839,4.6909,4.5412,4.4281,4.3773,4.2589,4.2708,4.4316,4.5117,4.6898,4.9927,5.2724,5.5792,5.9295,6.1715,6.3979,6.5672,6.6174,6.6345,6.6454,6.65,6.6528,6.6555,6.6581,6.6567,6.6567,6.6594,6.6594,6.6702,6.6935,6.7091,6.7247,6.8277,6.9223,6.9275,7.0082,7.0622,7.0693,7.1412,7.201,7.1975,7.1984,7.199,7.1986,7.1978,7.201,7.2006,7.1997,7.1993,7.2124,7.2603,7.3426,7.429,7.5194,7.5898,7.6638,7.6277,7.5399,7.4474,7.4094,7.3787,7.2039,7.1758,7.1704,7.169,7.169,7.1675,7.1614,7.1581,7.1586,7.1494,7.1373,7.1116,6.5136,6.5459,6.5353,6.5505,6.5899,6.5794,6.5617,6.5331,6.4542,6.3864,6.3261,6.3444,6.341,6.3227,6.3227,6.3193,6.3227,6.2847,6.2673,6.2707,6.1924,6.1583,6.1483,6.1084,6.0553,5.9853,5.9067,5.8346,5.7626,5.6888,5.6479,5.6427,5.6953,5.7731,5.8561,5.8787,5.9053,5.9514,5.8456,5.7509,5.653,5.3653,5.1425,5.0192,4.9159,4.8265,4.7455,4.6707,4.6767,4.7725,4.9538,5.1903,5.4648,5.7284,6.0061,6.3,6.4613,6.5734,6.6461,6.6485,6.6485,6.65,6.6555,6.6645,6.6657,6.6657,6.6669,6.6657,6.6607,6.6607,6.6702,6.6741,6.6759,6.6828,6.7413,6.7803,6.7836,6.9061,6.9901,7.0006,7.1151,7.1978,7.1981,7.1988,7.1992,7.1975,7.2002,7.1997,7.1997,7.1993,7.1993,7.2115,7.2748,7.3579,7.4447,7.5349,7.5973,7.6243,7.6111,7.5428,7.4187,7.425,7.3904,7.2078,7.1797,7.1732,7.1784,7.1732,7.1732,7.1675,7.1636,7.1586,7.1571,7.1475,7.1355,6.5926,6.6491,6.6141,6.6004,6.6039,6.6069,6.592,6.5699,6.5042,6.411,6.311,6.3419,6.317,6.2761,6.2847,6.2923,6.2923,6.2615,6.2595,6.2539,6.1891,6.1665,6.1783,6.1302,6.1069,6.0835,5.9778,5.9073,5.8916,5.8148,5.7652,5.7825,5.8827,5.9689,6.0316,6.1017,6.1514,6.1691,6.1165,6.0783,6.022,5.7634,5.5319,5.3857,5.3133,5.2442,5.1529,5.1283,5.1476,5.2047,5.44,5.6783,5.9162,6.1249,6.3338,6.5377,6.6229,6.6542,6.6567,6.6542,6.6555,6.6569,6.6657,6.6719,6.673,6.6702,6.6712,6.6702,6.6594,6.6633,6.6722,6.6767,6.6822,6.6791,6.6783,6.6791,6.6928,6.834,6.9405,6.9546,7.0963,7.1986,7.1989,7.1992,7.1981,7.1997,7.1987,7.1987,7.1987,7.1987,7.1987,7.2021,7.2739,7.3494,7.4171,7.4915,7.5462,7.5571,7.5438,7.4552,7.3423,7.3796,7.3661,7.1911,7.1797,7.1745,7.1797,7.1797,7.1758,7.1718,7.163,7.1586,7.1586,7.155,7.1513,6.6496,6.6988,6.7508,6.726,6.6735,6.7029,6.7073,6.6704,6.5852,6.4742,6.3543,6.3497,6.2818,6.1938,6.2415,6.277,6.2923,6.2693,6.2876,6.3079,6.238,6.2575,6.3651,6.2542,6.2173,6.2556,6.168,6.0971,6.0369,6.0368,6.0612,6.1116,6.1698,6.222,6.2588,6.3577,6.4106,6.4142,6.4244,6.4078,6.346,6.2765,6.0619,5.7677,5.664,5.6257,5.6026,5.6244,5.6946,5.8348,5.9801,6.1601,6.3467,6.4597,6.5589,6.6412,6.6657,6.6747,6.6747,6.6747,6.6747,6.6708,6.673,6.6712,6.6712,6.6712,6.6722,6.6712,6.6702,6.6712,6.6767,6.6783,6.6791,6.6805,6.6791,6.6798,6.6811,6.8351,6.9264,6.9635,7.0933,7.1913,7.1989,7.201,7.1997,7.1987,7.1987,7.1987,7.1987,7.1987,7.1982,7.2093,7.2612,7.3295,7.3416,7.4282,7.4946,7.4939,7.4374,7.3438,7.3133,7.2823,7.2245,7.1872,7.1833,7.1794,7.1821,7.1809,7.177,7.1732,7.1661,7.1598,7.1908,7.1624,7.1529,6.6706,6.6732,6.7427,6.7452,6.7093,6.7108,6.698,6.6745,6.5995,6.4966,6.3949,6.3766,6.3115,6.1966,6.1991,6.2189,6.2313,6.2234,6.2437,6.264,6.2211,6.2425,6.3114,6.2992,6.3245,6.3796,6.3439,6.2916,6.2471,6.2435,6.2398,6.2631,6.36,6.4279,6.4807,6.6227,6.7062,6.7149,6.7232,6.7208,6.6966,6.6386,6.527,6.4006,6.1186,5.981,5.9994,6.0281,6.0769,6.1431,6.2963,6.4157,6.49,6.624,6.6828,6.675,6.772,6.8104,6.7637,6.7509,6.752,6.7481,6.6995,6.6693,6.6702,6.6711,6.6759,6.6741,6.6722,6.6732,6.6767,6.6798,6.6823,6.6823,6.6829,6.6834,6.7112,6.8297,6.9401,6.9642,7.0898,7.1951,7.1984,7.2006,7.1987,7.1987,7.1987,7.1982,7.1937,7.1937,7.193,7.1916,7.2164,7.2411,7.2411,7.372,7.4588,7.4189,7.3666,7.3002,7.2578,7.2355,7.1883,7.1844,7.1817,7.1817,7.1794,7.1821,7.1782,7.1693,7.1661,7.1879,7.2423,7.2047,7.1775,6.733,6.6965,6.7585,6.7607,6.7204,6.7256,6.7044,6.6724,6.6117,6.5211,6.4185,6.3915,6.3245,6.2094,6.1867,6.1829,6.1951,6.1997,6.2189,6.2459,6.2547,6.3007,6.3785,6.4251,6.4835,6.5574,6.549,6.5165,6.4929,6.4749,6.4638,6.4656,6.5857,6.645,6.681,6.8592,6.9634,6.9527,6.9692,6.9762,6.9507,6.8939,6.8554,6.7968,6.5194,6.3389,6.3277,6.3627,6.3785,6.395,6.5074,6.5835,6.5917,6.7087,6.7502,6.6905,6.7993,6.8611,6.8076,6.7725,6.7696,6.793,6.7257,6.672,6.6759,6.7048,6.7087,6.6876,6.675,6.675,6.6775,6.6823,6.6805,6.6844,6.7043,6.7203,6.7324,6.8778,6.9839,7.039,7.1289,7.191,7.1978,7.2002,7.1987,7.1976,7.1976,7.1969,7.1916,7.1916,7.1909,7.1893,7.1909,7.2002,7.2041,7.2924,7.3442,7.3164,7.3114,7.2494,7.2179,7.1916,7.1817,7.1817,7.1817,7.1817,7.1817,7.1806,7.177,7.1693,7.1743,7.1909,7.2244,7.2446,7.2236,6.8438,6.769,6.8162,6.7826,6.7177,6.7456,6.7325,6.6795,6.6424,6.5421,6.4244,6.4002,6.3057,6.2035,6.1896,6.1933,6.1776,6.1975,6.2256,6.2676,6.3393,6.4428,6.5551,6.6203,6.7086,6.8174,6.7987,6.7779,6.7652,6.7289,6.7184,6.7708,6.8349,6.8444,6.8083,7.0275,7.135,7.0935,7.1326,7.1398,7.0806,7.0475,7.0024,6.9387,6.817,6.6934,6.5629,6.6187,6.6088,6.5589,6.6186,6.6613,6.6633,6.7411,6.7514,6.701,6.7553,6.8004,6.7998,6.7355,6.7326,6.7725,6.7235,6.6822,6.7056,6.7571,6.7727,6.7282,6.7095,6.6939,6.6876,6.6839,6.6859,6.6891,6.7438,6.7952,6.831,6.9605,7.1015,7.1601,7.1951,7.1989,7.1978,7.1997,7.1982,7.1916,7.1901,7.1893,7.1893,7.1893,7.1924,7.1915,7.1885,7.1901,7.1916,7.2002,7.2054,7.2099,7.2164,7.1979,7.1984,7.1838,7.1817,7.1817,7.1817,7.1817,7.1817,7.1806,7.1782,7.1745,7.1835,7.1962,7.236,7.2679,7.2757,6.8524,6.793,6.798,6.7822,6.749,6.7209,6.6862,6.644,6.5801,6.4959,6.4178,6.3236,6.237,6.1872,6.1574,6.1616,6.1963,6.2207,6.2492,6.2959,6.4266,6.5298,6.614,6.7846,6.948,7.0643,7.1102,7.094,7.0297,6.9263,6.8756,6.8942,6.9152,6.9205,6.9097,7.0898,7.1791,7.1662,7.178,7.176,7.1494,7.0926,7.0481,7.0185,6.9358,6.8609,6.8102,6.7218,6.6654,6.6332,6.6546,6.6657,6.6828,6.7942,6.8292,6.7749,6.8903,6.9406,6.8855,6.8096,6.7647,6.7812,6.7251,6.7188,6.7624,6.7943,6.8261,6.8457,6.8574,6.8228,6.7141,6.6848,6.6862,6.6856,6.7646,6.8236,6.855,6.9726,7.0976,7.1794,7.1986,7.1981,7.1975,7.2002,7.1969,7.1893,7.1867,7.1848,7.1906,7.1906,7.1858,7.1838,7.1867,7.1885,7.1924,7.1932,7.1955,7.1963,7.1909,7.1893,7.1867,7.1838,7.1827,7.1817,7.1817,7.1817,7.1817,7.1806,7.1782,7.1745,7.1757,7.2157,7.271,7.2889,7.2874,6.8319,6.7925,6.7799,6.7557,6.7394,6.6862,6.644,6.5975,6.509,6.4577,6.398,6.2853,6.2263,6.2012,6.1546,6.1682,6.2255,6.2643,6.3208,6.3986,6.5223,6.6182,6.6938,6.9271,7.0937,7.1776,7.2305,7.2284,7.1788,7.0265,6.9406,6.941,6.9413,6.9375,6.9569,7.1038,7.1953,7.1937,7.1932,7.1906,7.1798,7.136,7.1087,7.094,7.0216,6.9818,6.9653,6.8154,6.7199,6.7141,6.6925,6.6696,6.6763,6.815,6.8786,6.8345,6.9071,6.9757,6.9245,6.8144,6.7734,6.782,6.7266,6.7208,6.7916,6.8312,6.8864,6.9255,6.9996,6.9928,6.8929,6.7453,6.6988,6.6911,6.8006,6.8867,6.9531,7.0506,7.1283,7.1906,7.1978,7.1975,7.2006,7.1937,7.194,7.1858,7.1838,7.1817,7.1866,7.1866,7.1806,7.1806,7.1827,7.1838,7.1887,7.1906,7.1885,7.1893,7.1893,7.1876,7.1858,7.1838,7.1817,7.1817,7.1817,7.1817,7.1817,7.1817,7.1806,7.177,7.1771,7.2171,7.2609,7.2796,7.3129,6.7925,6.7719,6.7557,6.7146,6.6812,6.644,6.5888,6.5303,6.4577,6.4053,6.3703,6.2708,6.2399,6.23,6.1765,6.205,6.2838,6.3506,6.4438,6.5651,6.667,6.749,6.8828,7.0717,7.1675,7.1866,7.2105,7.2028,7.1677,7.0156,6.9453,6.957,6.9491,6.9447,6.9866,7.1173,7.2008,7.1909,7.1954,7.2043,7.1936,7.1867,7.1828,7.1789,7.1113,7.0692,7.045,6.9085,6.8046,6.7813,6.7042,6.6758,6.7058,6.8307,6.8813,6.8304,6.8888,6.929,6.9011,6.8007,6.7329,6.7758,6.728,6.7224,6.8161,6.8864,6.9416,6.984,7.0977,7.1776,7.1092,6.8828,6.7187,6.7182,6.8358,6.9842,7.1515,7.1825,7.1897,7.1971,7.1975,7.1971,7.1982,7.1876,7.1838,7.1817,7.1806,7.1794,7.1782,7.177,7.1758,7.177,7.1794,7.1817,7.1827,7.1838,7.1867,7.1867,7.1867,7.1858,7.1848,7.1827,7.1817,7.1817,7.1817,7.1817,7.1817,7.1817,7.1806,7.1809,7.1939,7.2238,7.2351,7.2446,7.3207,6.7765,6.7277,6.7063,6.6728,6.6268,6.5834,6.5213,6.4485,6.3832,6.3357,6.2908,6.2041,6.1743,6.1877,6.2248,6.2627,6.3493,6.4657,6.5868,6.7067,6.8461,7.0052,7.1437,7.2248,7.2359,7.2041,7.244,7.2259,7.105,7.0,6.9765,7.0306,6.9718,6.9742,7.0441,7.1901,7.2344,7.2043,7.2479,7.2401,7.1975,7.1915,7.1893,7.187,7.1689,7.1579,7.1409,6.9912,6.8297,6.7131,6.6868,6.7003,6.7576,6.8592,6.9331,6.9706,6.9901,6.9874,6.9255,6.8319,6.7641,6.7173,6.7052,6.7459,6.8942,6.9264,7.0006,7.0938,7.1807,7.1981,7.1445,6.8984,6.7461,6.7804,6.8703,6.9835,7.0881,7.1612,7.1997,7.1993,7.1943,7.1924,7.1837,7.1838,7.1767,7.177,7.1758,7.1745,7.1732,7.1732,7.1718,7.1784,7.1821,7.1794,7.1817,7.1827,7.1838,7.1827,7.1827,7.1827,7.1827,7.1817,7.1817,7.1817,7.1817,7.1817,7.1817,7.1817,7.1794,7.1809,7.1862,7.199,7.187,7.198,7.278,6.7277,6.698,6.6558,6.6095,6.5625,6.5123,6.461,6.3959,6.3164,6.2779,6.246,6.1612,6.1534,6.2099,6.2385,6.3257,6.4603,6.5724,6.7113,6.867,7.0039,7.129,7.2292,7.2569,7.2344,7.2041,7.2436,7.214,7.1286,7.039,7.0272,7.0499,7.0214,7.0387,7.1129,7.1993,7.2589,7.2423,7.2546,7.2273,7.1877,7.1876,7.1893,7.1916,7.1937,7.1864,7.1312,7.005,6.8671,6.7508,6.7023,6.7131,6.7969,6.8777,6.9624,7.0463,7.0531,7.0297,6.9772,6.8795,6.7914,6.7493,6.7364,6.8044,6.9142,6.9698,7.0601,7.1698,7.1978,7.1986,7.1562,6.9334,6.7846,6.7643,6.8648,6.9694,7.0626,7.1474,7.1897,7.1963,7.1948,7.1876,7.1827,7.1806,7.177,7.1693,7.1679,7.1718,7.1704,7.169,7.1743,7.1757,7.1771,7.1745,7.177,7.1743,7.1755,7.1794,7.1782,7.1782,7.1794,7.1794,7.1806,7.1806,7.1817,7.1817,7.1817,7.1817,7.1806,7.1782,7.1745,7.1743,7.1753,7.1669,7.2508,6.6728,6.6558,6.5955,6.5392,6.491,6.4393,6.3959,6.3484,6.2746,6.2396,6.2317,6.1578,6.1908,6.2926,6.313,6.4053,6.6304,6.6998,6.8457,6.9997,7.1175,7.178,7.1681,7.1984,7.1901,7.1792,7.1897,7.1906,7.1481,7.0897,7.0777,7.0846,7.0787,7.1117,7.1675,7.2032,7.2404,7.2677,7.2412,7.21,7.1877,7.1876,7.1893,7.1909,7.1976,7.1675,7.1011,7.0069,6.9165,6.8273,6.7337,6.7368,6.8149,6.9007,6.9826,7.0598,7.0853,7.0766,7.0424,6.9272,6.8273,6.8124,6.8111,6.8552,6.9377,7.0093,7.096,7.1906,7.1984,7.1833,7.1211,6.964,6.8148,6.7438,6.8312,6.9543,7.0473,7.1331,7.1909,7.1893,7.1915,7.1848,7.1817,7.1821,7.1784,7.169,7.1637,7.1675,7.1661,7.1661,7.1661,7.1714,7.1729,7.169,7.1704,7.1693,7.1732,7.1745,7.1732,7.1732,7.1745,7.1758,7.1782,7.1782,7.1806,7.1817,7.1817,7.1817,7.1806,7.1782,7.1745,7.1782,7.1831,7.1669,7.2103,6.6388,6.5658,6.5303,6.4852,6.424,6.3865,6.3484,6.2939,6.2364,6.2102,6.2157,6.2105,6.244,6.3197,6.4649,6.6019,6.7091,6.8585,7.026,7.13,7.1672,7.1438,7.1183,7.1456,7.1487,7.1295,7.171,7.1636,7.1091,7.1014,7.1048,7.1573,7.1095,7.1111,7.1885,7.2422,7.256,7.2365,7.2529,7.2384,7.1945,7.1885,7.1901,7.1916,7.1976,7.1909,7.1597,7.0894,7.003,6.9009,6.7826,6.7539,6.8702,6.917,7.0029,7.1152,7.1542,7.13,7.0684,7.0231,6.9504,6.8385,6.8703,6.9182,6.9386,7.0178,7.1083,7.1792,7.1951,7.1484,7.0464,6.9283,6.8144,6.7473,6.7805,6.8756,6.9639,7.0949,7.172,7.1867,7.1827,7.1794,7.1806,7.1809,7.1718,7.1661,7.163,7.163,7.163,7.1614,7.163,7.1699,7.1684,7.1661,7.169,7.169,7.169,7.169,7.169,7.1675,7.1704,7.1718,7.1732,7.177,7.1794,7.1806,7.1817,7.1817,7.1806,7.1782,7.19,7.221,7.2322,7.2018,7.2174,6.558,6.4572,6.4538,6.4207,6.358,6.3196,6.2811,6.23,6.1758,6.1792,6.2173,6.2299,6.3098,6.4566,6.5963,6.7153,6.8652,7.0192,7.1299,7.1672,7.1534,7.109,7.0675,7.0687,7.0626,7.0683,7.1122,7.1205,7.1285,7.1324,7.159,7.1958,7.1485,7.1819,7.2299,7.2596,7.2557,7.2509,7.2452,7.2296,7.1963,7.1901,7.1916,7.1937,7.1982,7.1987,7.1909,7.1128,7.0504,6.9723,6.8429,6.7988,6.9036,6.9387,7.0245,7.1572,7.187,7.1753,7.1285,7.0824,7.0096,6.8864,6.9182,6.9308,6.9593,7.0184,7.1048,7.1755,7.1913,7.1523,7.0656,6.9202,6.8261,6.7737,6.7793,6.8273,6.8929,7.0238,7.1497,7.1711,7.1833,7.1758,7.1732,7.1732,7.1704,7.163,7.1614,7.1614,7.1614,7.1614,7.163,7.1684,7.1669,7.1684,7.1661,7.1675,7.1661,7.1645,7.1645,7.1645,7.1645,7.1661,7.1675,7.1732,7.1782,7.1806,7.1817,7.1817,7.2,7.2303,7.2574,7.2896,7.3099,7.3129,7.3317,6.4383,6.3603,6.3696,6.3356,6.2971,6.2453,6.2075,6.1663,6.1348,6.1747,6.2405,6.2521,6.4321,6.6001,6.7066,6.8567,7.0234,7.1217,7.1823,7.1464,7.1065,7.0498,7.0079,6.962,6.9589,7.0292,7.0689,7.1122,7.1744,7.1978,7.1897,7.2002,7.1993,7.2177,7.2645,7.2405,7.2236,7.2626,7.226,7.2026,7.1948,7.1924,7.1937,7.1982,7.1987,7.1987,7.187,7.1363,7.0855,7.0621,6.9294,6.9059,6.9333,6.9528,7.0074,7.1675,7.178,7.1852,7.1741,7.1273,7.0615,6.9689,6.9816,6.9632,6.9716,7.0345,7.1128,7.1522,7.1797,7.195,7.1822,7.0565,6.9113,6.8279,6.8053,6.807,6.8336,6.941,7.0346,7.1393,7.1641,7.1732,7.169,7.1675,7.1645,7.1614,7.1598,7.1598,7.1598,7.1598,7.1614,7.1614,7.1653,7.1614,7.1645,7.1645,7.163,7.163,7.1614,7.1614,7.1614,7.163,7.1661,7.1679,7.1731,7.1794,7.1817,7.1817,7.2145,7.2744,7.3105,7.3246,7.3682,7.4256,7.4538,6.3219,6.3417,6.246,6.2106,6.2126,6.1653,6.144,6.1595,6.1843,6.2266,6.2753,6.4513,6.5647,6.6972,6.889,7.0429,7.1386,7.1714,7.1468,7.1033,7.0582,6.9962,6.8878,6.8496,6.8499,6.8893,6.9755,7.0924,7.1737,7.2006,7.1889,7.1953,7.1987,7.2182,7.2221,7.2026,7.2021,7.2294,7.2093,7.1982,7.1987,7.1987,7.1987,7.1993,7.1993,7.1987,7.1987,7.1831,7.1441,7.0738,7.0426,7.0348,7.023,6.9801,7.0074,7.0933,7.1675,7.1987,7.1914,7.1841,7.1307,7.0887,7.0927,7.0578,7.0189,7.0699,7.1247,7.1327,7.1678,7.1978,7.1997,7.1217,7.0236,6.8976,6.8216,6.8188,6.8258,6.87,6.9468,7.0667,7.1278,7.1718,7.1675,7.163,7.1598,7.1581,7.1564,7.1603,7.1586,7.1603,7.1581,7.162,7.162,7.1598,7.1614,7.1614,7.1614,7.1614,7.1598,7.1598,7.1598,7.1598,7.1645,7.1665,7.1731,7.1806,7.1817,7.1817,7.2378,7.3068,7.3314,7.3518,7.4421,7.5283,7.5588,6.1934,6.1727,6.1122,6.0895,6.1053,6.0836,6.0704,6.0759,6.1675,6.2526,6.3435,6.4834,6.6273,6.7485,6.8976,7.0619,7.1499,7.0952,7.0709,7.0509,6.9767,6.9035,6.8031,6.7721,6.7804,6.8236,6.9095,7.0145,7.1225,7.1307,7.1577,7.1953,7.1987,7.1987,7.1987,7.2026,7.1987,7.1987,7.1993,7.2002,7.2006,7.2006,7.2006,7.1997,7.1997,7.1993,7.1987,7.1987,7.1831,7.1363,7.0933,7.0777,7.0582,7.0465,7.0465,7.1245,7.1758,7.2002,7.2006,7.1971,7.1551,7.0855,7.1167,7.0972,7.0467,7.0663,7.1171,7.1484,7.1597,7.201,7.1993,7.1558,7.0777,7.0225,6.9341,6.878,6.8765,6.9041,6.9663,7.0356,7.072,7.1198,7.1645,7.1614,7.1581,7.1547,7.1568,7.1568,7.1589,7.1586,7.1603,7.1581,7.1581,7.1581,7.1598,7.1598,7.1598,7.1598,7.1598,7.1598,7.1598,7.1598,7.1645,7.1665,7.1758,7.2089,7.1817,7.1856,7.26,7.3354,7.3755,7.4311,7.5432,7.6249,7.6397,6.0642,6.0233,5.9726,5.9696,6.0041,6.0016,6.0111,6.0389,6.1804,6.2981,6.3882,6.5219,6.6603,6.781,6.8941,7.0178,7.1346,6.9947,6.982,6.9689,6.8874,6.8101,6.7685,6.7377,6.7261,6.7733,6.7967,6.8822,7.0217,7.0725,7.1151,7.1529,7.1797,7.1987,7.1987,7.1987,7.1987,7.1997,7.2002,7.201,7.1975,7.1978,7.1978,7.201,7.2006,7.2002,7.1993,7.1987,7.1993,7.1758,7.1407,7.1016,7.0977,7.0938,7.129,7.188,7.2002,7.2006,7.1975,7.1978,7.1712,7.117,7.1014,7.0898,7.0664,7.0625,7.0859,7.1757,7.2337,7.2241,7.2032,7.1474,7.1396,7.1234,7.0426,6.9506,6.9419,6.9587,6.9924,7.0317,7.0447,7.0834,7.1435,7.1598,7.1564,7.1455,7.1436,7.1513,7.1552,7.1589,7.1586,7.1581,7.1598,7.1598,7.1598,7.1598,7.1598,7.1598,7.1598,7.1598,7.1598,7.1598,7.1661,7.1782,7.2588,7.2869,7.2401,7.2245,7.3119,7.3873,7.4353,7.505,7.607,7.6537,7.6684,5.9378,5.9915,5.8593,5.8462,5.9032,5.9239,6.0013,6.1171,6.2545,6.3866,6.4931,6.6532,6.7461,6.8036,6.8773,6.9397,6.9632,6.9355,6.8956,6.8669,6.8205,6.7629,6.7174,6.6982,6.6949,6.7226,6.7148,6.8005,6.9289,7.0184,7.0686,7.103,7.169,7.1997,7.1993,7.1987,7.1993,7.2002,7.1975,7.1981,7.1986,7.1988,7.1986,7.1978,7.201,7.2006,7.2002,7.1997,7.1997,7.1963,7.1885,7.1811,7.1858,7.1854,7.1858,7.1975,7.1975,7.1975,7.1986,7.1988,7.1989,7.1718,7.1718,7.1406,7.1053,7.0855,7.1128,7.1914,7.2765,7.3217,7.2885,7.2828,7.2665,7.2026,7.1183,7.0229,6.983,7.0172,7.0509,7.059,7.0772,7.1014,7.1474,7.1503,7.1547,7.1416,7.1334,7.1435,7.1494,7.155,7.1586,7.1581,7.1598,7.1598,7.1598,7.1598,7.1598,7.1598,7.1598,7.1598,7.1598,7.1614,7.1723,7.2054,7.2977,7.3648,7.3414,7.3531,7.3976,7.4431,7.4937,7.5673,7.6521,7.6786,7.6894,5.7624,5.8245,5.6683,5.7061,5.8541,5.8553,5.9509,6.1312,6.3027,6.4357,6.5283,6.6133,6.6856,6.7321,6.7406,6.807,6.889,6.8453,6.8093,6.7927,6.7615,6.7195,6.6934,6.6862,6.6908,6.6912,6.6914,6.7148,6.8278,6.933,7.0148,7.0725,7.1503,7.2002,7.1919,7.1993,7.1997,7.2006,7.1981,7.1989,7.199,7.199,7.1988,7.1981,7.1978,7.201,7.2002,7.2006,7.2006,7.201,7.201,7.1975,7.1978,7.1978,7.1981,7.1986,7.1984,7.1986,7.1989,7.199,7.1992,7.1992,7.1991,7.1794,7.1515,7.1434,7.1509,7.1939,7.2912,7.3681,7.433,7.435,7.3189,7.2383,7.2014,7.1429,7.0834,7.0853,7.1065,7.1069,7.1122,7.134,7.1474,7.152,7.1547,7.1416,7.1334,7.1394,7.1494,7.1568,7.1603,7.1598,7.1598,7.1598,7.1598,7.1598,7.1598,7.1598,7.1598,7.1598,7.1598,7.1653,7.1801,7.2443,7.3484,7.3987,7.4272,7.4388,7.4494,7.5015,7.5612,7.6154,7.6653,7.6825,7.6908,5.5733,5.6201,5.5277,5.6118,5.8055,5.8094,5.9365,6.144,6.326,6.4598,6.5273,6.5645,6.5989,6.6266,6.6114,6.6852,6.8527,6.739,6.7308,6.7342,6.7185,6.6883,6.6813,6.6859,6.6865,6.6911,6.6913,6.7031,6.7422,6.832,6.9411,7.0148,7.1356,7.1702,7.1772,7.1885,7.1997,7.2006,7.1981,7.1988,7.199,7.1989,7.1986,7.1981,7.1978,7.1975,7.2002,7.201,7.1975,7.1978,7.1981,7.1984,7.1986,7.1988,7.1988,7.199,7.199,7.199,7.1991,7.1992,7.1992,7.1991,7.1989,7.1981,7.1936,7.1975,7.201,7.1997,7.2817,7.4574,7.6008,7.5443,7.4546,7.3651,7.3202,7.2628,7.2082,7.1672,7.1416,7.1471,7.1472,7.151,7.1622,7.1575,7.1547,7.1416,7.1376,7.1394,7.1475,7.1529,7.1564,7.1581,7.1598,7.1598,7.1598,7.1598,7.1598,7.1598,7.1598,7.1598,7.1598,7.173,7.1917,7.2794,7.399,7.4677,7.5144,7.5039,7.4973,7.5677,7.6222,7.6349,7.6645,7.6816,7.6922,5.3923,5.4068,5.4937,5.6089,5.7425,5.8052,5.9701,6.1888,6.3355,6.4531,6.5378,6.5563,6.5528,6.5648,6.5641,6.5985,6.7034,6.6862,6.6823,6.6829,6.6829,6.6727,6.677,6.6817,6.6823,6.6871,6.6911,6.6913,6.7109,6.789,6.8359,6.863,7.0543,7.1046,7.1353,7.1659,7.1967,7.201,7.1978,7.1981,7.1984,7.1981,7.1981,7.1981,7.1981,7.1978,7.1978,7.1981,7.1984,7.1988,7.1988,7.199,7.1991,7.1992,7.1992,7.1992,7.1992,7.1992,7.1992,7.1992,7.1992,7.1989,7.1981,7.201,7.2006,7.1997,7.1987,7.2065,7.2812,7.414,7.5417,7.578,7.5161,7.5084,7.4322,7.3114,7.249,7.1905,7.1728,7.1782,7.1758,7.1732,7.1661,7.163,7.1564,7.1455,7.1355,7.1334,7.1455,7.155,7.1586,7.1603,7.1581,7.1598,7.1598,7.1598,7.1598,7.1598,7.1598,7.1598,7.1598,7.1769,7.1941,7.3416,7.46,7.5314,7.5911,7.5755,7.5872,7.6482,7.6805,7.6738,7.6684,7.6816,7.6936,5.3563,5.4481,5.5615,5.6871,5.8162,5.8741,6.0318,6.2311,6.3124,6.3896,6.4821,6.4828,6.5104,6.5339,6.502,6.5247,6.5993,6.6063,6.6063,6.6063,6.6067,6.634,6.6579,6.6813,6.6817,6.6826,6.6869,6.6911,6.6991,6.7617,6.7656,6.828,6.953,7.0388,7.0814,7.1356,7.1819,7.1975,7.1978,7.1981,7.1978,7.1975,7.1975,7.1981,7.1981,7.1981,7.1981,7.1988,7.1989,7.199,7.1991,7.1992,7.1992,7.1992,7.1992,7.1992,7.1992,7.1992,7.1992,7.1992,7.1992,7.1986,7.1975,7.2002,7.1997,7.1993,7.1987,7.226,7.2729,7.3861,7.3465,7.4726,7.5581,7.6048,7.5402,7.3843,7.2869,7.2245,7.1844,7.1833,7.1782,7.1731,7.1665,7.1591,7.1564,7.1493,7.1396,7.1334,7.1475,7.155,7.1586,7.1603,7.1581,7.1598,7.1598,7.1598,7.1598,7.1598,7.1598,7.1598,7.1598,7.1598,7.2057,7.3674,7.5157,7.5949,7.643,7.643,7.6586,7.6791,7.6855,7.6825,7.684,7.6894,7.6936,5.3363,5.4392,5.6007,5.7404,5.8611,5.9347,6.0711,6.2299,6.2846,6.3302,6.3891,6.3935,6.4211,6.4521,6.4281,6.4395,6.502,6.5251,6.5411,6.5528,6.5762,6.6114,6.6582,6.6813,6.6817,6.6781,6.6591,6.6519,6.6911,6.7265,6.7187,6.7344,6.8007,6.8983,6.9881,7.0777,7.1473,7.1861,7.1705,7.1858,7.1893,7.2006,7.2006,7.1975,7.1978,7.1984,7.1986,7.199,7.1991,7.1991,7.1992,7.1992,7.1992,7.1992,7.1992,7.1992,7.1991,7.1991,7.1991,7.199,7.1988,7.1978,7.1963,7.1953,7.1982,7.1982,7.1982,7.2026,7.2534,7.269,7.2138,7.4024,7.5806,7.6309,7.5285,7.3882,7.3181,7.2557,7.2117,7.1794,7.1782,7.1745,7.1718,7.1645,7.1675,7.1624,7.1511,7.1455,7.1475,7.155,7.1586,7.1603,7.1581,7.1598,7.1598,7.1598,7.1598,7.1598,7.1598,7.1598,7.1598,7.1598,7.2096,7.3518,7.4948,7.6363,7.6791,7.6621,7.6699,7.684,7.6825,7.6848,7.6879,7.6908,7.6949,5.304,5.3427,5.5884,5.7466,5.8441,5.9638,6.0813,6.1912,6.2649,6.3039,6.316,6.316,6.324,6.3355,6.3391,6.3699,6.4164,6.4356,6.4669,6.5219,6.5339,6.6005,6.655,6.6781,6.6547,6.6589,6.6164,6.601,6.6755,6.6367,6.6328,6.6758,6.7305,6.7773,6.8359,6.9139,7.0343,7.1581,7.1108,7.1377,7.1841,7.1993,7.2002,7.201,7.1978,7.1984,7.1989,7.1992,7.1992,7.1992,7.1992,7.1992,7.1992,7.199,7.199,7.1989,7.1986,7.1984,7.1981,7.1981,7.1978,7.1967,7.1953,7.1937,7.193,7.193,7.1937,7.2021,7.2138,7.2138,7.2711,7.3938,7.5523,7.6153,7.5168,7.426,7.3559,7.2546,7.2067,7.1782,7.1771,7.1729,7.1729,7.1714,7.1769,7.1753,7.1636,7.1603,7.1589,7.155,7.1586,7.1581,7.1581,7.1598,7.1598,7.1598,7.1598,7.1598,7.1598,7.1598,7.1598,7.1598,7.2329,7.3426,7.4233,7.5181,7.6062,7.6731,7.6754,7.6793,7.6793,7.6793,7.6879,7.6908,7.6936,5.2653,5.4167,5.6364,5.7556,5.8169,5.966,6.0856,6.1757,6.2577,6.2967,6.3006,6.3007,6.3398,6.3554,6.3201,6.3121,6.3355,6.3471,6.3901,6.4646,6.4723,6.5736,6.6283,6.624,6.6005,6.5775,6.5269,6.5193,6.6015,6.5547,6.6093,6.668,6.6991,6.7382,6.8398,6.9373,7.0736,7.1002,7.0917,7.1104,7.1875,7.1997,7.2006,7.1975,7.1984,7.1989,7.1991,7.1992,7.1991,7.1991,7.1991,7.199,7.1989,7.1988,7.1988,7.1986,7.1981,7.1978,7.1975,7.201,7.201,7.1963,7.1943,7.1884,7.1884,7.1909,7.1924,7.1976,7.1976,7.1963,7.2257,7.4021,7.5513,7.6259,7.5663,7.4677,7.3808,7.26,7.1821,7.1797,7.1757,7.1675,7.1661,7.1855,7.1925,7.2569,7.2685,7.1986,7.1797,7.1646,7.1624,7.162,7.1598,7.1598,7.1598,7.1598,7.1598,7.1598,7.1598,7.1598,7.1598,7.1598,7.2112,7.2974,7.3377,7.3858,7.523,7.6365,7.6643,7.6743,7.676,7.6793,7.6879,7.6894,7.6908,5.2299,5.3848,5.5819,5.6932,5.759,5.9207,6.0426,6.1249,6.1875,6.2265,6.2499,6.2539,6.2773,6.3047,6.2851,6.2538,6.2578,6.2577,6.3007,6.375,6.3866,6.4686,6.5311,6.5505,6.5193,6.492,6.4491,6.4374,6.5547,6.4961,6.535,6.6207,6.7027,6.7379,6.8045,6.8672,6.9724,7.0148,7.0533,7.0796,7.1573,7.2002,7.201,7.1981,7.1986,7.199,7.1992,7.1991,7.1989,7.1989,7.1988,7.1986,7.1984,7.1981,7.1981,7.1978,7.201,7.2006,7.2002,7.2002,7.1997,7.1997,7.1937,7.1884,7.1916,7.1909,7.1901,7.1909,7.1916,7.1885,7.216,7.4041,7.4956,7.5702,7.5404,7.4418,7.3626,7.2419,7.1874,7.1809,7.1743,7.1661,7.1669,7.1925,7.2103,7.2957,7.3773,7.2957,7.218,7.2008,7.178,7.162,7.1598,7.1598,7.1598,7.1598,7.1598,7.1598,7.1598,7.1598,7.1598,7.1598,7.2034,7.239,7.2638,7.3299,7.4903,7.5883,7.6238,7.6549,7.676,7.6793,7.6864,7.6879,7.6855,5.2028,5.2574,5.4295,5.5606,5.6606,5.8111,5.9407,6.0349,6.039,6.0859,6.1601,6.1523,6.1562,6.1601,6.1562,6.1601,6.168,6.168,6.2344,6.289,6.3242,6.3906,6.4258,6.4375,6.4258,6.3984,6.3633,6.3671,6.5117,6.4685,6.4719,6.5812,6.7099,6.7414,6.7494,6.7772,6.8828,6.9764,7.0031,7.0611,7.1623,7.201,7.1978,7.1984,7.1988,7.1991,7.1992,7.199,7.1989,7.1986,7.1984,7.1981,7.1978,7.201,7.2006,7.2002,7.1997,7.1993,7.1993,7.1993,7.1993,7.1993,7.1937,7.1916,7.1901,7.1901,7.1885,7.1885,7.1893,7.1867,7.216,7.3153,7.4182,7.4392,7.4457,7.3808,7.3172,7.2496,7.2068,7.1899,7.1768,7.1699,7.1614,7.1831,7.2258,7.3812,7.4589,7.4472,7.3657,7.2647,7.2319,7.1581,7.1598,7.1598,7.1598,7.1598,7.1598,7.1598,7.1598,7.1598,7.1598,7.1614,7.184,7.1987,7.1899,7.2662,7.4133,7.5167,7.5832,7.616,7.651,7.6777,7.6848,7.684,7.6855,5.1684,5.2485,5.3728,5.4456,5.4849,5.595,5.7555,5.9315,5.9483,5.9684,5.992,5.9922,6.0078,5.9922,5.9922,6.0312,6.0586,6.0976,6.1836,6.2383,6.2734,6.3515,6.3788,6.367,6.3473,6.308,6.2805,6.2805,6.3813,6.3884,6.5144,6.6552,6.6937,6.7249,6.7604,6.7726,6.8708,6.9453,6.9647,7.0582,7.1517,7.1984,7.1947,7.191,7.199,7.1953,7.1874,7.1949,7.1984,7.1975,7.1975,7.2006,7.1997,7.2002,7.2006,7.1993,7.1987,7.1987,7.1987,7.1987,7.1987,7.1987,7.1982,7.1924,7.1901,7.1885,7.1876,7.1867,7.1876,7.1867,7.1838,7.2557,7.3352,7.3678,7.3743,7.3561,7.3066,7.2935,7.2531,7.2492,7.236,7.1684,7.1614,7.1636,7.2297,7.4239,7.5327,7.5327,7.49,7.3773,7.2802,7.2064,7.1598,7.1598,7.1598,7.1598,7.1598,7.1598,7.1598,7.1598,7.1598,7.1614,7.1645,7.1753,7.1899,7.2414,7.3246,7.4278,7.5405,7.5871,7.6238,7.6527,7.6793,7.6809,7.684,5.1392,5.2065,5.2972,5.3787,5.4513,5.5036,5.6406,5.7938,5.8463,5.8784,5.9177,5.9258,5.9219,5.9297,5.9336,5.9531,5.9922,6.0,6.0625,6.1484,6.2031,6.246,6.2694,6.2807,6.2566,6.2248,6.2205,6.2283,6.3164,6.4497,6.5794,6.568,6.6262,6.7281,6.7793,6.8109,6.8812,6.9564,7.0155,7.082,7.1444,7.1951,7.1833,7.1639,7.1757,7.1797,7.1638,7.171,7.1975,7.2006,7.2002,7.1997,7.1987,7.1997,7.1997,7.1987,7.1987,7.1987,7.1987,7.1987,7.1987,7.1982,7.1976,7.1916,7.1893,7.1915,7.1858,7.1848,7.1867,7.1876,7.1848,7.1934,7.2534,7.3133,7.325,7.3377,7.3348,7.3356,7.3278,7.3239,7.2734,7.1902,7.1614,7.1614,7.2375,7.4356,7.556,7.5832,7.5288,7.4317,7.3346,7.253,7.1947,7.1598,7.1598,7.1598,7.1598,7.1598,7.1603,7.1603,7.1581,7.1653,7.1723,7.1855,7.204,7.2672,7.3385,7.4084,7.5016,7.556,7.6143,7.651,7.6743,7.6743,7.6777,5.1191,5.1406,5.2161,5.3468,5.4989,5.5059,5.5582,5.6493,5.7408,5.8198,5.8787,5.8945,5.8789,5.8594,5.8633,5.8789,5.9023,5.9101,5.9687,6.0351,6.0507,6.1052,6.1791,6.1668,6.1737,6.1733,6.1803,6.2032,6.3047,6.4096,6.4643,6.4414,6.5863,6.7034,6.7932,6.8332,6.9035,6.9859,7.0421,7.1015,7.164,7.1836,7.1561,7.1053,7.125,7.1562,7.1208,7.1398,7.1975,7.2006,7.1997,7.1987,7.1987,7.1987,7.1987,7.1987,7.1987,7.1987,7.1987,7.1982,7.1937,7.193,7.1884,7.1901,7.1915,7.1906,7.1858,7.1848,7.1867,7.1867,7.1848,7.2429,7.3055,7.3341,7.343,7.3557,7.3605,7.3845,7.4217,7.4217,7.4062,7.3168,7.208,7.2142,7.2508,7.4489,7.5772,7.6216,7.581,7.4878,7.3929,7.3035,7.2452,7.1947,7.1598,7.1598,7.1598,7.1581,7.1603,7.1586,7.1564,7.1675,7.1785,7.2306,7.2881,7.3161,7.3751,7.4434,7.5133,7.5776,7.6319,7.6609,7.6726,7.6708,7.6687,5.1289,5.1362,5.1576,5.2723,5.4216,5.4298,5.4814,5.5645,5.6517,5.7067,5.7224,5.7265,5.7305,5.7461,5.7461,5.7695,5.8125,5.8281,5.914,5.9648,5.9725,6.0307,6.1282,6.1115,6.1182,6.1559,6.1744,6.1855,6.2362,6.3143,6.3968,6.4375,6.5546,6.6639,6.8044,6.8484,6.9221,6.9884,7.037,7.0929,7.1556,7.1287,7.0859,7.0703,7.0898,7.0936,7.0853,7.1434,7.1854,7.1997,7.1993,7.1987,7.1987,7.1987,7.1987,7.1987,7.1987,7.1987,7.1987,7.1943,7.193,7.1924,7.1909,7.1885,7.1906,7.1906,7.1906,7.1897,7.1848,7.1858,7.2189,7.2924,7.3497,7.3586,7.3766,7.3853,7.3939,7.4528,7.5133,7.5211,7.5249,7.4356,7.3152,7.2935,7.3223,7.4328,7.5969,7.663,7.631,7.5594,7.4528,7.3673,7.2996,7.2452,7.1986,7.1598,7.1598,7.162,7.1586,7.1568,7.1529,7.2164,7.2718,7.334,7.3845,7.3945,7.4217,7.4822,7.5482,7.6068,7.6397,7.6669,7.6708,7.6708,7.6669,5.1369,5.1396,5.141,5.2191,5.3357,5.3838,5.4509,5.5335,5.6239,5.6595,5.6598,5.6601,5.6601,5.6601,5.6601,5.6757,5.7343,5.7305,5.8047,5.8711,5.9135,5.9795,6.0217,6.0597,6.1134,6.1504,6.1641,6.1712,6.179,6.2538,6.3449,6.4247,6.5189,6.6371,6.7893,6.864,6.9069,6.9421,6.9898,7.0331,7.0885,7.0384,6.9841,6.9804,6.9882,7.0035,7.0421,7.0963,7.1538,7.1836,7.1982,7.1937,7.1937,7.1937,7.1943,7.1987,7.1987,7.1987,7.1982,7.1937,7.1924,7.1909,7.1893,7.1906,7.1838,7.1838,7.1827,7.1827,7.1827,7.1838,7.2791,7.3574,7.3847,7.3975,7.453,7.4888,7.5205,7.5733,7.6026,7.6026,7.591,7.5444,7.4628,7.4744,7.4645,7.3123,7.488,7.6412,7.6265,7.6326,7.53,7.4373,7.3734,7.3035,7.2491,7.1986,7.1581,7.1603,7.1568,7.155,7.1648,7.2824,7.3729,7.445,7.4761,7.445,7.4744,7.5327,7.5719,7.6245,7.6477,7.6708,7.6708,7.6708,7.6669,5.1279,5.1379,5.1382,5.1921,5.2757,5.3487,5.42,5.4981,5.584,5.6197,5.6126,5.6131,5.6328,5.6562,5.66,5.66,5.6677,5.6831,5.7337,5.7804,5.7757,5.8808,5.9581,6.0032,6.0483,6.1088,6.1456,6.1564,6.1642,6.2321,6.3052,6.4118,6.5189,6.6336,6.7555,6.818,6.8492,6.8922,6.9195,6.9117,6.9163,6.9211,6.8863,6.8746,6.8825,6.9213,6.9521,7.0058,7.0948,7.1167,7.139,7.1462,7.1579,7.1579,7.1858,7.1864,7.1987,7.1987,7.1982,7.193,7.1916,7.1893,7.1906,7.1877,7.1817,7.1806,7.1794,7.1794,7.1806,7.2245,7.3157,7.4301,7.4548,7.4622,7.5253,7.5788,7.6238,7.6609,7.6648,7.6648,7.6415,7.6065,7.6143,7.6259,7.5383,7.3745,7.3659,7.4981,7.6031,7.6381,7.6093,7.5283,7.4606,7.389,7.3035,7.2297,7.1659,7.1547,7.155,7.1513,7.1862,7.3177,7.4511,7.5754,7.5871,7.5366,7.5366,7.5815,7.6187,7.64,7.6575,7.669,7.669,7.6651,7.6669,5.075,5.1385,5.1414,5.1874,5.2659,5.2897,5.3057,5.3334,5.4164,5.4484,5.464,5.4681,5.5153,5.66,5.6599,5.6599,5.6597,5.6593,5.714,5.7765,5.7164,5.8016,5.8788,5.9066,5.9342,6.0097,6.0974,6.1442,6.1197,6.1619,6.2629,6.3979,6.4306,6.568,6.7682,6.8073,6.8109,6.8379,6.8258,6.818,6.7785,6.791,6.8271,6.8234,6.8316,6.8388,6.8577,6.9199,6.962,6.984,7.0057,7.0441,7.0831,7.1143,7.1423,7.1903,7.1987,7.1987,7.1982,7.1916,7.1901,7.1885,7.1897,7.1856,7.1794,7.177,7.1758,7.1758,7.1887,7.2312,7.3352,7.534,7.6038,7.5735,7.596,7.6238,7.6591,7.6669,7.6669,7.6669,7.6609,7.6454,7.6493,7.6549,7.6527,7.5199,7.4481,7.5648,7.6217,7.649,7.6747,7.6077,7.5344,7.4278,7.319,7.2375,7.1775,7.1607,7.1687,7.1979,7.2599,7.3703,7.4981,7.6164,7.6591,7.6281,7.6379,7.6224,7.6361,7.6555,7.6633,7.671,7.6671,7.6651,7.6669]}]]